[[{"header":{"parameterUnit":"m.s-1","parameterCategory":1,"la1":31.0,"la2":29.5877,"lo1":-88.7671,"lo2":-86.6584,"dy":0.0162,"dx":0.0185,"nx":115,"ny":88,"refTime":"2023-10-02T06:00:00:Z","depth":0,"parameterNumber":2,"parameterNumberName":"U-component_of_WINDS"},"data":[0.0,0.0,0.0,0.0,0.0,0.0,0.0,0.0,0.0,0.0,0.0,0.0,0.0,0.0,0.0,0.0,0.0,0.0,0.0,0.0,0.0,0.0,0.0,0.0,0.0,0.0,0.0,0.0,0.0,0.0,0.0,0.0,0.0,0.0,0.0,0.0,0.0,0.0,0.0,0.0,0.0,0.0,0.0,0.0,0.0,0.0,0.0,0.0,0.0,0.0,0.0,0.0,0.0,0.0,0.0,0.0,0.0,0.0,0.0,0.0,0.0,0.0,0.0,0.0,0.0,0.0,0.0,0.0,0.0,0.0,0.0,0.0,0.0,0.0,0.0,0.0,0.0,0.0,0.0,0.0,0.0,0.0,0.0,0.0,0.0,0.0,0.0,0.0,0.0,0.0,0.0,0.0,0.0,0.0,0.0,0.0,0.0,0.0,0.0,0.0,0.0,0.0,0.0,0.0,0.0,0.0,0.0,0.0,0.0,0.0,0.0,0.0,0.0,0.0,0.0,0.0,0.0,0.0,0.0,0.0,0.0,0.0,0.0,0.0,0.0,0.0,0.0,0.0,0.0,0.0,0.0,0.0,0.0,0.0,0.0,0.0,0.0,0.0,0.0,0.0,0.0,0.0,0.0,0.0,0.0,0.0,0.0,0.0,0.0,0.0,0.0,0.0,0.0,0.0,0.0,0.0,0.0,0.0,0.0,0.0,0.0,0.0,0.0,0.0,0.0,0.0,0.0,0.0,0.0,0.0,0.0,0.0,0.0,0.0,0.0,0.0,0.0,0.0,0.0,0.0,0.0,0.0,0.0,0.0,0.0,0.0,0.0,0.0,0.0,0.0,0.0,0.0,0.0,0.0,0.0,0.0,0.0,0.0,0.0,0.0,0.0,0.0,0.0,0.0,0.0,0.0,0.0,0.0,0.0,0.0,0.0,0.0,0.0,0.0,0.0,0.0,0.0,0.0,0.0,0.0,0.0,0.0,0.0,0.0,0.0,0.0,0.0,0.0,0.0,0.0,0.0,0.0,0.0,0.0,0.0,0.0,0.0,0.0,0.0,0.0,0.0,0.0,0.0,0.0,0.0,0.0,0.0,0.0,0.0,0.0,0.0,0.0,0.0,0.0,0.0,0.0,0.0,0.0,0.0,0.0,0.0,0.0,0.0,0.0,0.0,0.0,0.0,0.0,0.0,0.0,0.0,0.0,0.0,0.0,0.0,0.0,0.0,0.0,0.0,0.0,0.0,0.0,0.0,0.0,0.0,0.0,0.0,0.0,0.0,0.0,0.0,0.0,0.0,0.0,0.0,0.0,0.0,0.0,0.0,0.0,0.0,0.0,0.0,0.0,0.0,0.0,0.0,0.0,0.0,0.0,0.0,0.0,0.0,0.0,0.0,0.0,0.0,0.0,0.0,0.0,0.0,0.0,0.0,0.0,0.0,0.0,0.0,0.0,0.0,0.0,0.0,0.0,0.0,0.0,0.0,0.0,0.0,0.0,0.0,0.0,0.0,0.0,0.0,0.0,0.0,0.0,0.0,0.0,0.0,0.0,0.0,0.0,0.0,0.0,0.0,0.0,0.0,0.0,0.0,0.0,0.0,0.0,0.0,0.0,0.0,0.0,0.0,0.0,0.0,0.0,0.0,0.0,0.0,0.0,0.0,0.0,0.0,0.0,0.0,0.0,0.0,0.0,0.0,0.0,0.0,0.0,0.0,0.0,0.0,0.0,0.0,0.0,0.0,0.0,0.0,0.0,0.0,0.0,0.0,0.0,0.0,0.0,0.0,0.0,0.0,0.0,0.0,0.0,0.0,0.0,0.0,0.0,0.0,0.0,0.0,0.0,0.0,0.0,0.0,0.0,0.0,0.0,0.0,0.0,0.0,0.0,0.0,0.0,0.0,0.0,0.0,0.0,0.0,0.0,0.0,0.0,0.0,0.0,0.0,0.0,0.0,0.0,0.0,0.0,0.0,0.0,0.0,0.0,0.0,0.0,0.0,0.0,0.0,0.0,0.0,0.0,0.0,0.0,0.0,0.0,0.0,0.0,0.0,0.0,0.0,0.0,0.0,0.0,0.0,0.0,0.0,0.0,0.0,0.0,0.0,0.0,0.0,0.0,0.0,0.0,0.0,0.0,0.0,0.0,0.0,0.0,0.0,0.0,0.0,0.0,0.0,0.0,0.0,0.0,0.0,0.0,0.0,0.0,0.0,0.0,0.0,0.0,0.0,0.0,0.0,0.0,0.0,0.0,0.0,0.0,0.0,0.0,0.0,0.0,0.0,0.0,0.0,0.0,0.0,0.0,0.0,0.0,0.0,0.0,0.0,0.0,0.0,0.0,0.0,0.0,0.0,0.0,0.0,0.0,0.0,0.0,0.0,0.0,0.0,0.0,0.0,0.0,0.0,0.0,0.0,0.0,0.0,0.0,0.0,0.0,0.0,0.0,0.0,0.0,0.0,0.0,0.0,0.0,0.0,0.0,0.0,0.0,0.0,0.0,0.0,0.0,0.0,0.0,0.0,0.0,0.0,0.0,0.0,0.0,0.0,0.0,0.0,0.0,0.0,0.0,0.0,0.0,0.0,0.0,0.0,0.0,0.0,0.0,0.0,0.0,0.0,0.0,0.0,0.0,0.0,0.0,0.0,0.0,0.0,0.0,0.0,0.0,0.0,0.0,0.0,0.0,0.0,0.0,0.0,0.0,0.0,0.0,0.0,0.0,0.0,0.0,0.0,0.0,0.0,0.0,0.0,0.0,0.0,0.0,0.0,0.0,0.0,0.0,0.0,0.0,0.0,0.0,0.0,0.0,0.0,0.0,0.0,0.0,0.0,0.0,0.0,0.0,0.0,0.0,0.0,0.0,0.0,0.0,0.0,0.0,0.0,0.0,0.0,0.0,0.0,0.0,0.0,0.0,0.0,0.0,0.0,0.0,0.0,0.0,0.0,0.0,0.0,0.0,0.0,0.0,0.0,0.0,0.0,0.0,0.0,0.0,0.0,0.0,0.0,0.0,0.0,0.0,0.0,0.0,0.0,0.0,0.0,0.0,0.0,0.0,0.0,0.0,0.0,0.0,0.0,0.0,0.0,0.0,0.0,0.0,0.0,0.0,0.0,0.0,0.0,0.0,0.0,0.0,0.0,0.0,0.0,0.0,0.0,0.0,0.0,0.0,0.0,0.0,0.0,0.0,0.0,0.0,0.0,0.0,0.0,0.0,0.0,0.0,0.0,0.0,0.0,0.0,0.0,0.0,0.0,0.0,0.0,0.0,0.0,0.0,0.0,0.0,0.0,0.0,0.0,0.0,0.0,0.0,0.0,0.0,0.0,0.0,0.0,0.0,0.0,0.0,0.0,0.0,0.0,0.0,0.0,0.0,0.0,0.0,0.0,0.0,0.0,0.0,0.0,0.0,0.0,0.0,0.0,0.0,0.0,0.0,0.0,0.0,0.0,0.0,0.0,0.0,0.0,0.0,0.0,0.0,0.0,0.0,0.0,0.0,0.0,0.0,0.0,0.0,0.0,0.0,0.0,0.0,0.0,0.0,0.0,0.0,0.0,0.0,0.0,0.0,0.0,0.0,0.0,0.0,0.0,0.0,0.0,0.0,0.0,0.0,0.0,0.0,0.0,0.0,0.0,0.0,0.0,0.0,0.0,0.0,0.0,0.0,0.0,0.0,0.0,0.0,0.0,0.0,0.0,0.0,0.0,0.0,0.0,0.0,0.0,0.0,0.0,0.0,0.0,0.0,0.0,0.0,0.0,0.0,0.0,0.0,0.0,0.0,0.0,0.0,0.0,0.0,0.0,0.0,0.0,0.0,0.0,0.0,0.0,0.0,0.0,0.0,0.0,0.0,0.0,0.0,0.0,0.0,0.0,0.0,0.0,0.0,0.0,0.0,0.0,0.0,0.0,0.0,0.0,0.0,0.0,0.0,0.0,0.0,0.0,0.0,0.0,0.0,0.0,0.0,0.0,0.0,0.0,0.0,0.0,0.0,0.0,0.0,0.0,0.0,0.0,0.0,0.0,0.0,0.0,0.0,0.0,0.0,0.0,0.0,0.0,0.0,0.0,0.0,0.0,0.0,0.0,0.0,0.0,0.0,0.0,0.0,0.0,0.0,0.0,0.0,0.0,0.0,0.0,0.0,0.0,0.0,0.0,0.0,0.0,0.0,0.0,0.0,0.0,0.0,0.0,0.0,0.0,0.0,0.0,0.0,0.0,0.0,0.0,0.0,0.0,0.0,0.0,0.0,0.0,0.0,0.0,0.0,0.0,0.0,0.9877,0.0,0.0,0.0,0.0,0.0,0.0,0.0,0.0,0.0,0.0,0.0,0.0,0.0,0.0,0.0,0.0,0.0,0.0,0.0,0.0,0.0,0.0,0.0,0.0,0.0,0.0,0.0,0.0,0.0,0.0,0.0,0.0,0.0,0.0,0.0,0.0,0.0,0.0,0.0,0.0,0.0,0.0,0.0,0.0,0.0,0.0,0.0,0.0,0.0,0.0,0.0,0.0,0.0,0.0,0.0,0.0,0.0,0.0,0.0,0.0,0.0,0.0,0.0,0.0,0.0,0.0,0.0,0.0,0.0,0.0,0.0,0.0,0.0,0.0,0.0,0.0,0.0,0.0,0.0,0.0,0.0,0.0,0.0,0.0,0.0,0.0,0.0,0.0,0.0,0.0,0.0,0.0,0.0,0.0,0.0,0.0,0.0,0.0,0.0,0.0,0.0,0.0,0.0,0.0,0.0,0.0,0.0,0.0,0.0,0.0,1.1115,1.1301,1.0896,1.0639,1.0591,0.0,0.0,0.0,0.0,0.0,0.0,0.0,0.0,0.0,0.0,0.0,0.0,0.0,0.0,0.0,0.0,0.0,0.0,0.0,0.0,0.0,0.0,0.0,0.0,0.0,0.0,0.0,0.0,0.0,0.0,0.0,0.0,0.0,0.0,0.0,0.0,0.0,0.0,0.0,0.0,0.0,0.0,0.0,0.0,0.0,0.0,0.0,0.0,0.0,0.0,0.0,0.0,0.0,0.0,0.0,0.0,0.0,0.0,0.0,0.0,0.0,0.0,0.0,0.0,0.0,0.0,0.0,0.0,0.0,0.0,0.0,0.0,0.0,0.0,0.0,0.0,0.0,0.0,0.0,0.0,0.0,0.0,0.0,0.0,0.0,0.0,0.0,0.0,0.0,0.0,0.0,0.0,0.0,0.0,0.0,0.0,0.0,0.0,0.0,0.0,0.0,0.0,0.0,0.0,0.0,0.0,0.0,0.0,0.0,0.0,0.0,0.0,1.1818,1.1457,1.0977,0.0,0.0,0.0,0.0,0.0,0.0,0.0,0.0,0.0,0.0,0.0,0.0,0.0,0.0,0.0,0.0,0.0,0.0,0.0,0.0,0.0,0.0,0.0,0.0,0.0,0.0,0.0,0.0,0.0,0.0,0.0,0.0,0.0,0.0,0.0,0.0,0.0,0.0,0.0,0.0,0.0,0.0,0.0,0.0,0.0,0.0,0.0,0.0,0.0,0.0,0.0,0.0,0.0,0.0,0.0,0.0,0.0,0.0,0.0,0.0,0.0,0.0,0.0,0.0,0.0,0.0,0.0,0.0,0.0,0.0,0.0,0.0,0.0,0.0,0.0,0.0,0.0,0.0,0.0,0.0,0.0,0.0,0.0,0.0,0.0,0.0,0.0,0.0,0.0,0.0,0.0,0.0,0.0,0.0,0.0,0.0,0.0,0.0,0.0,0.0,0.0,0.0,0.0,0.0,0.0,0.0,0.0,0.0,0.0,0.0,1.1775,1.2502,1.1763,0.0,1.0597,0.0,0.0,0.0,0.0,0.0,0.0,0.0,0.0,0.0,0.0,0.0,0.0,0.0,0.0,0.0,0.0,0.0,0.0,0.0,0.0,0.0,0.0,0.0,0.0,0.0,0.0,0.0,0.0,0.0,0.0,0.0,0.0,0.0,0.0,0.0,0.0,0.0,0.0,0.0,0.0,0.0,0.0,0.0,0.0,0.0,0.0,0.0,0.0,0.0,0.0,0.0,0.0,0.0,0.0,0.0,0.0,0.0,0.0,0.0,0.0,0.0,0.0,0.0,0.0,0.0,0.0,0.0,0.0,0.0,0.0,0.0,0.0,0.0,0.0,0.0,0.0,0.0,0.0,0.0,0.0,0.0,0.0,0.0,0.0,0.0,0.0,0.0,0.0,0.0,0.0,0.0,0.0,0.0,0.0,0.0,0.0,0.0,0.0,0.0,0.0,0.0,0.0,0.0,0.0,0.0,0.0,0.0,0.0,0.0,0.0,1.2188,1.2699,1.2029,1.1501,0.0,0.0,0.0,0.0,0.0,0.0,0.0,0.0,0.0,0.0,0.0,0.0,0.0,0.0,0.0,0.0,0.0,0.0,0.0,0.0,0.0,0.0,0.0,0.0,0.0,0.0,0.0,0.0,0.0,0.0,0.0,0.0,0.0,0.0,0.0,0.0,0.0,0.0,0.0,0.0,0.0,0.0,0.0,0.0,0.0,0.0,0.0,0.0,0.0,0.0,0.0,0.0,0.0,0.0,0.0,0.0,0.0,0.0,0.0,0.0,0.0,0.0,0.0,0.0,0.0,0.0,0.0,0.0,0.0,0.0,0.0,0.0,0.0,0.0,0.0,0.0,0.0,0.0,0.0,0.0,0.0,0.0,0.0,0.0,0.0,0.0,0.0,0.0,0.0,0.0,0.0,0.0,0.0,0.0,0.0,0.0,0.0,0.0,0.0,0.0,0.0,0.0,0.0,0.0,0.0,0.0,0.0,0.0,0.0,0.0,1.2163,1.248,1.2874,1.2467,1.2085,1.1706,0.0,0.0,0.0,0.0,0.0,0.0,0.0,0.0,0.0,0.0,0.0,0.0,0.0,0.0,0.0,0.0,0.0,0.0,0.0,0.0,0.0,0.0,0.0,0.0,0.0,0.0,0.0,0.0,0.0,0.0,0.0,0.0,0.0,0.0,0.0,0.0,0.0,0.0,0.0,0.0,0.0,0.0,0.0,0.0,0.0,0.0,0.0,0.0,0.0,0.0,0.0,0.0,0.0,0.0,0.0,0.0,0.0,0.0,0.0,0.0,0.0,0.0,0.0,0.0,0.0,0.0,0.0,0.0,0.0,0.0,0.0,0.0,0.0,0.0,0.0,0.0,0.0,0.0,0.0,0.0,0.0,0.0,0.0,0.0,0.0,0.0,0.0,0.0,0.0,0.0,0.0,0.0,0.0,0.0,0.0,0.0,0.0,0.0,0.0,0.0,0.0,0.0,0.0,0.0,0.0,0.0,0.0,0.0,1.2331,1.2329,1.2589,1.3137,1.3094,1.2627,0.0,0.0,0.0,0.0,0.0,0.0,0.0,0.0,0.0,0.0,0.0,0.0,0.0,0.0,0.0,0.0,0.0,0.0,0.0,0.0,0.0,0.0,0.0,0.0,0.0,0.0,0.0,0.0,0.0,0.0,0.0,0.0,0.0,0.0,0.0,0.0,0.0,0.0,0.0,0.0,0.0,0.0,0.0,0.0,0.0,0.0,0.0,0.0,0.0,0.0,0.0,0.0,0.0,0.0,0.0,0.0,0.0,0.0,0.0,0.0,0.0,0.0,0.0,0.0,0.0,0.0,0.0,0.0,0.0,0.0,0.0,0.0,0.0,0.0,0.0,0.0,0.0,0.0,0.0,0.0,0.0,0.0,0.0,0.0,0.0,0.0,0.0,0.0,0.0,0.0,0.0,0.0,0.0,0.0,0.0,0.0,0.0,0.0,0.0,0.0,0.0,0.0,0.0,0.0,0.0,0.0,0.0,0.0,0.0,1.2383,1.2869,1.3196,1.3305,1.2973,1.2584,0.0,0.0,0.0,0.0,0.0,0.0,0.0,0.0,0.0,0.0,0.0,0.0,0.0,0.0,0.0,0.0,0.0,0.0,0.0,0.0,0.0,0.0,0.0,0.0,0.0,0.0,0.0,0.0,0.0,0.0,0.0,0.0,0.0,0.0,0.0,0.0,0.0,0.0,0.0,0.0,0.0,0.0,0.0,0.0,0.0,0.0,0.0,0.0,0.0,0.0,0.0,0.0,0.0,0.0,0.0,0.0,0.0,0.0,0.0,0.0,0.0,0.0,0.0,0.0,0.0,0.0,0.0,0.0,0.0,0.0,0.0,0.0,0.0,0.0,0.0,0.0,0.0,0.0,0.0,0.0,0.0,0.0,0.0,0.0,0.0,0.0,0.0,0.0,0.0,0.0,0.0,0.0,0.0,0.0,0.0,0.0,0.0,0.0,0.0,0.0,0.0,0.0,0.0,0.0,0.0,0.0,0.0,0.0,0.0,1.2559,0.0,1.3549,1.3386,1.2924,1.2559,0.0,0.0,0.0,0.0,0.0,0.0,0.0,0.0,0.0,0.0,0.0,0.0,0.0,0.0,0.0,0.0,0.0,0.0,0.0,0.0,0.0,0.0,0.0,0.0,0.0,0.0,0.0,0.0,0.0,0.0,0.0,0.0,0.0,0.0,0.0,0.0,0.0,0.0,0.0,0.0,0.0,0.0,0.0,0.0,0.0,0.0,0.0,0.0,0.0,0.0,0.0,0.0,0.0,0.0,0.0,0.0,0.0,0.0,0.0,0.0,0.0,0.0,0.0,0.0,0.0,0.0,0.0,0.0,0.0,0.0,0.0,0.0,0.0,0.0,0.0,0.0,0.0,0.0,0.0,0.0,0.0,0.0,0.0,0.0,0.0,0.0,0.0,0.0,0.0,0.0,0.0,0.0,0.0,0.0,0.0,0.0,0.0,0.0,0.0,0.0,0.0,0.0,0.0,0.0,0.0,0.0,0.0,0.0,1.2257,1.2885,1.336,1.3549,1.3418,1.3033,1.2596,0.0,0.0,0.0,0.0,0.0,0.0,0.0,0.0,0.0,0.0,0.0,0.0,0.0,0.0,0.0,0.0,0.0,0.0,0.0,0.0,0.0,0.0,0.0,0.0,0.0,0.0,0.0,0.0,0.0,0.0,0.0,0.0,0.0,0.0,0.0,0.0,0.0,0.0,0.0,0.0,0.0,0.0,0.0,0.0,0.0,0.0,0.0,0.0,0.0,0.0,0.0,0.0,0.0,0.0,0.0,0.0,0.0,0.0,0.0,0.0,0.0,0.0,0.0,0.0,0.0,0.0,0.0,0.0,0.0,0.0,0.0,0.0,0.0,0.0,0.0,0.0,0.0,0.0,0.0,0.0,0.0,0.0,0.0,0.0,0.0,0.0,0.0,0.0,0.0,0.0,0.0,0.0,0.0,0.0,0.0,0.0,0.0,0.0,0.0,0.0,0.0,0.0,0.0,0.0,0.0,0.0,0.0,0.0,0.0,1.3393,1.3526,1.3729,1.4002,1.3508,1.3269,0.0,0.0,0.0,0.0,0.0,0.0,0.0,0.0,0.0,0.0,0.0,0.0,0.0,0.0,0.0,0.0,0.0,0.0,0.0,0.0,0.0,0.0,0.0,0.0,0.0,0.0,0.0,0.0,0.0,0.0,0.0,0.0,0.0,0.0,0.0,0.0,0.0,0.0,0.0,0.0,0.0,0.0,0.0,0.0,0.0,0.0,0.0,0.0,0.0,0.0,0.0,0.0,0.0,0.0,0.0,0.0,0.0,0.0,0.0,0.0,0.0,0.0,0.0,0.0,0.0,0.0,0.0,0.0,0.0,0.0,0.0,0.0,0.0,0.0,0.0,0.0,0.0,0.0,0.0,0.0,0.0,0.0,0.0,0.0,0.0,0.0,0.0,0.0,0.0,0.0,0.0,0.0,0.0,0.0,0.0,0.0,0.0,0.0,0.0,0.0,0.0,0.0,0.0,0.0,0.0,0.0,0.0,0.0,0.0,1.4177,1.4134,1.4333,1.4813,1.4129,1.3793,1.3827,0.0,0.0,0.0,0.0,0.0,0.0,0.0,0.0,0.0,0.0,0.0,0.0,0.0,0.0,0.0,0.0,0.0,0.0,0.0,0.0,0.0,0.0,0.0,0.0,0.0,0.0,0.0,0.0,0.0,0.0,0.0,0.0,0.0,0.0,0.0,0.0,0.0,0.0,0.0,0.0,0.0,0.0,0.0,0.0,0.0,0.0,0.0,0.0,0.0,0.0,0.0,0.0,0.0,0.0,0.0,0.0,0.0,0.0,0.0,0.0,0.0,0.0,0.0,0.0,0.0,0.0,0.0,0.0,0.0,0.0,0.0,0.0,0.0,0.0,0.0,0.0,0.0,0.0,0.0,0.0,0.0,0.0,0.0,0.0,0.0,0.0,0.0,0.0,0.0,0.0,0.0,0.0,0.0,0.0,0.0,0.0,0.0,0.0,0.0,0.0,0.0,0.0,0.0,0.0,0.0,0.0,0.0,0.0,1.5247,1.5212,1.5374,1.5739,1.4916,1.4272,0.0,0.0,0.0,0.0,0.0,0.0,0.0,0.0,0.0,0.0,0.0,0.0,0.0,0.0,0.0,0.0,0.0,0.0,0.0,0.0,0.0,0.0,0.0,0.0,0.0,0.0,0.0,0.0,0.0,0.0,0.0,0.0,0.0,0.0,0.0,0.0,0.0,0.0,0.0,0.0,0.0,0.0,0.0,0.0,0.0,0.0,0.0,0.0,0.0,0.0,0.0,0.0,0.0,0.0,0.0,0.0,0.0,0.0,0.0,0.0,0.0,0.0,0.0,0.0,0.0,0.0,0.0,0.0,0.0,0.0,0.0,0.0,0.0,0.0,0.0,0.0,0.0,0.0,0.0,0.0,0.0,0.0,0.0,0.0,0.0,0.0,0.0,0.0,0.0,0.0,0.0,0.0,0.0,0.0,0.0,0.0,0.0,0.0,0.0,0.0,0.0,0.0,0.0,0.0,0.0,0.0,0.0,0.0,0.0,1.6969,1.7205,1.7058,1.6531,1.5767,1.5344,0.0,0.0,0.0,0.0,0.0,0.0,0.0,0.0,0.0,0.0,0.0,0.0,0.0,0.0,0.0,0.0,0.0,0.0,0.0,0.0,0.0,0.0,0.0,0.0,0.0,0.0,0.0,0.0,0.0,0.0,0.0,0.0,0.0,0.0,0.0,0.0,0.0,0.0,0.0,0.0,0.0,0.0,0.0,0.0,0.0,0.0,0.0,0.0,0.0,0.0,0.0,0.0,0.0,0.0,0.0,0.0,0.0,0.0,0.0,0.0,0.0,0.0,0.0,0.0,0.0,0.0,0.0,0.0,0.0,0.0,0.0,0.0,0.0,0.0,0.0,0.0,0.0,0.0,0.0,0.0,0.0,0.0,0.0,0.0,0.0,0.0,0.0,0.0,0.0,0.0,0.0,0.0,0.0,0.0,0.0,0.0,0.0,0.0,0.0,0.0,0.0,0.0,0.0,0.0,0.0,0.0,0.0,0.0,1.6998,1.7721,1.8437,1.8466,1.7739,1.707,1.6477,0.0,0.0,0.0,0.0,0.0,0.0,0.0,0.0,0.0,0.0,0.0,0.0,0.0,0.0,0.0,0.0,0.0,0.0,0.0,0.0,0.0,0.0,0.0,0.0,0.0,0.0,0.0,0.0,0.0,0.0,0.0,0.0,0.0,0.0,0.0,0.0,0.0,0.0,0.0,0.0,0.0,0.0,0.0,0.0,0.0,0.0,0.0,0.0,0.0,0.0,0.0,0.0,0.0,0.0,0.0,0.0,0.0,0.0,0.0,0.0,0.0,0.0,0.0,0.0,0.0,0.0,0.0,0.0,0.0,0.0,0.0,0.0,0.0,0.0,0.0,0.0,0.0,0.0,0.0,0.0,0.0,0.0,0.0,0.0,0.0,0.0,0.0,0.0,0.0,0.0,0.0,0.0,0.0,0.0,0.0,0.0,0.0,0.0,0.0,0.0,0.0,0.0,0.0,0.0,0.0,0.0,0.0,0.0,1.8354,1.7994,1.9221,1.9623,1.9127,1.8402,1.7416,0.0,0.0,0.0,0.0,0.0,0.0,0.0,0.0,0.0,0.0,0.0,0.0,0.0,0.0,0.0,0.0,0.0,0.0,0.0,0.0,0.0,0.0,0.0,0.0,0.0,0.0,0.0,0.0,0.0,0.0,0.0,0.0,0.0,0.0,0.0,0.0,0.0,0.0,0.0,0.0,0.0,0.0,0.0,0.0,0.0,0.0,0.0,0.0,0.0,0.0,0.0,0.0,0.0,0.0,0.0,0.0,0.0,0.0,0.0,0.0,0.0,0.0,0.0,0.0,0.0,0.0,0.0,0.0,0.0,0.0,0.0,0.0,0.0,0.0,0.0,0.0,0.0,0.0,0.0,0.0,0.0,0.0,0.0,0.0,0.0,0.0,0.0,0.0,0.0,0.0,0.0,0.0,0.0,0.0,0.0,0.0,0.0,0.0,0.0,0.0,0.0,0.0,0.0,0.0,0.0,0.0,0.0,0.0,1.8306,1.9134,1.9951,2.0216,1.9939,1.8253,1.7133,0.0,0.0,0.0,0.0,0.0,0.0,0.0,0.0,0.0,0.0,0.0,0.0,0.0,0.0,0.0,0.0,0.0,0.0,0.0,0.0,0.0,0.0,0.0,0.0,0.0,0.0,0.0,0.0,0.0,0.0,0.0,0.0,0.0,0.0,0.0,0.0,0.0,0.0,0.0,0.0,0.0,0.0,0.0,0.0,0.0,0.0,0.0,0.0,1.29,0.0,0.0,0.0,0.0,0.0,0.0,0.0,0.0,0.0,0.0,0.0,0.0,0.0,0.0,0.0,0.0,0.0,0.0,0.0,0.0,0.0,0.0,0.0,0.0,0.0,0.0,0.0,0.0,0.0,0.0,0.0,0.0,0.0,0.0,0.0,0.0,0.0,0.0,0.0,0.0,0.0,0.0,0.0,0.0,0.0,0.0,0.0,0.0,0.0,0.0,0.0,0.0,0.0,0.0,0.0,0.0,0.0,0.0,0.0,1.8635,1.9489,2.0187,2.0329,1.9889,1.8036,1.7115,0.0,0.0,0.0,0.0,0.0,0.0,0.0,0.0,0.0,0.0,0.0,0.0,0.0,0.0,0.0,0.0,0.0,0.0,0.0,0.0,0.0,0.0,0.0,0.0,0.0,0.0,0.0,0.0,0.0,0.0,0.0,0.0,0.0,0.0,0.0,0.0,0.0,0.0,0.0,0.0,0.0,0.0,0.0,0.0,0.0,0.0,0.0,0.0,0.0,0.0,0.0,0.0,0.0,0.0,0.0,0.0,0.0,0.0,0.0,0.0,0.0,0.0,0.0,0.0,0.0,0.0,0.0,0.0,0.0,0.0,0.0,0.0,0.0,0.0,0.0,0.0,0.0,0.0,0.0,0.0,0.0,0.0,0.0,0.0,0.0,0.0,0.0,0.0,0.0,0.0,0.0,0.0,0.0,0.0,0.0,0.0,0.0,0.0,0.0,0.0,0.0,0.0,0.0,0.0,0.0,0.0,0.0,1.8045,1.9063,1.9597,2.0279,2.0391,1.9845,1.81,1.734,1.7695,0.0,0.0,0.0,0.0,0.0,0.0,0.0,0.0,0.0,0.0,0.0,0.0,0.0,0.0,0.0,0.0,0.0,0.0,0.0,0.0,0.0,0.0,0.0,0.0,0.0,0.0,0.0,0.0,0.0,0.0,0.0,0.0,0.0,0.0,0.0,0.0,0.0,0.0,1.2839,1.3262,0.0,0.0,0.0,0.0,0.0,0.0,0.0,0.0,1.2897,0.0,0.0,0.0,0.0,0.0,0.0,0.0,0.0,0.0,0.0,0.0,0.0,0.0,0.0,0.0,0.0,0.0,0.0,0.0,0.0,0.0,0.0,0.0,0.0,0.0,0.0,0.0,0.0,0.0,0.0,0.0,0.0,0.0,0.0,0.0,0.0,0.0,0.0,0.0,0.0,0.0,0.0,0.0,0.0,0.0,0.0,0.0,0.0,0.0,0.0,0.0,0.0,0.0,0.0,0.0,0.0,1.7461,1.8352,1.9189,1.9969,2.0552,2.0877,2.0876,1.8858,1.7927,1.8228,0.0,0.0,0.0,0.0,0.0,0.0,0.0,0.0,0.0,0.0,0.0,0.0,0.0,0.0,0.0,0.0,0.0,0.0,0.0,0.0,0.0,0.0,0.0,0.0,0.0,0.0,0.0,0.0,0.0,0.0,0.0,0.0,0.0,0.0,0.0,0.0,0.0,0.0,0.0,1.3469,1.3637,0.0,0.0,0.0,0.0,0.0,0.0,0.0,0.0,1.2854,0.0,0.0,0.0,0.0,0.0,0.0,0.0,0.0,0.0,0.0,0.0,0.0,0.0,0.0,0.0,0.0,0.0,0.0,0.0,0.0,0.0,0.0,0.0,0.0,0.0,0.0,0.0,0.0,0.0,0.0,0.0,0.0,0.0,0.0,0.0,0.0,0.0,0.0,0.0,0.0,0.0,0.0,0.0,0.0,0.0,0.0,0.0,0.0,0.0,0.0,0.0,0.0,0.0,0.0,0.0,1.7688,1.8676,1.9422,1.9929,2.0573,2.0838,2.0722,1.9087,1.8342,0.0,0.0,0.0,0.0,0.0,0.0,0.0,0.0,0.0,0.0,0.0,0.0,0.0,0.0,0.0,0.0,0.0,0.0,0.0,0.0,0.0,0.0,0.0,0.0,0.0,0.0,0.0,0.0,0.0,0.0,0.0,0.0,0.0,0.0,0.0,0.0,0.0,0.0,0.0,0.0,1.336,1.3479,1.376,0.0,0.0,0.0,0.0,0.0,0.0,1.3449,1.35,0.0,0.0,0.0,0.0,0.0,0.0,0.0,0.0,0.0,0.0,0.0,0.0,0.0,0.0,0.0,0.0,0.0,0.0,0.0,0.0,0.0,0.0,0.0,0.0,0.0,0.0,0.0,0.0,0.0,0.0,0.0,0.0,0.0,0.0,0.0,0.0,0.0,0.0,0.0,0.0,0.0,0.0,0.0,0.0,0.0,0.0,0.0,0.0,0.0,0.0,0.0,0.0,0.0,0.0,0.0,1.76,1.8649,1.9334,1.9642,2.0172,2.0314,2.0021,1.8789,1.828,0.0,0.0,0.0,0.0,0.0,0.0,0.0,0.0,0.0,0.0,0.0,0.0,0.0,0.0,0.0,0.0,0.0,0.0,0.0,0.0,0.0,0.0,0.0,0.0,0.0,0.0,0.0,0.0,0.0,0.0,0.0,0.0,0.0,0.0,0.0,0.0,0.0,0.0,0.0,0.0,0.0,1.3414,1.3596,1.3378,0.0,0.0,0.0,0.0,1.3752,1.3931,0.0,0.0,0.0,0.0,0.0,0.0,0.0,0.0,0.0,0.0,0.0,0.0,0.0,0.0,0.0,0.0,0.0,0.0,0.0,0.0,0.0,0.0,0.0,0.0,0.0,0.0,0.0,0.0,0.0,0.0,0.0,0.0,0.0,0.0,0.0,0.0,0.0,0.0,0.0,0.0,0.0,0.0,0.0,0.0,0.0,0.0,0.0,0.0,0.0,0.0,0.0,0.0,0.0,0.0,0.0,0.0,1.7242,1.785,1.8442,1.8966,1.8976,1.8983,1.904,1.7651,1.7243,0.0,0.0,0.0,0.0,0.0,0.0,0.0,0.0,0.0,0.0,0.0,0.0,0.0,0.0,0.0,0.0,0.0,0.0,0.0,0.0,0.0,0.0,0.0,0.0,0.0,0.0,0.0,0.0,0.0,0.0,0.0,0.0,0.0,0.0,0.0,0.0,0.0,0.0,0.0,0.0,0.0,1.3609,1.3991,1.3542,1.3226,0.0,0.0,1.3642,1.4289,1.4132,0.0,0.0,0.0,0.0,0.0,0.0,0.0,0.0,0.0,0.0,0.0,0.0,0.0,0.0,0.0,0.0,0.0,0.0,0.0,0.0,0.0,0.0,0.0,0.0,0.0,0.0,0.0,0.0,0.0,0.0,0.0,0.0,0.0,0.0,0.0,0.0,0.0,0.0,0.0,0.0,0.0,0.0,0.0,0.0,0.0,0.0,0.0,0.0,0.0,0.0,0.0,0.0,0.0,0.0,0.0,1.7736,1.7957,1.8919,1.9314,1.9089,1.9258,1.9187,1.8798,1.7734,1.7514,0.0,0.0,0.0,0.0,0.0,0.0,0.0,0.0,0.0,0.0,0.0,0.0,0.0,0.0,0.0,0.0,0.0,0.0,0.0,0.0,0.0,0.0,0.0,0.0,0.0,0.0,0.0,0.0,0.0,0.0,0.0,0.0,0.0,0.0,0.0,0.0,0.0,0.0,0.0,0.0,0.0,0.0,1.3467,1.3545,0.0,0.0,0.0,1.4314,1.4323,0.0,0.0,0.0,0.0,0.0,0.0,0.0,0.0,0.0,0.0,0.0,0.0,0.0,0.0,0.0,0.0,0.0,0.0,0.0,0.0,0.0,0.0,0.0,0.0,0.0,0.0,0.0,0.0,0.0,0.0,0.0,0.0,0.0,0.0,0.0,0.0,0.0,0.0,0.0,0.0,0.0,0.0,0.0,0.0,0.0,0.0,0.0,0.0,0.0,0.0,0.0,0.0,0.0,0.0,0.0,0.0,0.0,1.8146,1.9178,1.9354,1.863,1.8942,1.875,1.7977,1.7441,0.0,0.0,0.0,0.0,0.0,0.0,0.0,0.0,0.0,0.0,0.0,0.0,0.0,0.0,0.0,0.0,0.0,0.0,0.0,0.0,0.0,0.0,0.0,0.0,0.0,0.0,0.0,1.3154,0.0,0.0,0.0,0.0,0.0,0.0,0.0,0.0,0.0,0.0,0.0,0.0,0.0,0.0,1.3404,1.3247,1.3386,1.3543,0.0,0.0,1.4264,1.3875,1.3802,1.373,0.0,0.0,0.0,0.0,0.0,0.0,0.0,0.0,0.0,0.0,0.0,0.0,0.0,0.0,0.0,0.0,0.0,0.0,0.0,0.0,0.0,0.0,0.0,0.0,0.0,0.0,0.0,0.0,0.0,0.0,0.0,0.0,0.0,0.0,0.0,0.0,0.0,0.0,0.0,0.0,0.0,0.0,0.0,0.0,0.0,0.0,0.0,0.0,0.0,0.0,0.0,0.0,0.0,0.0,1.7356,1.7135,1.7442,1.7412,1.6923,1.6957,1.6641,1.5918,1.6164,1.6671,0.0,0.0,0.0,0.0,0.0,0.0,0.0,0.0,0.0,0.0,0.0,0.0,0.0,0.0,0.0,0.0,0.0,0.0,0.0,0.0,0.0,0.0,0.0,0.0,0.0,0.0,0.0,0.0,0.0,0.0,0.0,0.0,0.0,0.0,0.0,0.0,0.0,0.0,0.0,0.0,0.0,1.3857,1.3822,1.3067,1.2557,0.0,1.2734,1.2742,1.2723,1.2723,1.2808,1.309,0.0,0.0,0.0,0.0,0.0,0.0,0.0,0.0,0.0,0.0,0.0,0.0,0.0,0.0,0.0,0.0,0.0,0.0,0.0,0.0,0.0,0.0,0.0,0.0,0.0,0.0,0.0,0.0,0.0,0.0,0.0,0.0,0.0,0.0,0.0,0.0,0.0,0.0,0.0,0.0,0.0,0.0,0.0,0.0,0.0,0.0,0.0,0.0,0.0,0.0,0.0,0.0,0.0,1.7713,1.7623,1.8074,1.8037,1.7482,1.7776,1.7462,1.6461,1.635,1.6417,0.0,0.0,0.0,0.0,0.0,0.0,0.0,0.0,0.0,0.0,0.0,0.0,0.0,0.0,0.0,0.0,0.0,0.0,0.0,0.0,0.0,0.0,0.0,0.0,0.0,0.0,0.0,0.0,1.3776,1.3928,1.3891,0.0,0.0,0.0,0.0,0.0,0.0,0.0,0.0,0.0,0.0,1.2636,1.2611,1.2513,0.0,0.0,1.2501,1.2519,1.2273,1.2064,1.1964,1.2091,1.2013,0.0,0.0,0.0,0.0,0.0,0.0,0.0,0.0,0.0,0.0,0.0,0.0,0.0,0.0,0.0,0.0,0.0,0.0,0.0,0.0,0.0,0.0,0.0,0.0,0.0,0.0,0.0,0.0,0.0,0.0,0.0,0.0,0.0,0.0,0.0,0.0,0.0,0.0,0.0,0.0,0.0,0.0,0.0,0.0,0.0,0.0,0.0,0.0,0.0,0.0,0.0,0.0,1.7839,1.7853,1.823,1.8129,1.7568,1.8024,1.7803,1.6814,1.6605,1.6495,0.0,0.0,0.0,0.0,0.0,0.0,0.0,0.0,0.0,0.0,0.0,0.0,0.0,0.0,0.0,0.0,0.0,0.0,0.0,0.0,0.0,0.0,0.0,0.0,0.0,0.0,0.0,0.0,1.3948,1.3972,1.3869,0.0,0.0,0.0,0.0,0.0,0.0,0.0,0.0,0.0,0.0,1.1919,1.1867,1.1885,1.1822,1.1642,1.1744,1.1684,1.1263,1.1118,1.1022,1.107,0.0,0.0,0.0,0.0,0.0,0.0,0.0,0.0,0.0,0.0,0.0,0.0,0.0,0.0,0.0,0.0,0.0,0.0,0.0,0.0,0.0,0.0,0.0,0.0,0.0,0.0,0.0,1.9296,0.0,0.0,1.8472,0.0,0.0,0.0,0.0,0.0,0.0,0.0,0.0,0.0,0.0,0.0,0.0,0.0,0.0,0.0,0.0,0.0,0.0,0.0,0.0,0.0,0.0,1.7471,1.7512,1.7437,1.7167,1.6778,1.7189,1.7123,1.647,1.6602,1.6837,1.7133,0.0,0.0,0.0,0.0,0.0,0.0,0.0,0.0,0.0,0.0,0.0,0.0,0.0,0.0,0.0,0.0,0.0,0.0,0.0,0.0,0.0,0.0,0.0,0.0,0.0,0.0,1.4125,1.4203,1.4184,0.0,0.0,0.0,0.0,0.0,0.0,0.0,0.0,0.0,1.2552,1.2206,1.1974,1.196,1.1134,1.0529,1.0373,1.0204,0.9912,0.9491,0.9715,0.9977,0.0,0.0,0.0,0.0,0.0,0.0,0.0,0.0,0.0,0.0,0.0,0.0,0.0,0.0,0.0,0.0,0.0,0.0,0.0,0.0,0.0,0.0,0.0,0.0,0.0,0.0,0.0,1.7842,1.7524,0.0,0.0,0.0,0.0,0.0,0.0,0.0,0.0,0.0,0.0,0.0,1.834,1.8601,0.0,0.0,0.0,0.0,0.0,0.0,0.0,0.0,0.0,0.0,0.0,0.0,1.761,1.75,1.7327,1.7175,1.7056,1.7576,1.7576,1.6959,1.6989,1.6891,1.6554,0.0,0.0,0.0,0.0,0.0,0.0,0.0,0.0,0.0,0.0,0.0,0.0,0.0,0.0,0.0,0.0,0.0,0.0,0.0,0.0,0.0,0.0,0.0,0.0,0.0,1.4607,0.0,0.0,0.0,0.0,0.0,0.0,0.0,0.0,0.0,0.0,1.2276,1.1874,1.1153,1.066,1.0374,1.0346,1.0102,0.9916,0.0,0.0,0.0,0.0,0.0,0.0,0.0,0.0,0.0,0.0,0.0,0.0,0.0,0.0,0.9497,0.9482,0.9468,0.9549,0.977,0.0,0.0,0.0,0.0,0.0,0.0,0.0,0.0,0.0,0.0,0.0,0.0,0.0,0.0,1.8013,1.7701,1.7962,0.0,0.0,0.0,0.0,0.0,0.0,0.0,0.0,1.8562,1.8865,1.9514,1.9655,1.964,1.946,1.9492,1.8953,0.0,0.0,0.0,0.0,0.0,0.0,0.0,0.0,1.7335,1.7314,1.7235,1.7212,1.7263,1.7687,1.7725,1.7263,1.7144,1.6892,1.6447,1.6832,1.6698,0.0,0.0,0.0,0.0,0.0,0.0,0.0,0.0,0.0,0.0,0.0,0.0,0.0,0.0,0.0,0.0,0.0,0.0,0.0,0.0,0.0,0.0,0.0,1.3703,0.0,0.0,0.0,0.0,0.0,0.0,0.0,0.0,0.0,1.1267,1.1167,1.0757,0.9905,0.9649,0.9527,0.9445,0.0,0.0,0.0,0.0,0.0,0.0,0.0,0.9246,0.9164,0.9109,0.8988,0.8796,0.8708,0.8583,0.8386,0.0,0.0,0.8885,0.9008,0.9118,0.9275,0.9269,0.9254,0.9344,0.9449,0.9572,0.0,0.0,0.0,0.0,1.9061,0.0,0.0,0.0,1.9785,1.9768,0.0,1.9726,0.0,0.0,0.0,0.0,1.7704,1.8031,0.0,0.0,1.9908,2.0544,2.109,2.0666,2.024,1.9793,1.9808,1.9087,1.7762,1.7725,0.0,0.0,0.0,0.0,0.0,0.0,1.6698,1.7047,1.7167,1.724,1.7326,1.7565,1.7574,1.7311,1.7056,1.6917,1.6888,1.6506,1.6236,1.6221,1.5831,0.0,0.0,0.0,0.0,0.0,0.0,0.0,0.0,0.0,0.0,0.0,0.0,0.0,0.0,0.0,0.0,0.0,0.0,0.0,0.0,1.258,0.0,0.0,0.0,0.0,0.0,0.0,0.0,0.0,0.0,1.0693,1.0167,1.021,0.9912,0.8947,0.0,0.0,0.0,0.0,0.9248,0.8669,0.8907,0.8952,0.8266,0.8719,0.9062,0.8884,0.0,0.0,0.7571,0.7447,0.7463,0.7429,0.7503,0.773,0.8732,0.899,0.913,0.9217,0.9446,0.9773,0.9853,0.999,1.0215,2.0012,0.0,0.0,0.0,0.0,1.93,1.9651,2.0105,2.0447,2.0131,1.9477,1.9904,0.0,0.0,0.0,0.0,0.0,0.0,1.9217,2.0116,2.0184,2.0428,2.0823,2.0503,1.995,1.9237,1.8924,1.8349,1.7564,1.7279,1.7419,1.7883,0.0,0.0,0.0,0.0,1.7529,1.7885,1.7483,1.7402,1.7653,1.7504,1.7387,1.7302,1.7214,1.7171,1.7194,1.7064,1.6949,1.6929,1.6779,0.0,0.0,0.0,0.0,0.0,0.0,0.0,0.0,0.0,0.0,0.0,0.0,0.0,0.0,0.0,0.0,0.0,0.0,0.0,1.3497,1.2472,1.1952,0.0,0.0,0.0,0.0,0.0,0.0,0.0,0.0,0.0,0.9419,0.9684,0.9656,0.0,0.0,0.8769,0.8933,0.8838,0.8652,0.8289,0.8495,0.0,0.7872,0.7988,0.8105,0.8059,0.8079,0.8008,0.7802,0.7846,0.7932,0.8001,0.8023,0.8149,0.8413,0.8315,0.8168,0.8268,0.8805,0.9318,0.9468,0.9959,1.0471,2.0633,1.9621,2.0032,1.9985,1.9686,1.974,2.019,2.0879,2.0976,2.0702,2.0178,2.0469,2.0101,1.9273,1.9081,0.0,0.0,0.0,1.9642,2.0562,2.006,2.0082,2.0474,2.016,1.9603,1.8929,1.8817,1.8274,1.7285,1.7311,1.724,1.7121,0.0,1.7432,1.7867,1.7555,1.756,1.787,1.7551,1.7557,1.7999,1.7799,1.7697,1.7682,1.7697,1.7682,1.7682,1.7697,1.768,1.7631,1.7521,1.7112,0.0,0.0,0.0,0.0,0.0,0.0,0.0,0.0,0.0,0.0,0.0,1.4005,1.3985,0.0,0.0,0.0,1.3263,1.289,1.2134,1.1322,0.0,0.0,0.0,0.0,0.0,0.0,0.0,0.9469,0.9246,0.9169,0.9184,0.9231,0.9246,0.9147,0.8859,0.8742,0.8902,0.0,0.8328,0.8107,0.8142,0.796,0.7321,0.7346,0.7391,0.7106,0.7127,0.7095,0.6851,0.6905,0.6978,0.7065,0.7125,0.7124,0.719,0.7003,0.7149,0.7884,0.8562,0.8981,0.9016,0.9489,0.996,2.093,2.0197,1.9912,2.0079,2.0515,2.0313,2.0844,2.1803,2.1366,2.1284,2.1374,2.1204,2.1081,2.1024,2.0589,0.0,2.0357,1.972,1.978,2.0513,1.9633,1.9491,1.9974,1.9513,1.9072,1.8634,1.9049,1.8504,1.7088,1.7606,1.7341,1.6248,1.6708,1.7093,1.7296,1.7034,1.7031,1.7348,1.7385,1.7697,1.8217,1.8232,1.8256,1.8217,1.8207,1.8168,1.8207,1.8182,1.8182,1.8143,1.7892,1.7572,1.7302,0.0,0.0,0.0,0.0,0.0,0.0,0.0,0.0,0.0,0.0,0.0,0.0,0.0,0.0,1.3465,1.2159,0.0,1.0194,0.9706,0.0,0.0,0.0,0.9324,0.9659,0.9433,0.9316,0.9316,0.0,0.0,0.9272,0.8834,0.867,0.9019,0.897,0.8925,0.8921,0.8454,0.8086,0.7744,0.7653,0.7308,0.6594,0.6717,0.6739,0.6223,0.6057,0.5942,0.5481,0.5363,0.5295,0.547,0.5339,0.5434,0.544,0.5674,0.6175,0.782,0.8412,0.866,0.8536,0.8756,0.9137,1.9966,1.9443,1.9171,1.9734,2.0751,2.0425,2.0777,2.1545,2.1212,2.0883,2.0573,2.0361,2.0093,1.9724,1.9466,1.9418,1.9505,1.9332,1.9256,1.9222,1.8828,1.851,1.8311,1.7963,1.7582,1.7162,1.7255,1.7198,1.7021,1.7165,1.7227,1.7187,1.7298,1.7136,1.6727,1.6644,1.7022,1.7839,1.7609,1.7527,1.7672,1.7697,1.7711,1.7672,1.7463,1.7313,1.7299,1.7125,1.7025,1.7025,1.6932,1.6733,1.6419,1.6079,0.0,0.0,0.0,0.0,0.0,0.0,0.0,0.0,0.0,1.3481,1.3892,0.0,1.2809,0.0,1.1262,1.0854,1.0976,1.0297,0.0,0.0,0.9468,0.932,0.9377,0.9333,0.9316,0.9323,0.8943,0.8692,0.8751,0.8319,0.7955,0.7917,0.748,0.7275,0.751,0.7171,0.6674,0.6332,0.6425,0.6317,0.5711,0.5738,0.5814,0.5683,0.5662,0.5677,0.5522,0.5491,0.5549,0.5582,0.5634,0.5626,0.5623,0.5728,0.5856,0.6444,0.7017,0.7531,0.7786,0.8305,0.8862,1.9114,1.8734,1.8599,1.9067,1.9915,1.9764,2.0108,2.0742,2.0539,2.0334,2.0154,1.9948,1.9716,1.9466,1.9352,1.9255,1.919,1.903,1.8777,1.8473,1.8153,1.787,1.7606,1.7476,1.726,1.7019,1.6994,1.7006,1.705,1.7148,1.7207,1.715,1.7263,1.7153,1.6823,1.6881,1.7316,1.7986,1.7819,1.7612,1.7383,1.7485,1.7485,1.7369,1.719,1.7011,1.687,1.6729,1.6626,1.6626,1.6652,1.6497,1.6202,1.5932,1.5613,0.0,0.0,0.0,0.0,0.0,0.0,0.0,0.0,0.0,0.0,0.0,1.2387,1.1831,1.1007,1.0607,1.0747,1.0219,0.9795,0.9621,0.9423,0.9328,0.9428,0.9377,0.9243,0.8932,0.8663,0.8414,0.8158,0.7632,0.7215,0.7098,0.6302,0.604,0.6745,0.6483,0.6005,0.5798,0.5815,0.5714,0.5174,0.4766,0.4537,0.4508,0.4289,0.407,0.4095,0.41,0.4117,0.4166,0.4179,0.4196,0.4211,0.4263,0.428,0.4359,0.4617,0.5373,0.6629,0.7215,0.7616,1.821,1.7953,1.7935,1.8078,1.8344,1.8512,1.9002,1.974,1.9596,1.9585,1.9715,1.9488,1.9415,1.9463,1.9439,1.9259,1.8971,1.8609,1.8277,1.7906,1.757,1.7399,1.7413,1.7413,1.7399,1.7413,1.7399,1.7277,1.7043,1.7293,1.7182,1.6795,1.696,1.712,1.7181,1.7321,1.7523,1.7851,1.7801,1.7543,1.704,1.7265,1.7265,1.6988,1.6935,1.675,1.6444,1.6379,1.6379,1.6379,1.6379,1.6272,1.6021,1.5777,1.5404,0.0,1.4458,0.0,0.0,0.0,0.0,0.0,0.0,0.0,0.0,1.2246,1.2193,1.1992,1.1089,1.0412,1.0168,0.9939,0.9709,0.9534,0.9395,0.9377,0.9532,0.94,0.9052,0.8492,0.8408,0.8133,0.7536,0.6822,0.6412,0.6246,0.5483,0.5165,0.5967,0.5799,0.5492,0.5603,0.5274,0.4772,0.4476,0.3778,0.32,0.3133,0.2793,0.2234,0.2339,0.2344,0.2279,0.2375,0.2456,0.2391,0.2305,0.2347,0.2394,0.2498,0.254,0.3257,0.5176,0.5776,0.594,1.6716,1.6625,1.6429,1.6389,1.6441,1.6686,1.7613,1.892,1.8612,1.839,1.8192,1.7995,1.7995,1.8143,1.7995,1.7877,1.781,1.7743,1.7432,1.6968,1.6873,1.685,1.685,1.685,1.6864,1.685,1.685,1.6834,1.6767,1.6818,1.6937,1.7121,1.6872,1.6924,1.716,0.0,0.0,0.0,1.6737,1.6457,1.6152,1.6205,1.6099,1.5832,1.5565,0.0,1.5003,1.4788,1.4681,1.467,1.4681,0.0,0.0,0.0,0.0,0.0,0.0,0.0,0.0,0.0,0.0,0.0,1.2383,1.2271,1.208,1.1552,1.1247,1.1253,1.1086,1.0825,1.0477,1.0293,1.0013,0.9644,0.9461,0.9393,0.9427,0.903,0.8699,0.858,0.7788,0.7108,0.6731,0.6155,0.5579,0.5167,0.4914,0.4517,0.3983,0.4317,0.4325,0.3801,0.3339,0.2886,0.2755,0.2564,0.2395,0.2381,0.2375,0.2249,0.2199,0.2207,0.2246,0.2216,0.2293,0.2256,0.2263,0.2301,0.2235,0.2379,0.2345,0.2797,0.4209,0.4542,0.4842,1.6886,1.6873,1.6734,1.6683,0.0,1.6835,1.729,1.791,1.7766,1.7705,1.7679,1.7256,1.7307,1.7679,1.7449,1.7265,1.7105,1.7279,1.7112,1.6712,1.6844,1.7013,1.7141,1.7141,1.7167,1.7141,1.7141,1.7092,1.6951,1.6768,1.6714,1.6749,1.6555,1.6537,1.6684,1.6374,1.622,1.6311,1.5885,1.555,1.5271,1.511,1.4922,1.4627,1.445,0.0,0.0,0.0,0.0,0.0,0.0,0.0,0.0,1.3633,0.0,1.3404,1.2965,1.2721,1.2695,1.246,1.2107,1.1664,1.1576,1.1523,1.1467,1.1062,1.0804,1.0821,1.0798,1.0619,1.0195,1.0083,0.9889,0.9538,0.9191,0.899,0.8974,0.8546,0.8134,0.7789,0.7133,0.6518,0.61,0.5514,0.4862,0.4276,0.4065,0.3698,0.2959,0.3297,0.3476,0.2841,0.2448,0.223,0.2188,0.1892,0.1703,0.1688,0.1406,0.1195,0.1172,0.1174,0.1174,0.1174,0.1174,0.1176,0.1145,0.1184,0.1189,0.1202,0.1207,0.1554,0.2547,0.3082,0.366,1.7365,1.7365,1.7365,1.7365,1.7365,1.7365,1.7255,1.7083,1.7103,0.0,0.0,1.6922,1.7,1.7477,1.7278,1.7015,1.6795,1.7067,1.6989,1.673,1.6977,1.7278,1.7503,1.7503,1.753,1.7583,1.7583,1.7423,1.7089,1.6755,1.646,1.6216,1.6045,1.5959,1.5916,1.5641,1.5511,1.5541,1.5113,1.4733,1.4407,1.419,1.389,1.3518,1.3491,1.3382,1.3108,1.3098,1.3098,1.3098,1.3068,1.3049,1.3049,1.3009,1.2938,1.276,1.2217,1.1942,1.1979,1.1523,1.1205,1.1128,1.1064,1.1003,1.0862,1.0841,1.0755,1.062,1.0607,1.0376,0.9902,0.9734,0.9595,0.9283,0.8811,0.8474,0.845,0.8041,0.7531,0.6972,0.6461,0.5932,0.5386,0.4701,0.412,0.356,0.3239,0.2797,0.2262,0.2461,0.2577,0.2111,0.1777,0.1765,0.1766,0.1382,0.1025,0.0963,0.0447,0.0,0.0,0.0,0.0,0.0,0.0,0.0,0.0,0.0,0.0,0.0,0.0,0.0196,0.0903,0.157,0.2352,1.6818,1.6806,1.6806,1.6806,1.6818,1.6806,1.6922,1.7086,1.6884,1.6789,1.6816,1.6736,1.6876,1.7172,1.7105,1.7092,1.7054,1.7092,1.6952,1.6699,1.6737,1.693,1.7159,1.7172,1.7287,1.7504,1.7516,1.7224,1.6725,1.6406,1.6088,1.5753,1.5255,1.4995,1.4967,1.4717,1.4441,1.4192,1.4379,1.421,1.3683,1.3598,1.3287,1.271,1.2682,1.2549,1.2284,1.2284,1.2255,1.2284,1.2103,1.2014,1.2014,1.1936,1.1828,1.1774,1.1447,1.1297,1.146,1.1198,1.1077,1.1184,1.1175,1.1159,1.1147,1.1135,1.108,1.0934,1.0883,1.0701,1.0147,0.962,0.9183,0.8766,0.8287,0.7997,0.7967,0.7454,0.6909,0.6452,0.5772,0.5024,0.4409,0.3709,0.3193,0.2829,0.2417,0.2028,0.1467,0.1323,0.1356,0.1203,0.0696,0.0388,0.0,0.0,0.0,0.0186,0.0,0.0,0.0,0.0,0.0,0.0,0.0,0.0,0.0,0.0,0.0,0.0,0.0,0.0,0.0,0.0,0.0,1.605,1.6339,1.6166,1.6293,1.6587,1.663,1.6587,1.658,1.6655,1.6867,1.7085,1.6812,1.6942,1.7275,1.7164,1.7094,1.7082,1.7082,1.7047,1.6921,1.6909,1.7066,1.7302,1.7315,1.7212,1.7018,1.6822,1.6334,1.5586,1.5124,1.4756,1.4455,1.4141,1.406,1.418,1.3888,1.3654,1.3547,1.3605,1.3431,1.2974,1.2831,1.2602,1.2287,1.2278,1.223,1.2115,1.2086,1.2086,1.2086,1.2027,1.1955,1.1955,1.1896,1.188,1.1852,1.1599,1.1465,1.1558,1.1273,1.1183,1.1354,1.1195,1.1155,1.1234,1.1068,1.0862,1.0739,1.0436,0.9996,0.9443,0.9054,0.8666,0.8249,0.7741,0.7259,0.6825,0.6317,0.5784,0.5217,0.4636,0.4085,0.3652,0.3114,0.2496,0.1943,0.138,0.0,0.0,0.0,0.0,0.049,0.0,0.0,0.0,0.0,0.0,0.0,0.0,0.0,0.0,0.0,0.0,0.0,0.0,0.0,0.0,0.0,0.0,0.0,0.0,0.0,0.0,0.0,0.0,1.5046,1.561,1.5383,1.562,1.6161,1.6233,1.6095,1.591,1.6275,1.6648,1.6908,1.6754,1.6871,1.7144,1.7116,1.6935,1.671,1.6823,1.6758,1.6598,1.6418,1.6498,1.6726,1.671,1.6424,1.6057,1.583,1.5345,1.4601,1.4046,1.3596,1.3278,1.3178,1.3247,1.3465,1.3234,1.3054,1.2976,1.2894,1.271,1.245,1.2247,1.2093,1.2043,1.2014,1.2014,1.2043,1.2014,1.2014,1.2014,1.2,1.1983,1.1946,1.1931,1.1885,1.1857,1.1713,1.1615,1.1628,1.1475,1.1411,1.1549,1.1201,1.1017,1.111,1.0613,1.031,1.0257,0.9779,0.9256,0.8763,0.8111,0.7725,0.7449,0.6776,0.6054,0.5527,0.5128,0.4685,0.4066,0.3588,0.3234,0.2922,0.2489,0.179,0.0972,0.0337,0.0,0.0,0.0,0.0,0.0,0.0,0.0,0.0,0.0,0.0,0.0,0.0,0.0,0.0,0.0,0.0,0.0,0.0,0.0,0.0,0.0,0.0,0.0,0.0,0.0,0.0,0.0,0.0,1.3725,1.4232,1.4202,1.4629,1.5165,1.5203,1.5192,1.5222,1.5566,1.5526,1.5421,1.6286,1.6471,1.6344,1.6786,1.6442,1.5481,1.5953,1.5783,1.5026,1.4377,1.4253,1.4553,1.4255,1.4162,1.438,1.4597,1.4489,1.4114,1.3777,1.3349,1.2851,1.2749,1.2727,1.2784,1.2754,1.2565,1.2294,1.229,1.2243,1.2243,1.2213,1.2072,1.1818,1.184,1.1818,1.1853,1.1848,1.184,1.1831,1.1646,1.1556,1.1577,1.1409,1.1282,1.1319,1.129,1.1326,1.1518,1.166,1.1689,1.1714,1.1125,1.0793,1.0755,0.969,0.926,0.9546,0.9243,0.8702,0.8385,0.7098,0.6276,0.6135,0.5161,0.4241,0.4258,0.4231,0.409,0.3613,0.3,0.2567,0.2183,0.1421,0.0663,0.0,0.0,0.0,0.0,0.0,0.0,0.0,0.0,0.0,0.0,0.0,0.0,0.0,0.0,0.0,0.0,0.0,0.0,0.0,0.0,0.0,0.0,0.0,0.0,0.0,0.0,0.0,0.0,0.0,0.0,1.1856,1.2397,1.2256,1.2526,1.3105,1.3725,1.3854,1.3734,1.4242,1.4301,1.4063,1.4633,1.5022,1.5234,1.5499,1.5135,1.437,1.4576,1.4506,1.4152,1.3849,1.381,1.3878,1.3779,1.3559,1.3267,1.3216,1.2925,1.2505,1.2144,1.1842,1.1601,1.1571,1.1571,1.1571,1.1571,1.1511,1.139,1.136,1.145,1.1669,1.1859,1.1919,1.1806,1.1806,1.1806,1.1806,1.1806,1.1806,1.1798,1.1733,1.1692,1.1663,1.1619,1.1549,1.1549,1.1549,1.1581,1.1684,1.1396,1.1194,1.1186,1.0399,0.9913,0.9883,0.8903,0.8324,0.833,0.8116,0.7714,0.6975,0.6092,0.542,0.4903,0.4351,0.3877,0.3447,0.352,0.3384,0.2752,0.2281,0.19,0.1501,0.0767,0.0201,0.0,0.0,0.0,0.0,0.0,0.0,0.0,-0.0181,-0.0218,0.0,0.0,0.0,-0.0225,-0.0152,-0.0038,-0.0272,-0.0117,0.0,0.0,0.0,0.0,0.0,0.0,0.0,0.0,0.0,0.0,0.0,0.0,0.0,1.0149,1.0687,1.0573,1.0846,1.139,1.2105,1.2256,1.2144,1.2646,1.2706,1.2466,1.2856,1.3126,1.3366,1.3993,1.3934,1.3276,1.3366,1.3336,1.3156,1.3006,1.2916,1.2916,1.2796,1.2526,1.2105,1.1903,1.1601,1.1186,1.0936,1.0793,1.0793,1.0793,1.0793,1.0793,1.0793,1.0793,1.0823,1.0793,1.0944,1.1156,1.1405,1.1557,1.1647,1.1677,1.1647,1.1677,1.1746,1.1806,1.1806,1.1806,1.1806,1.1806,1.1806,1.1716,1.1526,1.1436,1.1345,1.1254,1.0793,1.049,1.0338,0.9548,0.9001,0.8757,0.7964,0.7306,0.7059,0.6759,0.6215,0.5755,0.5163,0.4524,0.3833,0.3633,0.331,0.2844,0.2896,0.268,0.2062,0.1705,0.1279,0.0842,0.0,0.0,0.0,0.0,0.0,0.0,0.0,0.0,-0.0143,-0.0435,-0.0474,-0.0219,0.0,-0.0484,-0.0566,-0.0534,-0.05,-0.0704,-0.0432,-0.0157,0.0,0.0,0.0,0.0,0.0,0.0,0.0,0.0,0.0,0.0,0.0,0.0,0.8854,0.9396,0.97,1.0035,1.0399,1.0452,1.0452,1.052,1.0815,1.0755,1.0604,1.1118,1.0906,1.0361,1.2496,1.3006,1.2053,1.2376,1.2346,1.1842,1.1299,1.0967,1.0914,1.0604,1.0482,1.0604,1.0793,1.0846,1.0815,1.0785,1.0793,1.0793,1.0732,1.0762,1.0762,1.0732,1.0793,1.0725,1.0732,1.0793,1.0815,1.0823,1.1005,1.1246,1.1337,1.1337,1.1367,1.1617,1.1776,1.1806,1.1776,1.1776,1.1806,1.1776,1.1466,1.0914,1.055,1.024,1.0035,0.9883,0.97,0.9366,0.8781,0.8294,0.7903,0.6811,0.6108,0.6054,0.5222,0.4728,0.4755,0.4179,0.3544,0.3087,0.2578,0.2313,0.2278,0.2315,0.2053,0.168,0.1345,0.0876,0.0202,0.0034,0.0,0.0,0.0,0.0,0.0,0.0,0.0,-0.0433,-0.0583,-0.0584,-0.062,-0.0734,-0.1,-0.1127,-0.1103,-0.111,-0.1048,-0.0942,-0.0707,-0.0471,-0.0275,0.0,0.0,0.0,0.0,0.0,0.0,0.0,0.0,0.0,0.0,0.8208,0.8452,0.8763,0.8976,0.9098,0.9305,0.9396,0.9396,0.9518,0.9518,0.9457,0.967,0.9548,0.9275,1.0179,1.0482,1.024,1.0422,1.0513,1.049,1.0247,1.0156,1.0156,1.0035,0.9974,1.0004,1.0126,1.0156,1.0156,1.0156,1.0186,1.0156,1.0156,1.0156,1.0156,1.0149,1.0156,1.0156,1.0156,1.027,1.0459,1.0277,1.0301,1.0634,1.0876,1.0997,1.0997,1.1095,1.1156,1.1156,1.1156,1.1156,1.1126,1.0952,1.0641,1.0217,1.0065,0.9913,0.9761,0.9396,0.9031,0.869,0.7928,0.7286,0.6841,0.5961,0.5243,0.4922,0.4322,0.3791,0.3419,0.3237,0.2963,0.2508,0.2235,0.2121,0.2179,0.2189,0.2021,0.1616,0.1111,0.0506,0.0,0.0,0.0,0.0,0.0,0.0,0.0,-0.0211,-0.0428,-0.0647,-0.1052,-0.139,-0.1366,-0.1218,-0.1226,-0.1394,-0.1487,-0.1504,-0.1446,-0.1295,-0.106,-0.0982,-0.0668,0.0,0.0,0.0,-0.0196,-0.0314,-0.0353,-0.0393,0.0,-0.0314,-0.0196,0.7679,0.7675,0.8077,0.8181,0.8147,0.8445,0.8574,0.858,0.858,0.858,0.8574,0.8702,0.8671,0.861,0.8671,0.8824,0.9037,0.9122,0.93,0.9529,0.956,0.9549,0.9588,0.9625,0.9687,0.9773,0.9818,0.9866,0.9859,0.9812,0.9792,0.9792,0.9792,0.9792,0.9792,0.9792,0.9792,0.9792,0.9792,0.9927,1.0158,0.9982,0.9988,1.0196,1.044,1.0593,1.0684,1.0806,1.0904,1.0904,1.0782,1.0632,1.0467,1.0149,0.9822,0.9548,0.9396,0.9244,0.9031,0.861,0.8194,0.7798,0.7066,0.6451,0.6114,0.5244,0.4624,0.4236,0.3631,0.2989,0.2707,0.2666,0.2549,0.2169,0.2119,0.2164,0.2185,0.2189,0.1953,0.1447,0.0808,0.0305,0.0,0.0,0.0,0.0,0.0,0.0,0.0,-0.0318,-0.0682,-0.0828,-0.1342,-0.1717,-0.1843,-0.1779,-0.1726,-0.1902,-0.1868,-0.1892,-0.1837,-0.1647,-0.1492,-0.1413,-0.1178,-0.0864,-0.0628,-0.0471,-0.051,-0.0628,-0.0746,-0.0864,-0.0785,-0.0668,-0.051,0.7264,0.7142,0.7644,0.7727,0.7583,0.7798,0.7903,0.7903,0.7903,0.7903,0.7994,0.8219,0.8206,0.8072,0.8284,0.8389,0.8529,0.8732,0.8934,0.9063,0.9081,0.9149,0.9241,0.9272,0.938,0.9621,0.985,0.9915,0.987,0.9757,0.9721,0.9768,0.9738,0.9761,0.9792,0.9792,0.9792,0.9792,0.9792,0.989,0.9994,0.9981,0.9974,1.0019,1.0056,1.0187,1.0497,1.0776,1.0897,1.0951,1.0676,1.0286,0.9771,0.9403,0.9092,0.8696,0.8488,0.8061,0.7541,0.7424,0.714,0.6665,0.616,0.5819,0.5478,0.4617,0.4024,0.3956,0.3252,0.2609,0.2593,0.2385,0.2173,0.2113,0.2168,0.2183,0.2188,0.2189,0.1885,0.1178,0.0,0.0,0.0,0.0,0.0,0.0,0.0,0.0,0.0,-0.0393,-0.0756,-0.1125,-0.1567,-0.1937,-0.2174,-0.2344,-0.2386,-0.242,-0.2336,-0.2308,-0.2224,-0.2082,-0.1925,-0.1846,-0.157,-0.1256,-0.0903,-0.0785,-0.0903,-0.1021,-0.1178,-0.1296,-0.1217,-0.1099,-0.0785,0.7079,0.7046,0.7199,0.7235,0.7161,0.7187,0.7204,0.7204,0.7204,0.7322,0.7521,0.7464,0.7624,0.7957,0.799,0.8059,0.8243,0.8358,0.8584,0.8943,0.9053,0.9139,0.9182,0.9188,0.9203,0.9218,0.9293,0.9337,0.9337,0.9293,0.936,0.9533,0.9509,0.9585,0.9775,0.9792,0.9792,0.9792,0.9792,0.9819,0.9859,0.9866,0.9866,0.9873,0.9961,1.0084,1.0146,1.0263,1.0097,0.9776,0.9853,0.9563,0.8753,0.8223,0.775,0.723,0.7077,0.6863,0.6469,0.6403,0.6291,0.5859,0.5508,0.5231,0.4865,0.3988,0.3442,0.3395,0.2762,0.2332,0.2258,0.2236,0.2172,0.2174,0.2182,0.2189,0.2122,0.1784,0.1245,0.0774,0.0269,0.0,0.0,0.0,0.0,0.0,0.0,0.0,0.0,-0.0577,-0.098,-0.1204,-0.1716,-0.2128,-0.2301,-0.2398,-0.2431,-0.2463,-0.2466,-0.2466,-0.2419,-0.2396,-0.2278,-0.216,-0.1886,-0.161,-0.1296,-0.1217,-0.1335,-0.1453,-0.161,-0.1689,-0.1689,-0.1492,-0.1178,0.6139,0.6321,0.6505,0.6701,0.6817,0.6848,0.6903,0.6903,0.6903,0.7025,0.7158,0.7053,0.7211,0.7541,0.7477,0.7623,0.797,0.7938,0.827,0.871,0.8781,0.8808,0.8922,0.9036,0.91,0.9052,0.9132,0.9139,0.9139,0.9122,0.9192,0.9362,0.9318,0.9373,0.9552,0.9583,0.9614,0.9738,0.9775,0.9857,1.0028,1.0073,0.991,0.9712,0.9727,0.9614,0.9324,0.9103,0.9046,0.901,0.8939,0.8311,0.7551,0.7074,0.6662,0.6381,0.6206,0.6092,0.5794,0.5835,0.5686,0.54,0.4967,0.4762,0.4441,0.3628,0.2988,0.3029,0.2595,0.2181,0.2167,0.2175,0.2188,0.2189,0.2188,0.2122,0.1953,0.1481,0.0976,0.0572,0.0202,0.0,0.0,0.0,0.0,0.0,0.0,-0.0109,-0.0289,-0.0762,-0.1093,-0.1426,-0.1909,-0.222,-0.2358,-0.2417,-0.2476,-0.2502,-0.2484,-0.2489,-0.2468,-0.2473,-0.2396,-0.2396,-0.22,-0.1964,-0.1689,-0.1768,-0.1886,-0.2003,-0.2003,-0.2121,-0.2082,-0.1886,-0.1611,0.4608,0.5032,0.5521,0.585,0.6156,0.6355,0.6469,0.6719,0.6714,0.6745,0.6811,0.6822,0.6884,0.6931,0.6986,0.7173,0.7503,0.7529,0.7818,0.8156,0.8199,0.8204,0.853,0.8763,0.8884,0.9013,0.9178,0.924,0.9178,0.9088,0.9162,0.9162,0.917,0.9208,0.9241,0.9208,0.9374,0.9621,0.9634,0.9882,1.0283,1.0303,1.0013,0.936,0.9307,0.8942,0.821,0.7577,0.7796,0.8715,0.7686,0.6872,0.6437,0.605,0.5822,0.5722,0.5764,0.5559,0.5351,0.5161,0.5168,0.4942,0.4421,0.424,0.4287,0.3417,0.2789,0.3043,0.2554,0.2188,0.2186,0.2188,0.2189,0.2189,0.2122,0.1953,0.1616,0.1245,0.0842,0.0505,0.0,0.0,0.0,0.0,0.0,0.0,0.0,0.0,-0.0401,-0.0801,-0.1277,-0.1684,-0.1987,-0.2267,-0.2405,-0.2473,-0.2494,-0.2478,-0.2496,-0.2503,-0.251,-0.2512,-0.2514,-0.2475,-0.2435,-0.2239,-0.216,-0.22,-0.22,-0.216,-0.2239,-0.2435,-0.2396,-0.216,-0.1932,0.3507,0.3643,0.3781,0.3891,0.3991,0.4027,0.4619,0.5356,0.5418,0.579,0.6306,0.6432,0.653,0.7009,0.6692,0.6821,0.693,0.6773,0.7079,0.7596,0.7523,0.7908,0.8382,0.8519,0.8563,0.8623,0.871,0.8677,0.8644,0.8676,0.8756,0.8977,0.8896,0.8971,0.9156,0.9168,0.9214,0.9309,0.9347,0.9366,0.9467,0.9319,0.9082,0.8928,0.8691,0.8183,0.734,0.6222,0.6106,0.6974,0.6216,0.5572,0.544,0.5033,0.4728,0.4524,0.4299,0.4243,0.4281,0.4025,0.3873,0.3991,0.3706,0.3485,0.3574,0.307,0.2747,0.2759,0.2423,0.2189,0.2189,0.2189,0.2189,0.2155,0.1953,0.1616,0.1279,0.0909,0.0505,0.0202,0.0,0.0,0.0,0.0,0.0,0.0,0.0,-0.0073,-0.0365,-0.0839,-0.1314,-0.1538,-0.1842,-0.2198,-0.2413,-0.2485,-0.2513,-0.2496,-0.2508,-0.2508,-0.2512,-0.2514,-0.2514,-0.2514,-0.2475,-0.2357,-0.2357,-0.2396,-0.2357,-0.2281,-0.2401,-0.2522,-0.2518,-0.2361,-0.2178,0.1911,0.217,0.2165,0.2431,0.281,0.28,0.3284,0.3974,0.4125,0.4401,0.4882,0.4886,0.5056,0.5382,0.5144,0.5223,0.5529,0.5628,0.6,0.6548,0.6769,0.7459,0.8223,0.8306,0.8274,0.8486,0.8486,0.8492,0.8492,0.8486,0.8624,0.8744,0.8677,0.8773,0.8909,0.893,0.8865,0.8773,0.8832,0.8897,0.8697,0.8378,0.7987,0.7732,0.736,0.6629,0.5537,0.479,0.4771,0.5126,0.4801,0.4442,0.4404,0.404,0.3743,0.3541,0.3377,0.3377,0.3465,0.3266,0.3198,0.3297,0.3124,0.306,0.3076,0.2805,0.2492,0.266,0.2391,0.2223,0.2189,0.2189,0.2189,0.2155,0.1717,0.1313,0.1111,0.0774,0.037,0.0,0.0,0.0,0.0,0.0,0.0,0.0,0.0,0.0,-0.0328,-0.0839,-0.1277,-0.1501,-0.1813,-0.2212,-0.239,-0.2459,-0.2484,-0.2507,-0.2512,-0.2514,-0.2514,-0.2514,-0.2514,-0.2514,-0.2514,-0.2514,-0.2514,-0.2517,-0.2485,-0.2449,-0.2529,-0.2537,-0.2541,-0.2538,-0.2354,0.016,0.0729,0.0673,0.1236,0.1986,0.2069,0.222,0.2777,0.2851,0.2975,0.3189,0.3098,0.3387,0.301,0.3424,0.3266,0.3632,0.4172,0.4676,0.5205,0.5752,0.6573,0.7407,0.7638,0.7799,0.8125,0.8384,0.8412,0.8335,0.8374,0.8446,0.8368,0.8335,0.8279,0.811,0.8163,0.8112,0.7793,0.7849,0.7806,0.754,0.7208,0.681,0.6311,0.5582,0.4757,0.3875,0.345,0.3658,0.3809,0.3573,0.3539,0.3403,0.3113,0.3018,0.3005,0.2925,0.2884,0.3008,0.3013,0.2971,0.2995,0.2732,0.2669,0.2843,0.2538,0.2357,0.2559,0.2357,0.2223,0.2189,0.2189,0.2189,0.2088,0.1548,0.1144,0.1043,0.0741,0.0337,0.0,0.0,0.0,0.0,0.0,0.0,0.0,0.0,0.0,-0.0291,-0.0657,-0.1131,-0.1533,-0.1853,-0.2267,-0.2369,-0.2434,-0.2493,-0.2514,-0.2514,-0.2514,-0.2514,-0.2514,-0.2514,-0.2514,-0.2514,-0.2514,-0.2514,-0.2521,-0.253,-0.2541,-0.2585,-0.2568,-0.2586,-0.2578,-0.2464,-0.0777,-0.0587,-0.0647,-0.051,-0.0283,-0.0286,0.0474,0.1762,0.1739,0.2089,0.2809,0.2985,0.2978,0.295,0.2674,0.2819,0.2752,0.2857,0.308,0.3684,0.4129,0.4593,0.5375,0.6078,0.6731,0.6982,0.7483,0.7717,0.7684,0.7617,0.7717,0.7617,0.7116,0.6753,0.6581,0.6648,0.6309,0.6042,0.6109,0.6176,0.6008,0.564,0.5342,0.5007,0.4202,0.3631,0.3228,0.2751,0.2525,0.2617,0.2908,0.3009,0.2789,0.2701,0.2657,0.2593,0.2412,0.248,0.2859,0.2614,0.241,0.2632,0.2442,0.2241,0.231,0.2305,0.222,0.229,0.2256,0.2189,0.2189,0.2189,0.2189,0.2054,0.1582,0.1111,0.101,0.0,0.0,0.0,0.0,0.0,0.0,0.0,0.0,0.0,0.0,0.0,-0.0254,-0.0547,-0.0948,-0.1386,-0.1784,-0.212,-0.2364,-0.2432,-0.25,-0.2514,-0.2514,-0.2514,-0.2514,-0.2514,-0.2514,-0.2514,-0.2514,-0.2515,-0.2521,-0.2522,-0.2532,-0.2547,-0.2607,-0.2589,-0.2607,-0.2607,-0.2616,-0.158,-0.1515,-0.158,-0.1495,-0.1312,-0.1294,-0.0707,0.0127,0.0256,0.0513,0.1055,0.1298,0.1402,0.1436,0.1413,0.1421,0.15,0.1644,0.2085,0.2657,0.2993,0.3159,0.3327,0.4068,0.4705,0.5372,0.6176,0.6343,0.6172,0.6305,0.6305,0.6038,0.5741,0.5607,0.5473,0.5506,0.5406,0.5071,0.5037,0.5004,0.4638,0.4269,0.3833,0.3598,0.3028,0.2726,0.2658,0.2423,0.2213,0.2231,0.2478,0.2574,0.2371,0.2343,0.2326,0.2231,0.2181,0.2157,0.2374,0.2287,0.2142,0.2354,0.2191,0.2138,0.2116,0.2171,0.2186,0.2189,0.2189,0.2189,0.2189,0.2189,0.2189,0.2088,0.1683,0.1279,0.101,0.0,0.0,0.0,0.0,0.0,0.0,0.0,0.0,0.0,0.0,0.0,0.0,-0.0401,-0.0803,-0.121,-0.1569,-0.1932,-0.2284,-0.2426,-0.2504,-0.2514,-0.2514,-0.2514,-0.2514,-0.2514,-0.2514,-0.2514,-0.2515,-0.2529,-0.2533,-0.2533,-0.2549,-0.2589,-0.2613,-0.262,-0.2631,-0.2646,-0.2656,-0.2171,-0.2112,-0.2171,-0.1984,-0.1717,-0.1669,-0.1469,-0.1161,-0.1167,-0.091,-0.1004,-0.0714,-0.0294,-0.0423,-0.0098,-0.0033,0.0232,0.0635,0.1278,0.1683,0.1784,0.1818,0.1918,0.2085,0.2521,0.3658,0.4599,0.4699,0.4562,0.4666,0.4797,0.4294,0.4264,0.4197,0.4331,0.4635,0.4367,0.383,0.4,0.4034,0.3598,0.3228,0.286,0.2524,0.2356,0.2289,0.229,0.2223,0.2188,0.2189,0.2189,0.216,0.2127,0.2109,0.2092,0.2031,0.2054,0.212,0.2138,0.2085,0.2105,0.2105,0.2132,0.2116,0.2124,0.2172,0.2185,0.2189,0.2189,0.2189,0.2189,0.2189,0.2189,0.2122,0.1851,0.1481,0.1078,0.0505,0.0,0.0,0.0,0.0,0.0,0.0,0.0,0.0,0.0,0.0,0.0,-0.0328,-0.073,-0.1139,-0.1532,-0.1986,-0.2308,-0.2432,-0.2508,-0.2514,-0.2514,-0.2514,-0.2514,-0.2514,-0.2514,-0.2514,-0.2518,-0.2532,-0.2584,-0.2588,-0.2577,-0.2589,-0.2606,-0.2601,-0.266,-0.2687,-0.269,-0.2171,-0.2109,-0.2114,-0.2095,-0.2007,-0.1998,-0.1831,-0.1557,-0.1521,-0.136,-0.1151,-0.103,-0.1,-0.0901,-0.0601,-0.0301,-0.0033,0.0235,0.0,0.0,0.0,0.0,0.0,0.0,0.0,0.1143,0.2486,0.3358,0.3323,0.349,0.3392,0.3258,0.289,0.2556,0.2455,0.2524,0.2758,0.2522,0.2692,0.2726,0.2658,0.2524,0.2423,0.2189,0.2189,0.2189,0.2189,0.2189,0.2189,0.2189,0.2189,0.2182,0.217,0.2167,0.2141,0.2109,0.2084,0.2089,0.2067,0.2084,0.2099,0.2108,0.216,0.2177,0.2181,0.2183,0.2188,0.2189,0.2189,0.2189,0.2189,0.2189,0.2189,0.2088,0.1888,0.1518,0.1148,0.0748,0.0341,0.0,0.0,0.0,0.0,0.0,0.0,0.0,0.0,0.0,0.0,0.0,-0.0693,-0.1105,-0.1529,-0.1986,-0.2417,-0.246,-0.2514,-0.2514,-0.2514,-0.2514,-0.2514,-0.2514,-0.2514,-0.2514,-0.2522,-0.2536,-0.2586,-0.2603,-0.2597,-0.2603,-0.2611,-0.2617,-0.2675,-0.2692,-0.2692,-0.2123,-0.2108,-0.2093,-0.212,-0.209,-0.2102,-0.2044,-0.1916,-0.1908,-0.1811,-0.1635,-0.1466,-0.1371,-0.1241,-0.0934,-0.0568,-0.0303,0.0,0.0,0.0,0.0,0.0,0.0,0.0,0.0,0.0,0.1109,0.0,0.1579,0.195,0.195,0.1546,0.1346,0.1212,0.1178,0.1481,0.1582,0.1582,0.1784,0.2021,0.2189,0.2189,0.2189,0.2189,0.2189,0.2189,0.2189,0.2189,0.2189,0.2189,0.2189,0.2189,0.2189,0.2183,0.2168,0.2135,0.2114,0.212,0.2131,0.2114,0.2132,0.2167,0.2182,0.2188,0.2189,0.2188,0.2189,0.2189,0.2189,0.2189,0.2189,0.2189,0.2189,0.2192,0.1998,0.1769,0.1432,0.1033,0.0689,0.0309,0.0,0.0,0.0,0.0,0.0,0.0,0.0,0.0,0.0,0.0,-0.0657,-0.1216,-0.1677,-0.209,-0.2445,-0.2461,-0.2511,-0.2514,-0.2514,-0.2514,-0.2514,-0.2514,-0.2514,-0.2514,-0.2525,-0.2548,-0.2574,-0.2597,-0.263,-0.2614,-0.2625,-0.2677,-0.2686,-0.2692,-0.2692,-0.2105,-0.2098,-0.2107,-0.211,-0.2099,-0.2108,-0.2125,-0.2185,-0.2188,-0.2154,-0.2151,-0.1866,-0.1701,-0.1574,-0.1234,-0.0833,-0.0471,-0.0168,0.0,0.0,0.0,0.0,0.0,0.0,0.0,0.0,0.0,0.0,0.0,0.0706,0.0539,0.0437,0.037,0.0404,0.0505,0.0842,0.1111,0.1313,0.1582,0.1818,0.2088,0.2189,0.2189,0.2189,0.2189,0.2189,0.2189,0.2189,0.2189,0.2189,0.2189,0.2189,0.2189,0.2189,0.2177,0.2127,0.2177,0.2138,0.2132,0.217,0.2183,0.2183,0.2188,0.2189,0.2189,0.2189,0.2189,0.2189,0.2189,0.2189,0.2189,0.2195,0.2195,0.2197,0.2185,0.207,0.1726,0.1355,0.0984,0.0633,0.0318,0.0,0.0,0.0,0.0,0.0,0.0,0.0,0.0,0.0,-0.0622,-0.1325,-0.1826,-0.2195,-0.2461,-0.2488,-0.2502,-0.2514,-0.2514,-0.2514,-0.2514,-0.2514,-0.2514,-0.2517,-0.2553,-0.2578,-0.2605,-0.2586,-0.2607,-0.2668,-0.2684,-0.2692,-0.2692,-0.2692,-0.2692,-0.2094,-0.2102,-0.2098,-0.2099,-0.2107,-0.2099,-0.216,-0.2186,-0.2189,-0.2189,-0.2188,-0.2148,-0.2079,-0.1947,-0.1377,-0.0907,-0.0538,0.0,0.0,0.0,0.0,0.0,0.0,0.0,0.0,0.0,0.0,0.0,0.0,0.0,0.0,0.0,0.0,0.0,0.0,0.0,0.0572,0.0774,0.128,0.1785,0.2123,0.2192,0.2195,0.2189,0.2192,0.219,0.219,0.2189,0.2189,0.2189,0.2189,0.2189,0.2189,0.2189,0.2188,0.2185,0.2186,0.2186,0.2181,0.2185,0.2189,0.2189,0.2189,0.2189,0.2189,0.2189,0.2189,0.2189,0.2189,0.2189,0.2193,0.2213,0.221,0.2222,0.2208,0.2045,0.177,0.1482,0.1141,0.0823,0.043,0.0215,0.0,0.0,0.0,0.0,0.0,0.0,0.0,0.0,-0.0584,-0.1287,-0.1889,-0.2332,-0.2438,-0.2465,-0.2488,-0.2506,-0.2512,-0.2514,-0.2514,-0.2514,-0.2514,-0.2526,-0.2564,-0.2592,-0.2605,-0.2627,-0.2657,-0.2676,-0.2688,-0.2692,-0.2692,-0.2692,-0.2692,-0.2256,-0.2095,-0.2045,-0.2091,-0.2123,-0.2105,-0.2127,-0.2185,-0.2189,-0.2189,-0.2183,-0.2135,-0.2129,-0.2001,-0.1575,-0.1313,-0.1077,-0.0741,-0.064,-0.0505,-0.0404,-0.0269,0.0,0.0,0.0,0.0,0.0,0.0,0.0,0.0,0.0,0.0,0.0,0.0,0.0,0.0,0.0337,0.0675,0.1219,0.1797,0.21,0.2183,0.2188,0.2192,0.2206,0.2201,0.2192,0.2189,0.2189,0.2189,0.2189,0.2189,0.2189,0.2189,0.2189,0.2189,0.2188,0.2188,0.2188,0.2189,0.2189,0.2189,0.2189,0.2189,0.2189,0.2189,0.2189,0.2189,0.2189,0.2189,0.2195,0.2183,0.2188,0.2202,0.2236,0.2178,0.1941,0.1539,0.1194,0.0871,0.0581,0.029,0.0,0.0,0.0,0.0,0.0,0.0,0.0,0.0,-0.0877,-0.1282,-0.1847,-0.2388,-0.2414,-0.2442,-0.2507,-0.2488,-0.2511,-0.2512,-0.2514,-0.2514,-0.2514,-0.253,-0.2566,-0.2587,-0.2601,-0.2637,-0.2676,-0.2686,-0.2692,-0.2692,-0.2692,-0.2694,-0.2695,-0.2555,-0.2203,-0.2082,-0.2068,-0.2109,-0.2117,-0.2133,-0.2188,-0.2189,-0.2189,-0.2183,-0.2165,-0.2123,-0.2026,-0.1776,-0.1548,-0.1548,-0.1279,-0.1144,-0.0976,-0.0808,-0.0606,-0.0438,0.0,0.0,0.0,0.0,0.0,0.0,0.0,0.0,0.0,0.0,0.0,0.0,0.0,0.0169,0.0543,0.1025,0.154,0.195,0.2039,0.2097,0.215,0.2211,0.2213,0.2193,0.2189,0.2189,0.2189,0.2189,0.2189,0.2189,0.2189,0.2189,0.2189,0.2189,0.2189,0.2189,0.2189,0.2189,0.2189,0.2189,0.2189,0.2189,0.2189,0.2189,0.2189,0.2189,0.2192,0.2204,0.2195,0.2208,0.2233,0.2264,0.2281,0.2188,0.1771,0.1346,0.1055,0.0692,0.0291,0.0,0.0,0.0,0.0,0.0,0.0,0.0,0.0,-0.0949,-0.1207,-0.1725,-0.2221,-0.2397,-0.2421,-0.2485,-0.2514,-0.2497,-0.2511,-0.2514,-0.2514,-0.2514,-0.2538,-0.2567,-0.2587,-0.2602,-0.265,-0.2692,-0.2692,-0.2692,-0.2692,-0.2692,-0.2697,-0.2705,-0.2932,-0.2534,-0.2201,-0.2104,-0.2113,-0.2174,-0.2186,-0.2189,-0.2189,-0.2189,-0.2188,-0.2185,-0.2181,-0.2116,-0.1848,-0.1649,-0.1616,-0.1245,-0.1245,-0.1178,-0.1043,-0.0842,-0.064,-0.0471,0.0,0.0,0.0,0.0,0.0,0.0,0.0,0.0,0.0,0.0,0.0,0.0,0.0,0.0443,0.0722,0.1107,0.1558,0.177,0.1861,0.2126,0.2207,0.219,0.2189,0.2192,0.219,0.219,0.2189,0.2189,0.2189,0.2189,0.2189,0.2189,0.2189,0.2189,0.2189,0.2189,0.2189,0.2189,0.2189,0.2189,0.2189,0.2189,0.2189,0.2189,0.2189,0.22,0.2189,0.2185,0.219,0.2213,0.2236,0.2294,0.22,0.1957,0.1566,0.124,0.0839,0.0365,0.0,0.0,0.0,0.0,0.0,0.0,0.0,-0.0474,-0.0803,-0.1132,-0.1568,-0.1984,-0.2305,-0.2408,-0.244,-0.247,-0.2496,-0.2507,-0.2514,-0.2514,-0.2514,-0.2533,-0.2559,-0.2582,-0.2611,-0.2654,-0.2686,-0.269,-0.2692,-0.2695,-0.2705,-0.2672,-0.2683,-0.2911,-0.2572,-0.2241,-0.212,-0.2171,-0.2183,-0.2189,-0.2189,-0.2189,-0.2189,-0.2189,-0.2189,-0.2189,-0.2155,-0.2088,-0.1987,-0.1953,-0.1851,-0.175,-0.1683,-0.1515,-0.1212,-0.0909,-0.0606,0.0,0.0,0.0,0.0,0.0,0.0,0.0,0.0,0.0,0.0,0.0,0.0,0.0,0.0409,0.0586,0.094,0.1525,0.172,0.1853,0.2165,0.2182,0.2187,0.22,0.221,0.2203,0.2195,0.2192,0.2193,0.2192,0.2192,0.2193,0.2193,0.2193,0.2193,0.2192,0.219,0.2189,0.2189,0.2189,0.2189,0.2189,0.2189,0.2189,0.2189,0.2189,0.2199,0.2206,0.2199,0.2186,0.2213,0.224,0.2267,0.2173,0.1964,0.1639,0.124,0.0839,0.0438,0.0,0.0,0.0,0.0,0.0,0.0,0.0,-0.0255,-0.0584,-0.095,-0.1388,-0.1724,-0.2041,-0.2255,-0.2435,-0.2465,-0.2493,-0.2506,-0.2514,-0.2515,-0.2518,-0.2534,-0.2557,-0.259,-0.2624,-0.2661,-0.2682,-0.269,-0.2697,-0.2702,-0.2672,-0.2687,-0.2704,-0.2908,-0.257,-0.2241,-0.216,-0.2188,-0.2189,-0.2189,-0.2189,-0.2189,-0.2189,-0.2189,-0.2189,-0.2189,-0.2189,-0.2189,-0.2189,-0.2155,-0.2155,-0.2155,-0.2054,-0.1885,-0.1515,-0.1144,-0.0808,0.0,0.0,0.0,0.0,0.0,0.0,0.0,0.0,0.0,0.0,0.0,0.0,0.0,0.0306,0.0449,0.0701,0.1292,0.1484,0.1665,0.2013,0.2118,0.2207,0.2184,0.2187,0.2187,0.2181,0.2213,0.2213,0.2207,0.2203,0.2207,0.221,0.2208,0.2206,0.221,0.2196,0.219,0.2189,0.2189,0.2189,0.2189,0.2189,0.2189,0.2189,0.2189,0.2192,0.2197,0.2202,0.2236,0.223,0.2257,0.2283,0.2179,0.2003,0.1604,0.1241,0.0839,0.0,0.0,0.0,0.0,0.0,0.0,0.0,0.0,-0.0219,-0.0401,-0.0768,-0.1173,-0.1511,-0.1818,-0.2152,-0.2451,-0.2465,-0.2491,-0.2507,-0.2514,-0.2518,-0.2529,-0.2545,-0.2571,-0.2604,-0.2635,-0.2667,-0.2682,-0.2691,-0.2698,-0.2703,-0.2685,-0.2701,-0.2727,-0.2928,-0.2572,-0.2239,-0.2124,-0.2183,-0.2189,-0.2188,-0.2185,-0.2188,-0.2189,-0.2189,-0.2189,-0.2189,-0.2189,-0.2189,-0.2189,-0.2189,-0.2189,-0.2189,-0.2155,-0.2122,-0.1717,-0.1313,-0.0943,0.0,0.0,0.0,0.0,0.0,0.0,0.0,0.0,0.0,0.0,0.0,0.0,0.0,0.0,0.0,0.0351,0.0709,0.1067,0.1409,0.1759,0.2079,0.22,0.2206,0.2204,0.2206,0.2203,0.2183,0.2182,0.2202,0.22,0.221,0.2195,0.221,0.2214,0.2198,0.2185,0.2203,0.2201,0.2206,0.2197,0.2192,0.2189,0.2189,0.2189,0.2189,0.2203,0.2193,0.2186,0.2247,0.2278,0.2269,0.2285,0.2182,0.2114,0.1787,0.1314,0.0876,0.0,0.0,0.0,0.0,0.0,0.0,0.0,0.0,0.0,0.0,-0.0551,-0.0958,-0.134,-0.1689,-0.2171,-0.2466,-0.2477,-0.2493,-0.2517,-0.2533,-0.2545,-0.2593,-0.2602,-0.259,-0.2585,-0.2607,-0.2671,-0.2682,-0.2692,-0.2698,-0.2709,-0.2692,-0.272,-0.2792,-0.2777,-0.2272,-0.2089,-0.2079,-0.2124,-0.2181,-0.2178,-0.2131,-0.2178,-0.2189,-0.2189,-0.2189,-0.2189,-0.2189,-0.2189,-0.2189,-0.2189,-0.2189,-0.2189,-0.2189,-0.2189,-0.1717,-0.1313,-0.101,-0.0707,0.0,0.0,0.0,0.0,0.0,0.0,0.0,0.0,0.0,0.0,0.0,0.0,0.0,0.0,0.0209,0.0563,0.0912,0.1264,0.1665,0.2016,0.2211,0.2189,0.2189,0.2191,0.2193,0.221,0.2209,0.2198,0.2195,0.2201,0.2212,0.2197,0.2199,0.2208,0.2187,0.2182,0.221,0.2196,0.2185,0.2184,0.2197,0.2192,0.219,0.2192,0.2207,0.2196,0.2206,0.223,0.2275,0.2303,0.2279,0.225,0.2221,0.2006,0.1459,0.0985,0.0547,0.0,0.0,0.0,0.0,0.0,0.0,0.0,0.0,0.0,0.0,-0.0668,-0.1089,-0.1557,-0.2114,-0.2448,-0.2503,-0.256,-0.2584,-0.2597,-0.2611,-0.2581,-0.259,-0.2578,-0.2607,-0.262,-0.2675,-0.2684,-0.2694,-0.2703,-0.2725,-0.2757,-0.2789,-0.2822,-0.2681,-0.2124,-0.2042,-0.2056,-0.2095,-0.2159,-0.2164,-0.2161,-0.2179,-0.2189,-0.2189,-0.2189,-0.2189,-0.2189,-0.2189,-0.2189,-0.2189,-0.2189,-0.2189,-0.2189,-0.2189,-0.1717,-0.1313,-0.1043,-0.064,0.0,0.0,0.0,0.0,0.0,0.0,0.0,0.0,0.0,0.0,0.0,0.0,0.0,0.0,0.0104,0.0454,0.0807,0.123,0.155,0.189,0.2186,0.2195,0.2204,0.2212,0.2214,0.2225,0.223,0.2229,0.2225,0.223,0.2236,0.2241,0.2241,0.2242,0.2242,0.224,0.2238,0.2204,0.2207,0.2193,0.221,0.2199,0.2196,0.2199,0.218,0.2199,0.2206,0.2243,0.2289,0.2304,0.228,0.2288,0.2258,0.2114,0.1605,0.1131,0.0657,0.0,0.0,0.0,0.0,0.0,0.0,0.0,0.0,0.0,0.0,-0.0599,-0.1097,-0.1568,-0.205,-0.2345,-0.2526,-0.2545,-0.2604,-0.2585,-0.2597,-0.2608,-0.262,-0.2606,-0.2625,-0.2628,-0.2677,-0.2687,-0.2702,-0.2673,-0.2743,-0.2777,-0.2804,-0.2831,-0.2703,-0.2158,-0.2095,-0.2095,-0.2105,-0.2105,-0.2131,-0.2186,-0.2188,-0.2189,-0.2189,-0.2189,-0.2189,-0.2189,-0.2189,-0.2189,-0.2189,-0.2189,-0.2189,-0.2189,-0.2189,-0.1683,-0.1313,-0.1077,-0.064,0.0,0.0,0.0,0.0,0.0,0.0,0.0,0.0,0.0,0.0,0.0,0.0,0.0,0.0,0.0,0.0,0.0705,0.1023,0.134,0.1719,0.2094,0.2166,0.2206,0.2214,0.223,0.2257,0.2261,0.2296,0.2289,0.2271,0.2283,0.2285,0.2287,0.2285,0.2283,0.2279,0.2267,0.2241,0.2223,0.2196,0.2198,0.2191,0.2187,0.2191,0.22,0.2211,0.2243,0.2277,0.2298,0.2276,0.2285,0.2293,0.2223,0.2114,0.1751,0.1277,0.0803,0.0328,0.0,0.0,0.0,0.0,0.0,0.0,0.0,0.0,0.0,-0.0565,-0.1143,-0.1618,-0.2025,-0.2358,-0.2538,-0.2559,-0.2578,-0.26,-0.2585,-0.2598,-0.2656,-0.2675,-0.2684,-0.2682,-0.2684,-0.269,-0.2703,-0.2672,-0.2692,-0.2761,-0.2791,-0.2819,-0.2632,-0.2031,-0.2031,-0.2056,-0.2098,-0.2163,-0.2181,-0.2188,-0.2189,-0.2189,-0.2189,-0.2189,-0.2189,-0.2189,-0.2189,-0.2189,-0.2189,-0.2189,-0.2189,-0.2189,-0.2189,-0.1717,-0.1346,-0.1043,-0.064,0.0,0.0,0.0,0.0,0.0,0.0,0.0,0.0,0.0,0.0,0.0,0.0,0.0,0.0,0.0,0.0,0.0,0.0808,0.12,0.1583,0.193,0.2186,0.2263,0.2271,0.2283,0.2293,0.2289,0.2226,0.2225,0.2236,0.2301,0.228,0.2295,0.2296,0.2296,0.2291,0.228,0.2264,0.2259,0.2262,0.2237,0.2193,0.2185,0.2221,0.2232,0.2237,0.226,0.2288,0.2305,0.2277,0.2279,0.2287,0.226,0.2114,0.1714,0.1241,0.0839,0.0365,0.0,0.0,0.0,0.0,0.0,0.0,0.0,0.0,0.0,-0.0531,-0.1113,-0.155,-0.1959,-0.2292,-0.2551,-0.2571,-0.2596,-0.2628,-0.2611,-0.2629,-0.2682,-0.2687,-0.269,-0.269,-0.2692,-0.2692,-0.2694,-0.2703,-0.2722,-0.2746,-0.2778,-0.2811,-0.2489,-0.2051,-0.2031,-0.2072,-0.2124,-0.2181,-0.2189,-0.2189,-0.2189,-0.2189,-0.2189,-0.2189,-0.2189,-0.2189,-0.2189,-0.2189,-0.2189,-0.2189,-0.2189,-0.2189,-0.2189,-0.1683,-0.1313,-0.1043,-0.064,0.0,0.0,0.0,0.0,0.0,0.0,0.0,0.0,0.0,0.0,0.0,0.0,0.0,0.0,0.0,0.0,0.0347,0.0737,0.1094,0.1477,0.1874,0.22,0.2275,0.2279,0.2292,0.2297,0.2265,0.2246,0.2248,0.2249,0.2277,0.2285,0.2296,0.2295,0.2283,0.2277,0.2273,0.2276,0.2272,0.23,0.2278,0.2224,0.2209,0.222,0.2264,0.2266,0.2271,0.229,0.2275,0.2272,0.2305,0.2281,0.2293,0.1968,0.1568,0.1167,0.0766,0.0438,0.0182,0.0,0.0,0.0,0.0,0.0,0.0,0.0,0.0,0.0,-0.1005,-0.1404,-0.1809,-0.2182,-0.244,-0.2583,-0.2612,-0.2609,-0.263,-0.2683,-0.2687,-0.2691,-0.2692,-0.2692,-0.2694,-0.2694,-0.2698,-0.271,-0.2733,-0.2755,-0.2777,-0.281,-0.2303,-0.2022,-0.2085,-0.2132,-0.2183,-0.2188,-0.2189,-0.2189,-0.2189,-0.2189,-0.2189,-0.2189,-0.2189,-0.2189,-0.2189,-0.2189,-0.2189,-0.2189,-0.2189,-0.2189,-0.2189,-0.1784,-0.1279,-0.1043,-0.064,0.0,0.0,0.0,0.0,0.0,0.0,0.0,0.0,0.0,0.0,0.0,0.0,0.0,0.0,0.0,0.0,0.0347,0.0736,0.1089,0.1443,0.18,0.2114,0.2222,0.2229,0.2256,0.2273,0.2285,0.2276,0.2272,0.2276,0.2285,0.2284,0.2291,0.2284,0.2305,0.2307,0.2304,0.2304,0.2263,0.2252,0.2301,0.225,0.2238,0.2282,0.2275,0.2274,0.2259,0.2264,0.2283,0.229,0.2267,0.2287,0.2258,0.2114,0.1714,0.1314,0.0912,0.0584,0.0,0.0,0.0,0.0,0.0,0.0,0.0,0.0,0.0,0.0,-0.0855,-0.1133,-0.1536,-0.2027,-0.2286,-0.2469,-0.262,-0.2611,-0.2632,-0.2691,-0.2692,-0.2692,-0.2692,-0.2692,-0.2694,-0.2702,-0.2679,-0.2692,-0.2752,-0.2772,-0.2791,-0.2807,-0.2301,-0.2023,-0.2076,-0.2154,-0.2186,-0.2189,-0.2189,-0.2189,-0.2189,-0.2189,-0.2189,-0.2189,-0.2189,-0.2189,-0.2189,-0.2189,-0.2189,-0.2189,-0.2189,-0.2189,-0.2189,-0.1851,-0.1212,-0.1077,-0.0673,0.0,0.0,0.0,0.0,0.0,0.0,0.0,0.0,0.0,0.0,0.0,0.0,0.0,0.0,0.0,0.0,0.0,0.0421,0.0918,0.1348,0.1716,0.204,0.2263,0.226,0.23,0.2297,0.2252,0.2232,0.2233,0.2244,0.2296,0.2304,0.2273,0.2273,0.2289,0.2277,0.2281,0.2278,0.2232,0.2237,0.2268,0.2279,0.2269,0.2297,0.2288,0.2271,0.2249,0.224,0.2258,0.2274,0.2264,0.2291,0.2222,0.2187,0.186,0.146,0.1131,0.0766,0.0,0.0,0.0,0.0,0.0,0.0,0.0,0.0,0.0,0.0,-0.0704,-0.0942,-0.126,-0.1706,-0.2083,-0.2344,-0.2455,-0.2614,-0.2675,-0.2692,-0.2692,-0.2692,-0.2698,-0.2701,-0.2695,-0.2707,-0.2697,-0.2715,-0.2732,-0.2799,-0.2821,-0.2825,-0.2293,-0.2038,-0.2064,-0.2139,-0.2167,-0.2182,-0.2189,-0.2189,-0.2189,-0.2189,-0.2189,-0.2189,-0.2189,-0.2189,-0.2189,-0.2189,-0.2189,-0.2189,-0.2189,-0.2189,-0.2122,-0.1851,-0.1481,-0.1144,-0.0741,0.0,0.0,0.0,0.0,0.0,0.0,0.0,0.0,0.0,0.0,0.0,0.0,0.0,0.0,0.0,0.0,0.0,0.0419,0.0916,0.1277,0.1648,0.2024,0.2281,0.2275,0.2304,0.2301,0.2301,0.2248,0.2232,0.2238,0.2289,0.2294,0.2248,0.2253,0.2236,0.2209,0.2217,0.2243,0.2229,0.227,0.2296,0.2245,0.2238,0.2292,0.2286,0.2245,0.2219,0.2197,0.2213,0.2225,0.2244,0.2275,0.226,0.2114,0.1859,0.1495,0.1095,0.073,0.0,0.0,0.0,0.0,0.0,0.0,0.0,0.0,0.0,0.0,0.0,-0.0706,-0.1023,-0.1344,-0.1717,-0.2136,-0.2378,-0.2536,-0.2637,-0.2692,-0.2694,-0.2701,-0.2673,-0.2714,-0.2714,-0.2744,-0.274,-0.2748,-0.2754,-0.2823,-0.2845,-0.2848,-0.2258,-0.2026,-0.2075,-0.2117,-0.2116,-0.2177,-0.2189,-0.2189,-0.2189,-0.2189,-0.2189,-0.2189,-0.2189,-0.2189,-0.2189,-0.2189,-0.2189,-0.2189,-0.2189,-0.2122,-0.2155,-0.1784,-0.1481,-0.1212,-0.0774,-0.0404,0.0,0.0,0.0,0.0,0.0,0.0,0.0,0.0,0.0,0.0,0.0,0.0,0.0,0.0,0.0,0.0068,0.0553,0.0941,0.1266,0.1566,0.2051,0.228,0.2277,0.2273,0.2271,0.2272,0.2303,0.2248,0.2257,0.2303,0.2241,0.2242,0.2279,0.2237,0.2197,0.2194,0.2208,0.2215,0.2255,0.226,0.221,0.2212,0.2264,0.2262,0.2221,0.2199,0.2181,0.221,0.2221,0.2236,0.2269,0.2296,0.2114,0.1895,0.1567,0.1167,0.0766,0.0328,0.0,0.0,0.0,0.0,0.0,0.0,0.0,0.0,0.0,0.0,0.0,-0.0787,-0.1065,-0.1507,-0.1925,-0.2253,-0.2499,-0.2638,-0.2691,-0.2697,-0.2706,-0.2681,-0.2699,-0.2747,-0.274,-0.2773,-0.2771,-0.2816,-0.2844,-0.2863,-0.2867,-0.2098,-0.208,-0.2092,-0.2128,-0.2175,-0.2186,-0.2189,-0.2189,-0.2189,-0.2189,-0.2189,-0.2189,-0.2189,-0.2189,-0.2189,-0.2189,-0.2189,-0.2189,-0.1953,-0.175,-0.2021,-0.1717,-0.138,-0.1178,-0.0673,0.0,0.0,0.0,0.0,0.0,0.0,0.0,0.0,0.0,0.0,0.0,0.0,0.0,0.0,0.0,0.0,0.0272,0.0652,0.1042,0.141,0.1817,0.2156,0.2281,0.2289,0.2287,0.2275,0.2276,0.2272,0.2298,0.2301,0.2269,0.2242,0.2244,0.2268,0.2219,0.2211,0.2193,0.2206,0.2208,0.2236,0.2214,0.2202,0.2193,0.2208,0.2219,0.2192,0.2208,0.2184,0.2208,0.2238,0.2263,0.2291,0.2296,0.2223,0.2041,0.1859,0.1459,0.1095,0.0657,0.0,0.0,0.0,0.0,0.0,0.0,0.0,0.0,0.0,0.0,0.0,0.0,-0.0866,-0.1306,-0.1758,-0.2201,-0.2526,-0.2636,-0.2688,-0.2695,-0.2714,-0.2691,-0.2751,-0.2772,-0.2799,-0.2781,-0.2782,-0.2834,-0.286,-0.2919,-0.2919]},{"header":{"parameterUnit":"m.s-1","parameterCategory":1,"la1":31.0,"la2":29.5877,"lo1":-88.7671,"lo2":-86.6584,"dy":0.0162,"dx":0.0185,"nx":115,"ny":88,"refTime":"2023-10-02T06:00:00:Z","depth":0,"parameterNumber":3,"parameterNumberName":"V-component_of_WINDS"},"data":[0.0,0.0,0.0,0.0,0.0,0.0,0.0,0.0,0.0,0.0,0.0,0.0,0.0,0.0,0.0,0.0,0.0,0.0,0.0,0.0,0.0,0.0,0.0,0.0,0.0,0.0,0.0,0.0,0.0,0.0,0.0,0.0,0.0,0.0,0.0,0.0,0.0,0.0,0.0,0.0,0.0,0.0,0.0,0.0,0.0,0.0,0.0,0.0,0.0,0.0,0.0,0.0,0.0,0.0,0.0,0.0,0.0,0.0,0.0,0.0,0.0,0.0,0.0,0.0,0.0,0.0,0.0,0.0,0.0,0.0,0.0,0.0,0.0,0.0,0.0,0.0,0.0,0.0,0.0,0.0,0.0,0.0,0.0,0.0,0.0,0.0,0.0,0.0,0.0,0.0,0.0,0.0,0.0,0.0,0.0,0.0,0.0,0.0,0.0,0.0,0.0,0.0,0.0,0.0,0.0,0.0,0.0,0.0,0.0,0.0,0.0,0.0,0.0,0.0,0.0,0.0,0.0,0.0,0.0,0.0,0.0,0.0,0.0,0.0,0.0,0.0,0.0,0.0,0.0,0.0,0.0,0.0,0.0,0.0,0.0,0.0,0.0,0.0,0.0,0.0,0.0,0.0,0.0,0.0,0.0,0.0,0.0,0.0,0.0,0.0,0.0,0.0,0.0,0.0,0.0,0.0,0.0,0.0,0.0,0.0,0.0,0.0,0.0,0.0,0.0,0.0,0.0,0.0,0.0,0.0,0.0,0.0,0.0,0.0,0.0,0.0,0.0,0.0,0.0,0.0,0.0,0.0,0.0,0.0,0.0,0.0,0.0,0.0,0.0,0.0,0.0,0.0,0.0,0.0,0.0,0.0,0.0,0.0,0.0,0.0,0.0,0.0,0.0,0.0,0.0,0.0,0.0,0.0,0.0,0.0,0.0,0.0,0.0,0.0,0.0,0.0,0.0,0.0,0.0,0.0,0.0,0.0,0.0,0.0,0.0,0.0,0.0,0.0,0.0,0.0,0.0,0.0,0.0,0.0,0.0,0.0,0.0,0.0,0.0,0.0,0.0,0.0,0.0,0.0,0.0,0.0,0.0,0.0,0.0,0.0,0.0,0.0,0.0,0.0,0.0,0.0,0.0,0.0,0.0,0.0,0.0,0.0,0.0,0.0,0.0,0.0,0.0,0.0,0.0,0.0,0.0,0.0,0.0,0.0,0.0,0.0,0.0,0.0,0.0,0.0,0.0,0.0,0.0,0.0,0.0,0.0,0.0,0.0,0.0,0.0,0.0,0.0,0.0,0.0,0.0,0.0,0.0,0.0,0.0,0.0,0.0,0.0,0.0,0.0,0.0,0.0,0.0,0.0,0.0,0.0,0.0,0.0,0.0,0.0,0.0,0.0,0.0,0.0,0.0,0.0,0.0,0.0,0.0,0.0,0.0,0.0,0.0,0.0,0.0,0.0,0.0,0.0,0.0,0.0,0.0,0.0,0.0,0.0,0.0,0.0,0.0,0.0,0.0,0.0,0.0,0.0,0.0,0.0,0.0,0.0,0.0,0.0,0.0,0.0,0.0,0.0,0.0,0.0,0.0,0.0,0.0,0.0,0.0,0.0,0.0,0.0,0.0,0.0,0.0,0.0,0.0,0.0,0.0,0.0,0.0,0.0,0.0,0.0,0.0,0.0,0.0,0.0,0.0,0.0,0.0,0.0,0.0,0.0,0.0,0.0,0.0,0.0,0.0,0.0,0.0,0.0,0.0,0.0,0.0,0.0,0.0,0.0,0.0,0.0,0.0,0.0,0.0,0.0,0.0,0.0,0.0,0.0,0.0,0.0,0.0,0.0,0.0,0.0,0.0,0.0,0.0,0.0,0.0,0.0,0.0,0.0,0.0,0.0,0.0,0.0,0.0,0.0,0.0,0.0,0.0,0.0,0.0,0.0,0.0,0.0,0.0,0.0,0.0,0.0,0.0,0.0,0.0,0.0,0.0,0.0,0.0,0.0,0.0,0.0,0.0,0.0,0.0,0.0,0.0,0.0,0.0,0.0,0.0,0.0,0.0,0.0,0.0,0.0,0.0,0.0,0.0,0.0,0.0,0.0,0.0,0.0,0.0,0.0,0.0,0.0,0.0,0.0,0.0,0.0,0.0,0.0,0.0,0.0,0.0,0.0,0.0,0.0,0.0,0.0,0.0,0.0,0.0,0.0,0.0,0.0,0.0,0.0,0.0,0.0,0.0,0.0,0.0,0.0,0.0,0.0,0.0,0.0,0.0,0.0,0.0,0.0,0.0,0.0,0.0,0.0,0.0,0.0,0.0,0.0,0.0,0.0,0.0,0.0,0.0,0.0,0.0,0.0,0.0,0.0,0.0,0.0,0.0,0.0,0.0,0.0,0.0,0.0,0.0,0.0,0.0,0.0,0.0,0.0,0.0,0.0,0.0,0.0,0.0,0.0,0.0,0.0,0.0,0.0,0.0,0.0,0.0,0.0,0.0,0.0,0.0,0.0,0.0,0.0,0.0,0.0,0.0,0.0,0.0,0.0,0.0,0.0,0.0,0.0,0.0,0.0,0.0,0.0,0.0,0.0,0.0,0.0,0.0,0.0,0.0,0.0,0.0,0.0,0.0,0.0,0.0,0.0,0.0,0.0,0.0,0.0,0.0,0.0,0.0,0.0,0.0,0.0,0.0,0.0,0.0,0.0,0.0,0.0,0.0,0.0,0.0,0.0,0.0,0.0,0.0,0.0,0.0,0.0,0.0,0.0,0.0,0.0,0.0,0.0,0.0,0.0,0.0,0.0,0.0,0.0,0.0,0.0,0.0,0.0,0.0,0.0,0.0,0.0,0.0,0.0,0.0,0.0,0.0,0.0,0.0,0.0,0.0,0.0,0.0,0.0,0.0,0.0,0.0,0.0,0.0,0.0,0.0,0.0,0.0,0.0,0.0,0.0,0.0,0.0,0.0,0.0,0.0,0.0,0.0,0.0,0.0,0.0,0.0,0.0,0.0,0.0,0.0,0.0,0.0,0.0,0.0,0.0,0.0,0.0,0.0,0.0,0.0,0.0,0.0,0.0,0.0,0.0,0.0,0.0,0.0,0.0,0.0,0.0,0.0,0.0,0.0,0.0,0.0,0.0,0.0,0.0,0.0,0.0,0.0,0.0,0.0,0.0,0.0,0.0,0.0,0.0,0.0,0.0,0.0,0.0,0.0,0.0,0.0,0.0,0.0,0.0,0.0,0.0,0.0,0.0,0.0,0.0,0.0,0.0,0.0,0.0,0.0,0.0,0.0,0.0,0.0,0.0,0.0,0.0,0.0,0.0,0.0,0.0,0.0,0.0,0.0,0.0,0.0,0.0,0.0,0.0,0.0,0.0,0.0,0.0,0.0,0.0,0.0,0.0,0.0,0.0,0.0,0.0,0.0,0.0,0.0,0.0,0.0,0.0,0.0,0.0,0.0,0.0,0.0,0.0,0.0,0.0,0.0,0.0,0.0,0.0,0.0,0.0,0.0,0.0,0.0,0.0,0.0,0.0,0.0,0.0,0.0,0.0,0.0,0.0,0.0,0.0,0.0,0.0,0.0,0.0,0.0,0.0,0.0,0.0,0.0,0.0,0.0,0.0,0.0,0.0,0.0,0.0,0.0,0.0,0.0,0.0,0.0,0.0,0.0,0.0,0.0,0.0,0.0,0.0,0.0,0.0,0.0,0.0,0.0,0.0,0.0,0.0,0.0,0.0,0.0,0.0,0.0,0.0,0.0,0.0,0.0,0.0,0.0,0.0,0.0,0.0,0.0,0.0,0.0,0.0,0.0,0.0,0.0,0.0,0.0,0.0,0.0,0.0,0.0,0.0,0.0,0.0,0.0,0.0,0.0,0.0,0.0,0.0,0.0,0.0,0.0,0.0,0.0,0.0,0.0,0.0,0.0,0.0,0.0,0.0,0.0,0.0,0.0,0.0,0.0,0.0,0.0,0.0,0.0,0.0,0.0,0.0,0.0,0.0,0.0,0.0,0.0,0.0,0.0,0.0,0.0,0.0,0.0,0.0,0.0,0.0,0.0,0.0,0.0,0.0,0.0,0.0,0.0,0.0,0.0,0.0,0.0,0.0,0.0,0.0,0.0,0.0,0.0,0.0,0.0,0.0,0.0,0.0,0.0,0.0,0.0,0.0,0.0,0.0,0.0,0.0,0.0,0.0,0.0,0.0,0.0,0.0,0.0,0.0,0.0,0.0,0.0,0.0,0.0,0.0,0.0,0.0,0.0,0.0,0.0,0.0,2.0563,0.0,0.0,0.0,0.0,0.0,0.0,0.0,0.0,0.0,0.0,0.0,0.0,0.0,0.0,0.0,0.0,0.0,0.0,0.0,0.0,0.0,0.0,0.0,0.0,0.0,0.0,0.0,0.0,0.0,0.0,0.0,0.0,0.0,0.0,0.0,0.0,0.0,0.0,0.0,0.0,0.0,0.0,0.0,0.0,0.0,0.0,0.0,0.0,0.0,0.0,0.0,0.0,0.0,0.0,0.0,0.0,0.0,0.0,0.0,0.0,0.0,0.0,0.0,0.0,0.0,0.0,0.0,0.0,0.0,0.0,0.0,0.0,0.0,0.0,0.0,0.0,0.0,0.0,0.0,0.0,0.0,0.0,0.0,0.0,0.0,0.0,0.0,0.0,0.0,0.0,0.0,0.0,0.0,0.0,0.0,0.0,0.0,0.0,0.0,0.0,0.0,0.0,0.0,0.0,0.0,0.0,0.0,0.0,0.0,0.0,1.8568,1.9501,1.9283,1.9826,2.1214,0.0,0.0,0.0,0.0,0.0,0.0,0.0,0.0,0.0,0.0,0.0,0.0,0.0,0.0,0.0,0.0,0.0,0.0,0.0,0.0,0.0,0.0,0.0,0.0,0.0,0.0,0.0,0.0,0.0,0.0,0.0,0.0,0.0,0.0,0.0,0.0,0.0,0.0,0.0,0.0,0.0,0.0,0.0,0.0,0.0,0.0,0.0,0.0,0.0,0.0,0.0,0.0,0.0,0.0,0.0,0.0,0.0,0.0,0.0,0.0,0.0,0.0,0.0,0.0,0.0,0.0,0.0,0.0,0.0,0.0,0.0,0.0,0.0,0.0,0.0,0.0,0.0,0.0,0.0,0.0,0.0,0.0,0.0,0.0,0.0,0.0,0.0,0.0,0.0,0.0,0.0,0.0,0.0,0.0,0.0,0.0,0.0,0.0,0.0,0.0,0.0,0.0,0.0,0.0,0.0,0.0,0.0,0.0,0.0,0.0,0.0,0.0,2.0013,2.0536,2.1719,0.0,0.0,0.0,0.0,0.0,0.0,0.0,0.0,0.0,0.0,0.0,0.0,0.0,0.0,0.0,0.0,0.0,0.0,0.0,0.0,0.0,0.0,0.0,0.0,0.0,0.0,0.0,0.0,0.0,0.0,0.0,0.0,0.0,0.0,0.0,0.0,0.0,0.0,0.0,0.0,0.0,0.0,0.0,0.0,0.0,0.0,0.0,0.0,0.0,0.0,0.0,0.0,0.0,0.0,0.0,0.0,0.0,0.0,0.0,0.0,0.0,0.0,0.0,0.0,0.0,0.0,0.0,0.0,0.0,0.0,0.0,0.0,0.0,0.0,0.0,0.0,0.0,0.0,0.0,0.0,0.0,0.0,0.0,0.0,0.0,0.0,0.0,0.0,0.0,0.0,0.0,0.0,0.0,0.0,0.0,0.0,0.0,0.0,0.0,0.0,0.0,0.0,0.0,0.0,0.0,0.0,0.0,0.0,0.0,0.0,1.9356,2.0833,2.0452,0.0,2.1908,0.0,0.0,0.0,0.0,0.0,0.0,0.0,0.0,0.0,0.0,0.0,0.0,0.0,0.0,0.0,0.0,0.0,0.0,0.0,0.0,0.0,0.0,0.0,0.0,0.0,0.0,0.0,0.0,0.0,0.0,0.0,0.0,0.0,0.0,0.0,0.0,0.0,0.0,0.0,0.0,0.0,0.0,0.0,0.0,0.0,0.0,0.0,0.0,0.0,0.0,0.0,0.0,0.0,0.0,0.0,0.0,0.0,0.0,0.0,0.0,0.0,0.0,0.0,0.0,0.0,0.0,0.0,0.0,0.0,0.0,0.0,0.0,0.0,0.0,0.0,0.0,0.0,0.0,0.0,0.0,0.0,0.0,0.0,0.0,0.0,0.0,0.0,0.0,0.0,0.0,0.0,0.0,0.0,0.0,0.0,0.0,0.0,0.0,0.0,0.0,0.0,0.0,0.0,0.0,0.0,0.0,0.0,0.0,0.0,0.0,1.9744,2.0851,2.1424,2.1977,0.0,0.0,0.0,0.0,0.0,0.0,0.0,0.0,0.0,0.0,0.0,0.0,0.0,0.0,0.0,0.0,0.0,0.0,0.0,0.0,0.0,0.0,0.0,0.0,0.0,0.0,0.0,0.0,0.0,0.0,0.0,0.0,0.0,0.0,0.0,0.0,0.0,0.0,0.0,0.0,0.0,0.0,0.0,0.0,0.0,0.0,0.0,0.0,0.0,0.0,0.0,0.0,0.0,0.0,0.0,0.0,0.0,0.0,0.0,0.0,0.0,0.0,0.0,0.0,0.0,0.0,0.0,0.0,0.0,0.0,0.0,0.0,0.0,0.0,0.0,0.0,0.0,0.0,0.0,0.0,0.0,0.0,0.0,0.0,0.0,0.0,0.0,0.0,0.0,0.0,0.0,0.0,0.0,0.0,0.0,0.0,0.0,0.0,0.0,0.0,0.0,0.0,0.0,0.0,0.0,0.0,0.0,0.0,0.0,0.0,1.93,2.0069,2.1111,2.2119,2.2729,2.2882,0.0,0.0,0.0,0.0,0.0,0.0,0.0,0.0,0.0,0.0,0.0,0.0,0.0,0.0,0.0,0.0,0.0,0.0,0.0,0.0,0.0,0.0,0.0,0.0,0.0,0.0,0.0,0.0,0.0,0.0,0.0,0.0,0.0,0.0,0.0,0.0,0.0,0.0,0.0,0.0,0.0,0.0,0.0,0.0,0.0,0.0,0.0,0.0,0.0,0.0,0.0,0.0,0.0,0.0,0.0,0.0,0.0,0.0,0.0,0.0,0.0,0.0,0.0,0.0,0.0,0.0,0.0,0.0,0.0,0.0,0.0,0.0,0.0,0.0,0.0,0.0,0.0,0.0,0.0,0.0,0.0,0.0,0.0,0.0,0.0,0.0,0.0,0.0,0.0,0.0,0.0,0.0,0.0,0.0,0.0,0.0,0.0,0.0,0.0,0.0,0.0,0.0,0.0,0.0,0.0,0.0,0.0,0.0,1.9378,1.9564,2.0369,2.1864,2.2118,2.2432,0.0,0.0,0.0,0.0,0.0,0.0,0.0,0.0,0.0,0.0,0.0,0.0,0.0,0.0,0.0,0.0,0.0,0.0,0.0,0.0,0.0,0.0,0.0,0.0,0.0,0.0,0.0,0.0,0.0,0.0,0.0,0.0,0.0,0.0,0.0,0.0,0.0,0.0,0.0,0.0,0.0,0.0,0.0,0.0,0.0,0.0,0.0,0.0,0.0,0.0,0.0,0.0,0.0,0.0,0.0,0.0,0.0,0.0,0.0,0.0,0.0,0.0,0.0,0.0,0.0,0.0,0.0,0.0,0.0,0.0,0.0,0.0,0.0,0.0,0.0,0.0,0.0,0.0,0.0,0.0,0.0,0.0,0.0,0.0,0.0,0.0,0.0,0.0,0.0,0.0,0.0,0.0,0.0,0.0,0.0,0.0,0.0,0.0,0.0,0.0,0.0,0.0,0.0,0.0,0.0,0.0,0.0,0.0,0.0,1.9484,2.047,2.1325,2.19,2.2189,2.2412,0.0,0.0,0.0,0.0,0.0,0.0,0.0,0.0,0.0,0.0,0.0,0.0,0.0,0.0,0.0,0.0,0.0,0.0,0.0,0.0,0.0,0.0,0.0,0.0,0.0,0.0,0.0,0.0,0.0,0.0,0.0,0.0,0.0,0.0,0.0,0.0,0.0,0.0,0.0,0.0,0.0,0.0,0.0,0.0,0.0,0.0,0.0,0.0,0.0,0.0,0.0,0.0,0.0,0.0,0.0,0.0,0.0,0.0,0.0,0.0,0.0,0.0,0.0,0.0,0.0,0.0,0.0,0.0,0.0,0.0,0.0,0.0,0.0,0.0,0.0,0.0,0.0,0.0,0.0,0.0,0.0,0.0,0.0,0.0,0.0,0.0,0.0,0.0,0.0,0.0,0.0,0.0,0.0,0.0,0.0,0.0,0.0,0.0,0.0,0.0,0.0,0.0,0.0,0.0,0.0,0.0,0.0,0.0,0.0,1.9881,0.0,2.1842,2.1897,2.2217,2.2426,0.0,0.0,0.0,0.0,0.0,0.0,0.0,0.0,0.0,0.0,0.0,0.0,0.0,0.0,0.0,0.0,0.0,0.0,0.0,0.0,0.0,0.0,0.0,0.0,0.0,0.0,0.0,0.0,0.0,0.0,0.0,0.0,0.0,0.0,0.0,0.0,0.0,0.0,0.0,0.0,0.0,0.0,0.0,0.0,0.0,0.0,0.0,0.0,0.0,0.0,0.0,0.0,0.0,0.0,0.0,0.0,0.0,0.0,0.0,0.0,0.0,0.0,0.0,0.0,0.0,0.0,0.0,0.0,0.0,0.0,0.0,0.0,0.0,0.0,0.0,0.0,0.0,0.0,0.0,0.0,0.0,0.0,0.0,0.0,0.0,0.0,0.0,0.0,0.0,0.0,0.0,0.0,0.0,0.0,0.0,0.0,0.0,0.0,0.0,0.0,0.0,0.0,0.0,0.0,0.0,0.0,0.0,0.0,1.9147,2.0645,2.1407,2.1842,2.1923,2.2154,2.2405,0.0,0.0,0.0,0.0,0.0,0.0,0.0,0.0,0.0,0.0,0.0,0.0,0.0,0.0,0.0,0.0,0.0,0.0,0.0,0.0,0.0,0.0,0.0,0.0,0.0,0.0,0.0,0.0,0.0,0.0,0.0,0.0,0.0,0.0,0.0,0.0,0.0,0.0,0.0,0.0,0.0,0.0,0.0,0.0,0.0,0.0,0.0,0.0,0.0,0.0,0.0,0.0,0.0,0.0,0.0,0.0,0.0,0.0,0.0,0.0,0.0,0.0,0.0,0.0,0.0,0.0,0.0,0.0,0.0,0.0,0.0,0.0,0.0,0.0,0.0,0.0,0.0,0.0,0.0,0.0,0.0,0.0,0.0,0.0,0.0,0.0,0.0,0.0,0.0,0.0,0.0,0.0,0.0,0.0,0.0,0.0,0.0,0.0,0.0,0.0,0.0,0.0,0.0,0.0,0.0,0.0,0.0,0.0,0.0,2.1433,2.1672,2.2052,2.2572,2.2234,2.2332,0.0,0.0,0.0,0.0,0.0,0.0,0.0,0.0,0.0,0.0,0.0,0.0,0.0,0.0,0.0,0.0,0.0,0.0,0.0,0.0,0.0,0.0,0.0,0.0,0.0,0.0,0.0,0.0,0.0,0.0,0.0,0.0,0.0,0.0,0.0,0.0,0.0,0.0,0.0,0.0,0.0,0.0,0.0,0.0,0.0,0.0,0.0,0.0,0.0,0.0,0.0,0.0,0.0,0.0,0.0,0.0,0.0,0.0,0.0,0.0,0.0,0.0,0.0,0.0,0.0,0.0,0.0,0.0,0.0,0.0,0.0,0.0,0.0,0.0,0.0,0.0,0.0,0.0,0.0,0.0,0.0,0.0,0.0,0.0,0.0,0.0,0.0,0.0,0.0,0.0,0.0,0.0,0.0,0.0,0.0,0.0,0.0,0.0,0.0,0.0,0.0,0.0,0.0,0.0,0.0,0.0,0.0,0.0,0.0,2.3107,2.2812,2.2965,2.3678,2.3456,2.3474,2.368,0.0,0.0,0.0,0.0,0.0,0.0,0.0,0.0,0.0,0.0,0.0,0.0,0.0,0.0,0.0,0.0,0.0,0.0,0.0,0.0,0.0,0.0,0.0,0.0,0.0,0.0,0.0,0.0,0.0,0.0,0.0,0.0,0.0,0.0,0.0,0.0,0.0,0.0,0.0,0.0,0.0,0.0,0.0,0.0,0.0,0.0,0.0,0.0,0.0,0.0,0.0,0.0,0.0,0.0,0.0,0.0,0.0,0.0,0.0,0.0,0.0,0.0,0.0,0.0,0.0,0.0,0.0,0.0,0.0,0.0,0.0,0.0,0.0,0.0,0.0,0.0,0.0,0.0,0.0,0.0,0.0,0.0,0.0,0.0,0.0,0.0,0.0,0.0,0.0,0.0,0.0,0.0,0.0,0.0,0.0,0.0,0.0,0.0,0.0,0.0,0.0,0.0,0.0,0.0,0.0,0.0,0.0,0.0,2.5564,2.4763,2.4663,2.531,2.5578,2.5451,0.0,0.0,0.0,0.0,0.0,0.0,0.0,0.0,0.0,0.0,0.0,0.0,0.0,0.0,0.0,0.0,0.0,0.0,0.0,0.0,0.0,0.0,0.0,0.0,0.0,0.0,0.0,0.0,0.0,0.0,0.0,0.0,0.0,0.0,0.0,0.0,0.0,0.0,0.0,0.0,0.0,0.0,0.0,0.0,0.0,0.0,0.0,0.0,0.0,0.0,0.0,0.0,0.0,0.0,0.0,0.0,0.0,0.0,0.0,0.0,0.0,0.0,0.0,0.0,0.0,0.0,0.0,0.0,0.0,0.0,0.0,0.0,0.0,0.0,0.0,0.0,0.0,0.0,0.0,0.0,0.0,0.0,0.0,0.0,0.0,0.0,0.0,0.0,0.0,0.0,0.0,0.0,0.0,0.0,0.0,0.0,0.0,0.0,0.0,0.0,0.0,0.0,0.0,0.0,0.0,0.0,0.0,0.0,0.0,2.7489,2.794,2.8076,2.7891,2.6209,2.5506,0.0,0.0,0.0,0.0,0.0,0.0,0.0,0.0,0.0,0.0,0.0,0.0,0.0,0.0,0.0,0.0,0.0,0.0,0.0,0.0,0.0,0.0,0.0,0.0,0.0,0.0,0.0,0.0,0.0,0.0,0.0,0.0,0.0,0.0,0.0,0.0,0.0,0.0,0.0,0.0,0.0,0.0,0.0,0.0,0.0,0.0,0.0,0.0,0.0,0.0,0.0,0.0,0.0,0.0,0.0,0.0,0.0,0.0,0.0,0.0,0.0,0.0,0.0,0.0,0.0,0.0,0.0,0.0,0.0,0.0,0.0,0.0,0.0,0.0,0.0,0.0,0.0,0.0,0.0,0.0,0.0,0.0,0.0,0.0,0.0,0.0,0.0,0.0,0.0,0.0,0.0,0.0,0.0,0.0,0.0,0.0,0.0,0.0,0.0,0.0,0.0,0.0,0.0,0.0,0.0,0.0,0.0,0.0,2.7103,2.8953,3.0346,3.1194,3.1434,2.8979,2.7423,0.0,0.0,0.0,0.0,0.0,0.0,0.0,0.0,0.0,0.0,0.0,0.0,0.0,0.0,0.0,0.0,0.0,0.0,0.0,0.0,0.0,0.0,0.0,0.0,0.0,0.0,0.0,0.0,0.0,0.0,0.0,0.0,0.0,0.0,0.0,0.0,0.0,0.0,0.0,0.0,0.0,0.0,0.0,0.0,0.0,0.0,0.0,0.0,0.0,0.0,0.0,0.0,0.0,0.0,0.0,0.0,0.0,0.0,0.0,0.0,0.0,0.0,0.0,0.0,0.0,0.0,0.0,0.0,0.0,0.0,0.0,0.0,0.0,0.0,0.0,0.0,0.0,0.0,0.0,0.0,0.0,0.0,0.0,0.0,0.0,0.0,0.0,0.0,0.0,0.0,0.0,0.0,0.0,0.0,0.0,0.0,0.0,0.0,0.0,0.0,0.0,0.0,0.0,0.0,0.0,0.0,0.0,0.0,2.948,3.002,3.2108,3.3776,3.4774,3.236,3.0089,0.0,0.0,0.0,0.0,0.0,0.0,0.0,0.0,0.0,0.0,0.0,0.0,0.0,0.0,0.0,0.0,0.0,0.0,0.0,0.0,0.0,0.0,0.0,0.0,0.0,0.0,0.0,0.0,0.0,0.0,0.0,0.0,0.0,0.0,0.0,0.0,0.0,0.0,0.0,0.0,0.0,0.0,0.0,0.0,0.0,0.0,0.0,0.0,0.0,0.0,0.0,0.0,0.0,0.0,0.0,0.0,0.0,0.0,0.0,0.0,0.0,0.0,0.0,0.0,0.0,0.0,0.0,0.0,0.0,0.0,0.0,0.0,0.0,0.0,0.0,0.0,0.0,0.0,0.0,0.0,0.0,0.0,0.0,0.0,0.0,0.0,0.0,0.0,0.0,0.0,0.0,0.0,0.0,0.0,0.0,0.0,0.0,0.0,0.0,0.0,0.0,0.0,0.0,0.0,0.0,0.0,0.0,0.0,2.951,3.1339,3.3082,3.4107,3.4405,3.1815,3.0206,0.0,0.0,0.0,0.0,0.0,0.0,0.0,0.0,0.0,0.0,0.0,0.0,0.0,0.0,0.0,0.0,0.0,0.0,0.0,0.0,0.0,0.0,0.0,0.0,0.0,0.0,0.0,0.0,0.0,0.0,0.0,0.0,0.0,0.0,0.0,0.0,0.0,0.0,0.0,0.0,0.0,0.0,0.0,0.0,0.0,0.0,0.0,0.0,3.4503,0.0,0.0,0.0,0.0,0.0,0.0,0.0,0.0,0.0,0.0,0.0,0.0,0.0,0.0,0.0,0.0,0.0,0.0,0.0,0.0,0.0,0.0,0.0,0.0,0.0,0.0,0.0,0.0,0.0,0.0,0.0,0.0,0.0,0.0,0.0,0.0,0.0,0.0,0.0,0.0,0.0,0.0,0.0,0.0,0.0,0.0,0.0,0.0,0.0,0.0,0.0,0.0,0.0,0.0,0.0,0.0,0.0,0.0,0.0,3.0225,3.1763,3.3806,3.4947,3.5064,3.2833,3.1155,0.0,0.0,0.0,0.0,0.0,0.0,0.0,0.0,0.0,0.0,0.0,0.0,0.0,0.0,0.0,0.0,0.0,0.0,0.0,0.0,0.0,0.0,0.0,0.0,0.0,0.0,0.0,0.0,0.0,0.0,0.0,0.0,0.0,0.0,0.0,0.0,0.0,0.0,0.0,0.0,0.0,0.0,0.0,0.0,0.0,0.0,0.0,0.0,0.0,0.0,0.0,0.0,0.0,0.0,0.0,0.0,0.0,0.0,0.0,0.0,0.0,0.0,0.0,0.0,0.0,0.0,0.0,0.0,0.0,0.0,0.0,0.0,0.0,0.0,0.0,0.0,0.0,0.0,0.0,0.0,0.0,0.0,0.0,0.0,0.0,0.0,0.0,0.0,0.0,0.0,0.0,0.0,0.0,0.0,0.0,0.0,0.0,0.0,0.0,0.0,0.0,0.0,0.0,0.0,0.0,0.0,0.0,2.9303,3.1108,3.2018,3.4342,3.5723,3.594,3.413,3.2145,3.0152,0.0,0.0,0.0,0.0,0.0,0.0,0.0,0.0,0.0,0.0,0.0,0.0,0.0,0.0,0.0,0.0,0.0,0.0,0.0,0.0,0.0,0.0,0.0,0.0,0.0,0.0,0.0,0.0,0.0,0.0,0.0,0.0,0.0,0.0,0.0,0.0,0.0,0.0,3.1044,3.2517,0.0,0.0,0.0,0.0,0.0,0.0,0.0,0.0,3.5254,0.0,0.0,0.0,0.0,0.0,0.0,0.0,0.0,0.0,0.0,0.0,0.0,0.0,0.0,0.0,0.0,0.0,0.0,0.0,0.0,0.0,0.0,0.0,0.0,0.0,0.0,0.0,0.0,0.0,0.0,0.0,0.0,0.0,0.0,0.0,0.0,0.0,0.0,0.0,0.0,0.0,0.0,0.0,0.0,0.0,0.0,0.0,0.0,0.0,0.0,0.0,0.0,0.0,0.0,0.0,0.0,2.8011,2.9802,3.1352,3.2706,3.4544,3.5486,3.5396,3.3717,3.2134,3.079,0.0,0.0,0.0,0.0,0.0,0.0,0.0,0.0,0.0,0.0,0.0,0.0,0.0,0.0,0.0,0.0,0.0,0.0,0.0,0.0,0.0,0.0,0.0,0.0,0.0,0.0,0.0,0.0,0.0,0.0,0.0,0.0,0.0,0.0,0.0,0.0,0.0,0.0,0.0,3.3233,3.3966,0.0,0.0,0.0,0.0,0.0,0.0,0.0,0.0,3.668,0.0,0.0,0.0,0.0,0.0,0.0,0.0,0.0,0.0,0.0,0.0,0.0,0.0,0.0,0.0,0.0,0.0,0.0,0.0,0.0,0.0,0.0,0.0,0.0,0.0,0.0,0.0,0.0,0.0,0.0,0.0,0.0,0.0,0.0,0.0,0.0,0.0,0.0,0.0,0.0,0.0,0.0,0.0,0.0,0.0,0.0,0.0,0.0,0.0,0.0,0.0,0.0,0.0,0.0,0.0,2.8376,3.0291,3.185,3.3004,3.4622,3.5509,3.5532,3.4082,3.2753,0.0,0.0,0.0,0.0,0.0,0.0,0.0,0.0,0.0,0.0,0.0,0.0,0.0,0.0,0.0,0.0,0.0,0.0,0.0,0.0,0.0,0.0,0.0,0.0,0.0,0.0,0.0,0.0,0.0,0.0,0.0,0.0,0.0,0.0,0.0,0.0,0.0,0.0,0.0,0.0,3.4244,3.5287,3.6559,0.0,0.0,0.0,0.0,0.0,0.0,3.7588,3.786,0.0,0.0,0.0,0.0,0.0,0.0,0.0,0.0,0.0,0.0,0.0,0.0,0.0,0.0,0.0,0.0,0.0,0.0,0.0,0.0,0.0,0.0,0.0,0.0,0.0,0.0,0.0,0.0,0.0,0.0,0.0,0.0,0.0,0.0,0.0,0.0,0.0,0.0,0.0,0.0,0.0,0.0,0.0,0.0,0.0,0.0,0.0,0.0,0.0,0.0,0.0,0.0,0.0,0.0,0.0,2.8476,3.0583,3.2177,3.3221,3.4677,3.5587,3.5887,3.447,3.3234,0.0,0.0,0.0,0.0,0.0,0.0,0.0,0.0,0.0,0.0,0.0,0.0,0.0,0.0,0.0,0.0,0.0,0.0,0.0,0.0,0.0,0.0,0.0,0.0,0.0,0.0,0.0,0.0,0.0,0.0,0.0,0.0,0.0,0.0,0.0,0.0,0.0,0.0,0.0,0.0,0.0,3.6853,3.7868,3.7779,0.0,0.0,0.0,0.0,3.7977,3.8868,0.0,0.0,0.0,0.0,0.0,0.0,0.0,0.0,0.0,0.0,0.0,0.0,0.0,0.0,0.0,0.0,0.0,0.0,0.0,0.0,0.0,0.0,0.0,0.0,0.0,0.0,0.0,0.0,0.0,0.0,0.0,0.0,0.0,0.0,0.0,0.0,0.0,0.0,0.0,0.0,0.0,0.0,0.0,0.0,0.0,0.0,0.0,0.0,0.0,0.0,0.0,0.0,0.0,0.0,0.0,0.0,2.8695,3.0378,3.2022,3.3522,3.4634,3.5608,3.6284,3.4409,3.3124,0.0,0.0,0.0,0.0,0.0,0.0,0.0,0.0,0.0,0.0,0.0,0.0,0.0,0.0,0.0,0.0,0.0,0.0,0.0,0.0,0.0,0.0,0.0,0.0,0.0,0.0,0.0,0.0,0.0,0.0,0.0,0.0,0.0,0.0,0.0,0.0,0.0,0.0,0.0,0.0,0.0,3.7904,3.951,3.8508,3.7874,0.0,0.0,3.8929,3.9528,4.1116,0.0,0.0,0.0,0.0,0.0,0.0,0.0,0.0,0.0,0.0,0.0,0.0,0.0,0.0,0.0,0.0,0.0,0.0,0.0,0.0,0.0,0.0,0.0,0.0,0.0,0.0,0.0,0.0,0.0,0.0,0.0,0.0,0.0,0.0,0.0,0.0,0.0,0.0,0.0,0.0,0.0,0.0,0.0,0.0,0.0,0.0,0.0,0.0,0.0,0.0,0.0,0.0,0.0,0.0,0.0,2.9628,2.9997,3.1879,3.3368,3.4304,3.5148,3.5897,3.6498,3.4805,3.3688,0.0,0.0,0.0,0.0,0.0,0.0,0.0,0.0,0.0,0.0,0.0,0.0,0.0,0.0,0.0,0.0,0.0,0.0,0.0,0.0,0.0,0.0,0.0,0.0,0.0,0.0,0.0,0.0,0.0,0.0,0.0,0.0,0.0,0.0,0.0,0.0,0.0,0.0,0.0,0.0,0.0,0.0,4.0104,4.0407,0.0,0.0,0.0,4.1425,4.0801,0.0,0.0,0.0,0.0,0.0,0.0,0.0,0.0,0.0,0.0,0.0,0.0,0.0,0.0,0.0,0.0,0.0,0.0,0.0,0.0,0.0,0.0,0.0,0.0,0.0,0.0,0.0,0.0,0.0,0.0,0.0,0.0,0.0,0.0,0.0,0.0,0.0,0.0,0.0,0.0,0.0,0.0,0.0,0.0,0.0,0.0,0.0,0.0,0.0,0.0,0.0,0.0,0.0,0.0,0.0,0.0,0.0,3.1155,3.3176,3.4559,3.5176,3.5718,3.6259,3.6909,3.5563,0.0,0.0,0.0,0.0,0.0,0.0,0.0,0.0,0.0,0.0,0.0,0.0,0.0,0.0,0.0,0.0,0.0,0.0,0.0,0.0,0.0,0.0,0.0,0.0,0.0,0.0,0.0,2.9719,0.0,0.0,0.0,0.0,0.0,0.0,0.0,0.0,0.0,0.0,0.0,0.0,0.0,0.0,4.0948,4.0999,4.1898,4.2709,0.0,0.0,4.3256,4.2232,4.361,4.3797,0.0,0.0,0.0,0.0,0.0,0.0,0.0,0.0,0.0,0.0,0.0,0.0,0.0,0.0,0.0,0.0,0.0,0.0,0.0,0.0,0.0,0.0,0.0,0.0,0.0,0.0,0.0,0.0,0.0,0.0,0.0,0.0,0.0,0.0,0.0,0.0,0.0,0.0,0.0,0.0,0.0,0.0,0.0,0.0,0.0,0.0,0.0,0.0,0.0,0.0,0.0,0.0,0.0,0.0,3.1513,3.1723,3.3461,3.4923,3.5985,3.6055,3.6674,3.7843,3.6845,3.6059,0.0,0.0,0.0,0.0,0.0,0.0,0.0,0.0,0.0,0.0,0.0,0.0,0.0,0.0,0.0,0.0,0.0,0.0,0.0,0.0,0.0,0.0,0.0,0.0,0.0,0.0,0.0,0.0,0.0,0.0,0.0,0.0,0.0,0.0,0.0,0.0,0.0,0.0,0.0,0.0,0.0,4.2649,4.2619,4.2244,4.2561,0.0,4.369,4.3362,4.41,4.5683,4.57,4.2155,0.0,0.0,0.0,0.0,0.0,0.0,0.0,0.0,0.0,0.0,0.0,0.0,0.0,0.0,0.0,0.0,0.0,0.0,0.0,0.0,0.0,0.0,0.0,0.0,0.0,0.0,0.0,0.0,0.0,0.0,0.0,0.0,0.0,0.0,0.0,0.0,0.0,0.0,0.0,0.0,0.0,0.0,0.0,0.0,0.0,0.0,0.0,0.0,0.0,0.0,0.0,0.0,0.0,3.3053,3.3145,3.5377,3.688,3.7491,3.7958,3.8318,3.8546,3.7658,3.6604,0.0,0.0,0.0,0.0,0.0,0.0,0.0,0.0,0.0,0.0,0.0,0.0,0.0,0.0,0.0,0.0,0.0,0.0,0.0,0.0,0.0,0.0,0.0,0.0,0.0,0.0,0.0,0.0,3.3361,3.4312,3.4874,0.0,0.0,0.0,0.0,0.0,0.0,0.0,0.0,0.0,0.0,4.3352,4.3888,4.4647,0.0,0.0,4.5461,4.5334,4.4632,4.5619,4.5645,4.3142,4.3043,0.0,0.0,0.0,0.0,0.0,0.0,0.0,0.0,0.0,0.0,0.0,0.0,0.0,0.0,0.0,0.0,0.0,0.0,0.0,0.0,0.0,0.0,0.0,0.0,0.0,0.0,0.0,0.0,0.0,0.0,0.0,0.0,0.0,0.0,0.0,0.0,0.0,0.0,0.0,0.0,0.0,0.0,0.0,0.0,0.0,0.0,0.0,0.0,0.0,0.0,0.0,0.0,3.4223,3.4524,3.6916,3.8439,3.8999,3.9436,3.9579,3.9372,3.8825,3.7766,0.0,0.0,0.0,0.0,0.0,0.0,0.0,0.0,0.0,0.0,0.0,0.0,0.0,0.0,0.0,0.0,0.0,0.0,0.0,0.0,0.0,0.0,0.0,0.0,0.0,0.0,0.0,0.0,3.4851,3.564,3.6308,0.0,0.0,0.0,0.0,0.0,0.0,0.0,0.0,0.0,0.0,4.4,4.458,4.5545,4.6126,4.6051,4.6348,4.6323,4.5703,4.5979,4.5802,4.4503,0.0,0.0,0.0,0.0,0.0,0.0,0.0,0.0,0.0,0.0,0.0,0.0,0.0,0.0,0.0,0.0,0.0,0.0,0.0,0.0,0.0,0.0,0.0,0.0,0.0,0.0,0.0,2.3882,0.0,0.0,2.3041,0.0,0.0,0.0,0.0,0.0,0.0,0.0,0.0,0.0,0.0,0.0,0.0,0.0,0.0,0.0,0.0,0.0,0.0,0.0,0.0,0.0,0.0,3.485,3.5658,3.7771,3.9305,4.032,4.0189,4.0217,4.0447,4.0393,3.9787,3.8595,0.0,0.0,0.0,0.0,0.0,0.0,0.0,0.0,0.0,0.0,0.0,0.0,0.0,0.0,0.0,0.0,0.0,0.0,0.0,0.0,0.0,0.0,0.0,0.0,0.0,0.0,3.5916,3.664,3.7192,0.0,0.0,0.0,0.0,0.0,0.0,0.0,0.0,0.0,4.2888,4.3921,4.4592,4.4636,4.4245,4.4715,4.6193,4.5791,4.5895,4.7578,4.7094,4.644,0.0,0.0,0.0,0.0,0.0,0.0,0.0,0.0,0.0,0.0,0.0,0.0,0.0,0.0,0.0,0.0,0.0,0.0,0.0,0.0,0.0,0.0,0.0,0.0,0.0,0.0,0.0,2.4698,2.4398,0.0,0.0,0.0,0.0,0.0,0.0,0.0,0.0,0.0,0.0,0.0,3.1449,3.1975,0.0,0.0,0.0,0.0,0.0,0.0,0.0,0.0,0.0,0.0,0.0,0.0,3.6306,3.6792,3.932,4.0832,4.1178,4.1595,4.1595,4.126,4.1205,4.0527,3.9058,0.0,0.0,0.0,0.0,0.0,0.0,0.0,0.0,0.0,0.0,0.0,0.0,0.0,0.0,0.0,0.0,0.0,0.0,0.0,0.0,0.0,0.0,0.0,0.0,0.0,3.7866,0.0,0.0,0.0,0.0,0.0,0.0,0.0,0.0,0.0,0.0,4.2724,4.3648,4.3515,4.4402,4.5272,4.5839,4.6773,4.7412,0.0,0.0,0.0,0.0,0.0,0.0,0.0,0.0,0.0,0.0,0.0,0.0,0.0,0.0,4.7338,4.5587,4.527,4.5413,4.5965,0.0,0.0,0.0,0.0,0.0,0.0,0.0,0.0,0.0,0.0,0.0,0.0,0.0,0.0,2.6769,2.6461,2.6851,0.0,0.0,0.0,0.0,0.0,0.0,0.0,0.0,3.1591,3.2635,3.3884,3.4433,3.507,3.5794,3.6088,3.518,0.0,0.0,0.0,0.0,0.0,0.0,0.0,0.0,3.7388,3.7827,4.0297,4.1747,4.2064,4.2438,4.2465,4.2064,4.1775,4.1161,4.0077,3.9237,3.8402,0.0,0.0,0.0,0.0,0.0,0.0,0.0,0.0,0.0,0.0,0.0,0.0,0.0,0.0,0.0,0.0,0.0,0.0,0.0,0.0,0.0,0.0,0.0,3.9445,0.0,0.0,0.0,0.0,0.0,0.0,0.0,0.0,0.0,4.2234,4.3471,4.4379,4.4337,4.5152,4.6056,4.695,0.0,0.0,0.0,0.0,0.0,0.0,0.0,4.9138,4.9749,4.96,4.9702,5.0529,5.1178,5.1635,5.1668,0.0,0.0,4.8529,4.8308,4.8605,4.8854,4.9411,4.9931,5.0113,5.0371,5.1024,0.0,0.0,0.0,0.0,2.8934,0.0,0.0,0.0,3.0141,3.0152,0.0,3.0087,0.0,0.0,0.0,0.0,3.0056,3.0725,0.0,0.0,3.5054,3.622,3.6853,3.7092,3.7326,3.7521,3.6672,3.6568,3.7187,3.7161,0.0,0.0,0.0,0.0,0.0,0.0,3.8061,3.8974,4.075,4.2074,4.2882,4.2869,4.2823,4.2846,4.2148,4.1741,4.1669,4.0221,3.9319,3.9283,3.7753,0.0,0.0,0.0,0.0,0.0,0.0,0.0,0.0,0.0,0.0,0.0,0.0,0.0,0.0,0.0,0.0,0.0,0.0,0.0,0.0,4.0514,0.0,0.0,0.0,0.0,0.0,0.0,0.0,0.0,0.0,4.4434,4.3074,4.3465,4.4255,4.5496,0.0,0.0,0.0,0.0,4.9296,4.9481,5.0192,5.1097,5.2003,5.1414,5.1395,5.309,0.0,0.0,5.3451,5.3626,5.3742,5.3707,5.3815,5.3112,5.1491,5.1645,5.1779,5.1129,5.2239,5.2894,5.2362,5.2933,5.3645,3.3182,0.0,0.0,0.0,0.0,3.0962,3.1755,3.3172,3.3695,3.3339,3.2456,3.2882,0.0,0.0,0.0,0.0,0.0,0.0,3.4009,3.6012,3.66,3.7624,3.9009,3.9178,3.9419,3.9772,3.9619,3.9802,4.0155,4.0278,3.9066,3.6564,0.0,0.0,0.0,0.0,3.9957,4.1378,4.2142,4.2936,4.3761,4.3189,4.2899,4.2892,4.2674,4.2566,4.2556,4.2103,4.1559,4.0934,4.0447,0.0,0.0,0.0,0.0,0.0,0.0,0.0,0.0,0.0,0.0,0.0,0.0,0.0,0.0,0.0,0.0,0.0,0.0,0.0,4.2887,4.3318,4.3465,0.0,0.0,0.0,0.0,0.0,0.0,0.0,0.0,0.0,4.7353,4.6941,4.7066,0.0,0.0,4.8193,4.9711,5.0125,5.0514,5.1248,5.252,0.0,5.3881,5.4259,5.4636,5.5156,5.5509,5.5874,5.6179,5.6725,5.7345,5.7848,5.8002,5.7985,5.8026,5.6264,5.5061,5.5323,5.6189,5.7017,5.7349,5.7582,5.8087,3.7512,3.5081,3.3671,3.3426,3.4011,3.3934,3.4621,3.5847,3.6378,3.6085,3.5304,3.5723,3.5214,3.4022,3.3682,0.0,0.0,0.0,3.6318,3.8218,3.8484,3.9308,4.051,4.0712,4.0983,4.1298,4.1349,4.1592,4.2055,4.1664,4.0677,3.9027,0.0,3.8417,3.9035,4.0074,4.1305,4.2616,4.317,4.3799,4.4548,4.4123,4.387,4.3833,4.387,4.3833,4.3833,4.387,4.3623,4.3095,4.276,4.1957,0.0,0.0,0.0,0.0,0.0,0.0,0.0,0.0,0.0,0.0,0.0,3.8675,3.81,0.0,0.0,0.0,4.2551,4.3603,4.4508,4.448,0.0,0.0,0.0,0.0,0.0,0.0,0.0,4.7065,4.7984,4.8874,4.9705,4.9657,4.9734,5.0268,4.9923,5.0221,5.1977,0.0,5.314,5.4044,5.5302,5.6197,5.6323,5.6753,5.7102,5.7098,5.7529,5.8044,5.8428,5.8893,5.9514,6.0251,6.048,6.0756,6.1613,6.0298,5.9022,5.8889,5.9741,6.0548,6.078,6.0985,6.1582,4.1637,4.0125,3.7547,3.6836,3.7443,3.7509,3.7798,3.8245,3.8446,3.8447,3.8263,3.8402,3.8425,3.8322,3.7626,0.0,3.7396,3.778,3.8716,4.0096,4.0534,4.1036,4.1584,4.1846,4.2092,4.2287,4.2102,4.243,4.3104,4.2049,4.1736,4.2257,4.2078,4.1458,4.0441,4.1314,4.2285,4.321,4.3994,4.4711,4.5302,4.5339,4.5329,4.5302,4.5349,4.5322,4.5349,4.5359,4.5359,4.5332,4.4633,4.4256,4.4278,0.0,0.0,0.0,0.0,0.0,0.0,0.0,0.0,0.0,0.0,0.0,0.0,0.0,0.0,4.5185,4.5877,0.0,4.5513,4.482,0.0,0.0,0.0,4.6217,4.7744,4.8107,4.821,4.821,0.0,0.0,5.0801,5.1751,5.2334,5.2314,5.2204,5.2806,5.4588,5.5532,5.6416,5.7134,5.8131,5.8727,5.8732,5.8954,5.9148,5.9205,5.9183,5.9666,6.0377,6.0544,6.0903,6.175,6.1801,6.2106,6.2968,6.3654,6.3764,6.2009,6.2838,6.3632,6.2979,6.3303,6.3999,4.2755,4.248,4.123,4.0573,4.0237,3.9658,4.018,4.1278,4.0747,4.0169,3.9626,3.9692,3.9434,3.892,3.8831,3.9161,3.9771,3.9856,4.0542,4.1636,4.1859,4.2129,4.2428,4.2577,4.2777,4.2948,4.291,4.3312,4.4053,4.3787,4.4014,4.47,4.4699,4.3924,4.2532,4.2732,4.3843,4.5872,4.5501,4.5364,4.5518,4.5508,4.5544,4.5518,4.564,4.5697,4.5661,4.5727,4.5764,4.5764,4.559,4.5205,4.4655,4.3657,0.0,0.0,0.0,0.0,0.0,0.0,0.0,0.0,0.0,4.2195,4.1444,0.0,4.4034,0.0,4.6025,4.7486,4.7899,4.793,0.0,0.0,4.7463,4.7532,4.7959,4.9161,4.9959,4.9997,5.1376,5.2647,5.3547,5.4446,5.529,5.5887,5.4962,5.5029,5.7283,5.7366,5.7465,5.8408,5.9262,5.9784,6.0002,6.0981,6.1797,6.1849,6.2361,6.2908,6.3118,6.316,6.3429,6.4211,6.4402,6.4717,6.5501,6.5884,6.6108,6.6171,6.6074,6.5781,6.5476,6.557,6.5654,4.4422,4.4202,4.375,4.359,4.351,4.2203,4.204,4.2645,4.27,4.2452,4.2018,4.2116,4.1923,4.1566,4.1619,4.1707,4.1866,4.2368,4.2737,4.2996,4.3556,4.3884,4.399,4.4084,4.4169,4.4263,4.4272,4.4519,4.5003,4.4966,4.5194,4.5717,4.5716,4.5424,4.4922,4.4483,4.5111,4.6779,4.6801,4.6795,4.6881,4.6843,4.6843,4.6844,4.691,4.6976,4.7068,4.7077,4.7113,4.7113,4.7104,4.691,4.6476,4.5701,4.4943,0.0,0.0,0.0,0.0,0.0,0.0,0.0,0.0,0.0,0.0,0.0,4.5533,4.5236,4.709,4.8342,4.8351,4.8466,4.8553,4.8508,4.8905,4.9281,4.966,5.0901,5.1759,5.1814,5.3008,5.4076,5.4589,5.5848,5.6967,5.7808,5.7546,5.7771,5.8912,5.8902,5.8992,5.9876,6.0738,6.1453,6.1854,6.2749,6.3392,6.3473,6.384,6.4246,6.4636,6.4714,6.4987,6.5766,6.5961,6.6234,6.7055,6.7287,6.756,6.822,6.8164,6.7795,6.7684,6.7585,6.7501,4.623,4.5576,4.5457,4.582,4.6345,4.476,4.3832,4.3504,4.4339,4.4643,4.4543,4.4685,4.4717,4.4696,4.4707,4.4359,4.376,4.472,4.4815,4.4249,4.518,4.5623,4.5659,4.5659,4.5623,4.5659,4.5623,4.5753,4.5965,4.5872,4.5955,4.6223,4.6204,4.6562,4.7205,4.6404,4.6328,4.7039,4.7851,4.8362,4.8541,4.842,4.842,4.8477,4.8495,4.8559,4.8705,4.8686,4.8686,4.8686,4.8686,4.8721,4.8764,4.8021,4.7321,0.0,4.5943,0.0,0.0,0.0,0.0,0.0,0.0,0.0,0.0,4.6824,4.7362,4.7655,4.8635,4.8984,4.8356,4.8444,4.8809,4.948,5.0381,5.1219,5.1905,5.2803,5.3378,5.3431,5.4235,5.483,5.5151,5.6582,5.7967,5.881,5.967,6.0169,6.0252,6.0229,6.0493,6.1346,6.2238,6.2827,6.3514,6.4068,6.4413,6.4494,6.4783,6.5001,6.5935,6.6091,6.6289,6.695,6.7182,6.7418,6.8125,6.828,6.8552,6.9369,6.9485,6.9377,6.9142,6.9056,6.9198,4.7123,4.6948,4.6313,4.612,4.6267,4.6553,4.6336,4.5818,4.5353,4.5233,4.5312,4.5391,4.5391,4.5332,4.5391,4.5312,4.5212,4.5406,4.5485,4.5535,4.5737,4.5828,4.5828,4.5828,4.5865,4.5828,4.5828,4.625,4.7022,4.7004,4.7335,4.8015,4.8062,4.8126,4.8209,0.0,0.0,0.0,4.8522,4.8742,4.8803,4.8785,4.882,4.8907,4.8993,0.0,4.9168,4.9233,4.9265,4.9228,4.9265,0.0,0.0,0.0,0.0,0.0,0.0,0.0,0.0,0.0,0.0,0.0,4.6828,4.6817,4.7028,4.7321,4.8117,4.9479,4.9876,5.0253,5.0926,5.16,5.1815,5.1408,5.2157,5.2764,5.2956,5.3778,5.4347,5.4366,5.5195,5.6114,5.6869,5.7955,5.8955,5.9816,6.0739,6.124,6.1277,6.1254,6.1371,6.1601,6.2411,6.2942,6.3104,6.4363,6.5503,6.6129,6.695,6.758,6.8324,6.8558,6.8596,6.8831,6.8907,6.8908,6.9142,6.9141,6.9417,7.0311,7.0469,7.0218,6.9443,6.9304,6.9245,4.9215,4.9178,4.8771,4.8624,0.0,4.9067,4.8826,4.8143,4.728,4.6886,4.6895,4.7011,4.6992,4.6895,4.6981,4.68,4.6442,4.6836,4.6856,4.6627,4.6994,4.7141,4.7095,4.7095,4.7085,4.7095,4.7095,4.7362,4.7868,4.7933,4.82,4.8642,4.9121,4.9333,4.9325,4.984,4.9644,4.875,4.889,4.9039,4.9086,4.9135,4.9193,4.9281,4.9374,0.0,0.0,0.0,0.0,0.0,0.0,0.0,0.0,4.916,0.0,4.8332,4.7966,4.7789,4.7796,4.7857,4.8109,4.8701,4.9163,4.9055,4.8226,4.8641,4.9499,5.0774,5.0938,5.1335,5.2297,5.2796,5.2872,5.2579,5.3315,5.3904,5.3986,5.4727,5.5461,5.5866,5.6071,5.6657,5.804,5.8608,5.9293,6.02,6.0997,6.1569,6.1609,6.163,6.1816,6.2709,6.3195,6.3867,6.4689,6.5441,6.6423,6.7283,6.7837,6.8466,6.9287,6.9443,6.9443,6.9404,6.9443,6.956,6.9951,7.0029,7.0302,7.1083,7.1357,7.1233,7.0735,7.0597,7.0569,5.1156,5.1156,5.1156,5.1156,5.1156,5.1156,5.074,5.0056,4.8974,0.0,0.0,4.8541,4.8596,4.8593,4.8706,4.8384,4.7841,4.8449,4.8311,4.7574,4.8191,4.854,4.8584,4.8584,4.8657,4.8804,4.8804,4.8862,4.9021,4.9095,4.9194,4.9357,5.0029,5.0425,5.048,5.126,5.0933,4.9574,4.9625,4.9739,4.9834,4.9896,4.9981,5.0123,5.013,5.016,5.0232,5.0194,5.0194,5.0194,5.0081,5.0005,5.0005,4.9854,4.9469,4.8789,4.8887,4.9035,4.9187,4.9296,4.977,5.0587,5.1361,5.1214,4.9766,5.033,5.1147,5.2053,5.2135,5.246,5.3267,5.3496,5.3561,5.3497,5.4289,5.4857,5.49,5.5672,5.6492,5.7036,5.6703,5.7036,5.862,5.8914,5.9388,6.0364,6.1164,6.1733,6.1873,6.1787,6.2134,6.3441,6.3881,6.4702,6.607,6.6665,6.714,6.7884,6.828,6.875,6.9453,6.9844,6.9922,7.0039,6.9922,7.0234,7.0781,7.0937,7.1172,7.1836,7.1992,7.1992,7.1986,7.1936,7.1836,5.138,5.1343,5.1343,5.1343,5.138,5.1343,5.1222,5.088,4.9298,4.8587,4.8578,4.8605,4.9012,4.9695,4.9677,4.964,4.9529,4.964,4.9233,4.8412,4.8522,4.8993,4.9658,4.9695,5.0027,5.0655,5.0692,5.0833,5.0999,5.1062,5.1122,5.1226,5.1499,5.1656,5.1665,5.1858,5.1855,5.1721,5.1629,5.1676,5.1858,5.188,5.1961,5.2065,5.2072,5.2144,5.2167,5.2167,5.2174,5.2167,5.1527,5.1147,5.1147,5.0443,4.9987,4.9879,4.9955,5.031,5.1034,5.1172,5.1558,5.2334,5.2575,5.2499,5.2302,5.2384,5.2835,5.3743,5.3793,5.3949,5.4254,5.4906,5.506,5.4574,5.5241,5.5797,5.5801,5.6621,5.7044,5.6626,5.7013,5.779,5.8898,5.9063,5.968,6.0989,6.1515,6.1959,6.2522,6.2173,6.2134,6.2996,6.3824,6.4647,6.5742,6.6445,6.7265,6.8046,6.8867,6.957,7.039,7.1015,7.1406,7.1562,7.1445,7.1562,7.1758,7.1797,7.1836,7.1992,7.1992,7.1992,7.1992,7.1992,7.1953,5.3014,5.2926,5.2979,5.2981,5.2808,5.2344,5.2111,5.1991,5.0693,5.0047,4.9972,5.0065,5.0269,5.0527,5.0564,5.0629,5.0592,5.0592,5.0398,5.0028,4.9991,5.0185,5.0517,5.0554,5.0796,5.1232,5.1296,5.1413,5.1685,5.1782,5.1888,5.2013,5.2544,5.3051,5.3504,5.3581,5.3641,5.3708,5.2726,5.2287,5.2402,5.2437,5.2493,5.2567,5.2529,5.2581,5.2607,5.2614,5.2614,5.2614,5.2227,5.2043,5.2043,5.1656,5.1459,5.1465,5.1523,5.1713,5.2133,5.2195,5.2614,5.3416,5.3529,5.3777,5.4159,5.3356,5.3239,5.414,5.4319,5.46,5.5135,5.5596,5.5697,5.5405,5.6188,5.6567,5.6346,5.7388,5.8072,5.7812,5.8096,5.8882,6.0241,6.0036,6.0182,6.1414,6.1703,6.2187,6.3437,6.2969,6.289,6.4139,6.4765,6.5351,6.6172,6.7031,6.789,6.8711,6.957,7.043,7.1211,7.1797,7.1953,7.1992,7.1992,7.1992,7.1992,7.1992,7.1992,7.1992,7.1992,7.1992,7.1992,7.1992,7.1992,5.4484,5.4325,5.443,5.4363,5.4123,5.3408,5.3164,5.3179,5.2414,5.201,5.1844,5.1565,5.1445,5.1519,5.1528,5.1547,5.162,5.1584,5.1482,5.1369,5.1386,5.1443,5.1574,5.162,5.1794,5.2113,5.2183,5.2328,5.254,5.2651,5.2809,5.3011,5.3599,5.4266,5.4896,5.4992,5.5035,5.4974,5.3708,5.3069,5.3131,5.3178,5.3173,5.3225,5.3231,5.3231,5.3225,5.3231,5.3231,5.3231,5.3034,5.2958,5.2926,5.2729,5.266,5.2666,5.2698,5.28,5.2997,5.327,5.3683,5.4333,5.4446,5.4762,5.5222,5.4285,5.3826,5.4512,5.4759,5.5127,5.5721,5.5938,5.6072,5.6346,5.6981,5.7298,5.7077,5.8251,5.9111,5.9079,5.9188,5.9834,6.0828,6.0808,6.0755,6.1477,6.1718,6.2383,6.3789,6.3672,6.4062,6.5273,6.5742,6.5898,6.6758,6.7383,6.8125,6.8984,6.9805,7.0547,7.1328,7.1758,7.1992,7.1992,7.1992,7.1992,7.1992,7.1992,7.1992,7.1992,7.1992,7.1992,7.1992,7.1992,7.1992,5.4791,5.4662,5.467,5.4597,5.4451,5.4359,5.4322,5.4313,5.4175,5.4146,5.3892,5.2247,5.1943,5.2638,5.254,5.2648,5.2898,5.2799,5.2442,5.1973,5.1953,5.2393,5.3039,5.3201,5.3671,5.4259,5.4242,5.419,5.4329,5.4496,5.4683,5.4843,5.4947,5.4992,5.5099,5.5106,5.5109,5.517,5.5011,5.4941,5.4941,5.4948,5.5019,5.5154,5.511,5.5154,5.5027,5.5148,5.511,5.5071,5.4352,5.3932,5.3887,5.3244,5.2792,5.2824,5.283,5.3142,5.39,5.4709,5.5142,5.5256,5.5298,5.5364,5.5491,5.5488,5.5522,5.5553,5.5604,5.5731,5.5898,5.6037,5.6449,5.7172,5.7542,5.7931,5.8595,5.9576,5.9899,5.9069,5.9729,6.0297,6.0625,6.0569,6.0817,6.1719,6.1758,6.2344,6.3906,6.418,6.4609,6.6015,6.6133,6.6055,6.6719,6.6953,6.7617,6.832,6.9101,7.0078,7.0937,7.1601,7.1992,7.1992,7.1992,7.1992,7.1992,7.1992,7.1992,7.1992,7.1992,7.1992,7.1992,7.1992,7.1992,5.5186,5.5067,5.5139,5.5078,5.4983,5.4791,5.4799,5.4829,5.47,5.4684,5.4625,5.3787,5.3599,5.3904,5.3829,5.3891,5.4101,5.4045,5.3902,5.3633,5.3672,5.3883,5.4148,5.4254,5.4511,5.4864,5.4916,5.5026,5.5123,5.5203,5.5269,5.532,5.5326,5.5326,5.5326,5.5326,5.5339,5.5364,5.537,5.5351,5.5346,5.5345,5.5332,5.5396,5.5396,5.5396,5.5396,5.5396,5.5396,5.5358,5.5052,5.4861,5.4868,5.4518,5.4333,5.4333,5.4333,5.4486,5.4823,5.5243,5.5484,5.5445,5.5598,5.5687,5.5692,5.5818,5.5907,5.5946,5.5977,5.5994,5.6052,5.6194,5.6616,5.7486,5.8118,5.8661,5.9001,6.0249,6.0765,6.0015,6.0582,6.1103,6.1153,6.1167,6.1562,6.2187,6.2109,6.2383,6.3945,6.4297,6.4805,6.582,6.6211,6.6523,6.6875,6.7383,6.7969,6.8789,6.9648,7.0469,7.1249,7.1679,7.1992,7.1992,7.1992,7.1992,7.1992,7.1992,7.1992,7.1992,7.1992,7.1992,7.1992,7.1992,7.1992,5.5605,5.5464,5.5526,5.5473,5.5364,5.5172,5.5139,5.5203,5.505,5.5037,5.5091,5.5002,5.4938,5.488,5.4723,5.4739,5.4902,5.488,5.4887,5.4931,5.4966,5.4988,5.4988,5.5016,5.5078,5.5172,5.5256,5.532,5.5445,5.5455,5.5523,5.5523,5.5523,5.5523,5.5523,5.5523,5.5523,5.5517,5.5523,5.5494,5.5451,5.544,5.5409,5.539,5.5384,5.539,5.5384,5.5409,5.5396,5.5396,5.5396,5.5396,5.5396,5.5396,5.5416,5.5415,5.5434,5.5453,5.5471,5.5523,5.5581,5.561,5.5751,5.5842,5.588,5.5999,5.6207,5.6474,5.6314,5.6181,5.623,5.6522,5.7087,5.7998,5.8872,5.9439,5.9893,6.0986,6.1387,6.0942,6.1265,6.1705,6.1713,6.168,6.1914,6.2344,6.207,6.2344,6.3828,6.4336,6.4687,6.5742,6.6522,6.6834,6.6953,6.7265,6.8201,6.9177,6.992,7.0545,7.1676,7.1952,7.1992,7.1992,7.1992,7.1992,7.1992,7.1992,7.1992,7.1992,7.1992,7.1992,7.1992,7.1992,7.1992,5.5905,5.5776,5.5724,5.5665,5.5598,5.5549,5.5549,5.5575,5.5479,5.5491,5.552,5.5419,5.5461,5.5566,5.5085,5.4966,5.5223,5.5112,5.5119,5.5269,5.5382,5.5449,5.5499,5.552,5.5543,5.552,5.5523,5.5473,5.5479,5.5485,5.5523,5.5523,5.5535,5.5529,5.5529,5.5535,5.5523,5.5497,5.5535,5.5523,5.5479,5.5517,5.5482,5.5433,5.5415,5.5415,5.5408,5.5396,5.5403,5.5396,5.5403,5.5403,5.5396,5.5403,5.5428,5.5499,5.557,5.5588,5.5665,5.5692,5.5724,5.5782,5.5837,5.5912,5.6008,5.623,5.6625,5.7298,5.6831,5.6521,5.648,5.7074,5.7938,5.8903,5.9788,6.0542,6.1403,6.148,6.1684,6.1579,6.1626,6.1751,6.1757,6.1719,6.1836,6.1953,6.1797,6.2383,6.3711,6.4219,6.5039,6.6131,6.6755,6.6911,6.6911,6.7261,6.7922,6.8897,6.9757,7.0147,7.1164,7.1986,7.1989,7.199,7.1991,7.1992,7.1992,7.1992,7.1992,7.1992,7.1992,7.1992,7.1992,7.1992,7.1992,5.5964,5.5927,5.5919,5.5885,5.5865,5.5792,5.5776,5.5776,5.5756,5.5756,5.5766,5.573,5.5751,5.5797,5.5599,5.5543,5.5588,5.5554,5.5537,5.5581,5.5626,5.5643,5.5643,5.5665,5.5676,5.5671,5.5649,5.5643,5.5643,5.5643,5.5638,5.5643,5.5643,5.5643,5.5643,5.5605,5.5643,5.5643,5.5643,5.5582,5.5587,5.5621,5.5577,5.5514,5.5467,5.5443,5.5443,5.5463,5.5451,5.5451,5.5451,5.5451,5.5457,5.5532,5.5552,5.5632,5.566,5.5687,5.5714,5.5776,5.5837,5.5851,5.5965,5.6052,5.6226,5.6719,5.7064,5.6975,5.7729,5.7844,5.7437,5.7565,5.8362,5.9674,6.0232,6.0744,6.1446,6.1719,6.1725,6.1697,6.1709,6.1873,6.2344,6.2539,6.2539,6.2578,6.3008,6.3398,6.3555,6.4335,6.5389,6.5934,6.6515,6.7056,6.7681,6.7684,6.8114,6.9048,6.9906,7.0687,7.1626,7.1941,7.1984,7.1985,7.1989,7.1992,7.1992,7.1992,7.1992,7.1991,7.1991,7.1991,7.1992,7.1991,7.1992,5.6196,5.6394,5.6141,5.6205,5.6407,5.6086,5.5909,5.5947,5.5947,5.5947,5.5909,5.5929,5.5933,5.5943,5.5933,5.5909,5.5875,5.5822,5.5951,5.619,5.6185,5.6305,5.6536,5.657,5.6559,5.6505,5.6219,5.6132,5.6093,5.5824,5.5708,5.5708,5.5708,5.5708,5.5708,5.5708,5.5708,5.5708,5.5708,5.5764,5.6,5.6071,5.611,5.6033,5.5988,5.5959,5.5942,5.5918,5.6098,5.6258,5.6122,5.5833,5.5625,5.5605,5.5703,5.5751,5.5776,5.5802,5.5837,5.5943,5.6084,5.6377,5.6277,5.6351,5.6977,5.7417,5.7549,5.7853,5.8324,5.8869,5.9039,5.8846,5.9125,6.0234,6.0666,6.1016,6.1602,6.1719,6.1727,6.1702,6.1713,6.2108,6.2773,6.293,6.3125,6.3359,6.3984,6.4023,6.4101,6.4726,6.5778,6.601,6.651,6.697,6.7553,6.7945,6.8767,6.974,6.9897,7.0795,7.1656,7.1895,7.1977,7.1978,7.1982,7.1987,7.1989,7.199,7.199,7.1989,7.1988,7.1987,7.1988,7.1989,7.199,5.6606,5.7133,5.6398,5.6545,5.7116,5.6377,5.6008,5.6008,5.6008,5.6008,5.5995,5.6041,5.6161,5.6102,5.6268,5.6134,5.6232,5.6122,5.6406,5.7019,5.7134,5.7559,5.8137,5.8132,5.7996,5.7878,5.7324,5.6956,5.6884,5.623,5.584,5.5752,5.5758,5.5714,5.5708,5.5708,5.5708,5.5708,5.5708,5.6088,5.6863,5.6786,5.6747,5.6819,5.6852,5.6868,5.6812,5.6759,5.7055,5.768,5.7255,5.6533,5.595,5.5815,5.5827,5.589,5.5961,5.6025,5.6097,5.6152,5.6622,5.7112,5.6815,5.7165,5.8219,5.8255,5.8455,5.936,5.956,5.9748,6.0921,6.0695,6.0351,6.051,6.1133,6.1563,6.168,6.1719,6.169,6.1707,6.1719,6.207,6.2773,6.3164,6.3476,6.414,6.4531,6.4765,6.5117,6.5546,6.6011,6.6553,6.6817,6.7003,6.7543,6.8202,6.9412,7.0388,7.0195,7.0509,7.1528,7.2001,7.2005,7.2007,7.1975,7.1981,7.1986,7.1988,7.1986,7.1985,7.1982,7.198,7.1982,7.1984,7.1988,5.7141,5.7381,5.7087,5.7122,5.7288,5.6498,5.6141,5.6141,5.6141,5.6086,5.6178,5.6698,5.6953,5.7065,5.7534,5.78,5.7735,5.7205,5.7013,5.7275,5.7771,5.8114,5.8384,5.8422,5.8104,5.7587,5.7258,5.7133,5.7133,5.6863,5.6693,5.6585,5.6074,5.5784,5.5791,5.5708,5.5708,5.5708,5.5708,5.5862,5.6093,5.6132,5.6132,5.617,5.667,5.7006,5.6994,5.6934,5.7082,5.7455,5.772,5.7531,5.6869,5.6277,5.6029,5.6098,5.6118,5.6145,5.6231,5.6749,5.7155,5.7554,5.7863,5.832,5.894,5.9358,5.9471,5.9786,6.0249,6.1049,6.0856,6.117,6.125,6.1289,6.1524,6.1719,6.1721,6.1693,6.1706,6.1714,6.1718,6.2344,6.3476,6.3867,6.418,6.5,6.5586,6.6015,6.5742,6.613,6.6516,6.6864,6.6931,6.7232,6.8008,6.8669,6.9606,7.0543,7.0621,7.0621,7.1521,7.1991,7.1995,7.1999,7.2006,7.1974,7.198,7.1982,7.198,7.1977,7.1974,7.2011,7.2011,7.1977,7.1982,5.721,5.7426,5.7091,5.7147,5.733,5.654,5.6218,5.6218,5.6218,5.6203,5.6265,5.6672,5.6928,5.7043,5.7524,5.7899,5.8088,5.7856,5.7928,5.8061,5.7892,5.8283,5.8819,5.892,5.8911,5.8602,5.8273,5.8114,5.8114,5.78,5.7631,5.7485,5.7017,5.677,5.6701,5.6696,5.669,5.6669,5.6703,5.6807,5.7055,5.7126,5.7115,5.7268,5.7741,5.7839,5.7649,5.7882,5.7931,5.7699,5.7868,5.7764,5.7357,5.6591,5.6287,5.6555,5.6378,5.6194,5.6304,5.7007,5.7728,5.807,5.8618,5.9262,5.9757,6.0399,6.016,6.0314,6.096,6.1485,6.1094,6.1328,6.168,6.1719,6.168,6.1721,6.1727,6.1701,6.1711,6.1716,6.1718,6.2422,6.3398,6.4219,6.4648,6.5508,6.6328,6.6797,6.6327,6.6558,6.6788,6.7016,6.7277,6.7815,6.8592,6.9215,6.98,7.0541,7.1128,7.1285,7.1793,7.195,7.1991,7.1991,7.1997,7.2004,7.2011,7.2009,7.2006,7.2003,7.2003,7.2,7.2001,7.2006,7.2013,5.6962,5.7515,5.6685,5.6848,5.7366,5.6597,5.6231,5.6241,5.6202,5.6198,5.623,5.6582,5.6575,5.6451,5.7153,5.7641,5.7717,5.8423,5.9134,5.9206,5.8569,5.8372,5.9746,5.9751,5.9891,6.0307,5.9847,5.96,5.9412,5.8833,5.8466,5.8466,5.8307,5.834,5.8137,5.834,5.8156,5.8076,5.8153,5.8467,5.9072,5.9188,5.9238,5.9305,5.9392,5.9172,5.8647,5.9047,5.9215,5.8534,5.789,5.7521,5.7335,5.667,5.6576,5.7136,5.6621,5.6446,5.6544,5.7189,5.7973,5.8698,5.9053,5.9693,6.0826,6.0763,6.0834,6.1252,6.1588,6.168,6.1641,6.168,6.1719,6.1719,6.1721,6.1727,6.1697,6.1706,6.1713,6.1717,6.1758,6.207,6.3008,6.3789,6.4648,6.5508,6.6367,6.6719,6.6796,6.6792,6.6863,6.7088,6.7432,6.8126,6.8864,6.9722,7.0307,7.0972,7.148,7.1675,7.187,7.1948,7.1987,7.1989,7.199,7.1996,7.1999,7.1997,7.1997,7.1999,7.1996,7.199,7.1991,7.1999,7.2279,5.7862,5.8519,5.7689,5.7446,5.7518,5.6693,5.6334,5.6269,5.6263,5.6265,5.6446,5.7571,5.7875,5.8134,5.9311,6.0161,5.9952,5.9734,6.0092,6.0501,5.9133,5.9319,6.0358,6.0142,5.9978,6.0166,6.0075,5.9843,5.9848,5.9606,5.9476,5.9403,5.8863,5.8496,5.8427,5.8505,5.8379,5.8364,5.8397,5.8513,5.8734,5.8837,5.8795,5.8858,5.9485,5.94,5.8723,5.8891,5.9335,5.9475,5.8224,5.7543,5.7477,5.6809,5.6521,5.6695,5.6595,5.6677,5.7184,5.7555,5.8113,5.8927,5.9533,6.0212,6.0598,6.1134,6.1384,6.1657,6.1671,6.1719,6.1719,6.1719,6.1719,6.172,6.1727,6.1697,6.1705,6.1712,6.1717,6.1718,6.1719,6.2109,6.2812,6.375,6.4609,6.543,6.625,6.6914,6.6913,6.6909,6.6901,6.7131,6.7514,6.8285,6.9098,7.0073,7.0854,7.148,7.1831,7.1831,7.1948,7.1987,7.1987,7.1987,7.1989,7.1993,7.1993,7.1991,7.1993,7.2073,7.2147,7.2221,7.2104,7.211,7.2584,5.8367,5.8475,5.8358,5.7839,5.7197,5.7001,5.6741,5.6383,5.6333,5.6313,5.6508,5.7292,5.7787,5.7875,5.8799,5.9694,6.0176,5.9814,6.0249,6.1017,6.0285,6.0204,6.0419,6.0053,6.0058,6.0383,6.0383,6.0422,6.0422,6.0383,6.0403,6.0307,5.9843,5.9592,5.9611,5.9529,5.9539,5.9592,5.9544,5.9534,5.9524,5.9609,5.9663,5.9736,6.0216,6.0222,5.9901,5.9612,5.9379,5.8957,5.8161,5.7641,5.7566,5.6888,5.6634,5.6882,5.6735,5.6735,5.7161,5.7524,5.7998,5.8618,5.9606,6.0274,6.0586,6.1186,6.1707,6.17,6.1711,6.1718,6.1719,6.1719,6.1719,6.172,6.1695,6.1705,6.1709,6.1714,6.1717,6.1719,6.1719,6.1836,6.2461,6.3515,6.4375,6.5117,6.6133,6.664,6.6913,6.6909,6.6902,6.7092,6.7827,6.8714,6.9529,7.0426,7.1128,7.1792,7.1948,7.1987,7.1987,7.1987,7.1987,7.1987,7.1987,7.1987,7.1987,7.2065,7.2301,7.238,7.2417,7.2651,7.2768,7.269,7.3126,5.8711,5.812,5.8785,5.8112,5.6879,5.7463,5.7301,5.6533,5.6764,5.6758,5.6707,5.6751,5.7439,5.6834,5.8063,5.8072,5.9381,5.9659,6.0248,6.1028,6.1136,6.0935,6.0328,6.0299,6.0515,6.0945,6.1107,6.1064,6.0996,6.103,6.1059,6.0991,6.0996,6.1082,6.0829,6.0979,6.1104,6.0988,6.0902,6.0829,6.0863,6.0903,6.0949,6.1002,6.1113,6.13,6.1166,6.0761,5.981,5.8117,5.7898,5.786,5.7712,5.7024,5.699,5.7343,5.6995,5.6802,5.6795,5.7499,5.7892,5.8361,5.9586,6.0371,6.0558,6.1197,6.1713,6.1705,6.1713,6.1718,6.1719,6.1719,6.1719,6.1722,6.1699,6.1708,6.171,6.1714,6.1718,6.1719,6.1719,6.1719,6.2109,6.3008,6.4219,6.4648,6.5664,6.6406,6.6757,6.6911,6.6865,6.6896,6.7943,6.926,7.0038,7.0817,7.1402,7.1987,7.1987,7.1987,7.1987,7.1987,7.1987,7.1987,7.1987,7.1987,7.1987,7.2182,7.2456,7.2768,7.2884,7.3549,7.4056,7.3822,7.4021,5.937,5.9802,5.9332,5.8474,5.7734,5.8359,5.7928,5.6652,5.7943,5.8009,5.7822,5.8791,5.93,5.938,5.9745,6.0755,6.0758,6.087,6.1329,6.1335,6.1463,6.1352,6.1053,6.1026,6.1154,6.1283,6.1224,6.1195,6.1199,6.1207,6.1195,6.1207,6.1268,6.1348,6.1327,6.132,6.1317,6.1344,6.1337,6.133,6.1347,6.1382,6.1448,6.1476,6.1536,6.1573,6.1595,6.1462,6.0885,5.9943,5.9186,5.8634,5.8058,5.8218,5.7947,5.7246,5.741,5.7525,5.7546,5.7714,5.8114,5.8808,5.9676,6.0388,6.0464,6.1206,6.164,6.1715,6.1716,6.1719,6.1719,6.1719,6.1719,6.1723,6.1698,6.1709,6.171,6.1719,6.1719,6.1719,6.1719,6.1719,6.1758,6.2578,6.3555,6.4219,6.5156,6.6094,6.6562,6.6873,6.6868,6.686,6.8141,6.9382,6.9882,7.0739,7.1597,7.1987,7.1987,7.1987,7.1987,7.1987,7.1987,7.1987,7.1987,7.2026,7.2182,7.2221,7.2495,7.2924,7.3508,7.4134,7.4642,7.4642,7.4915,6.0331,6.0371,6.0331,5.959,5.8657,5.9322,5.8941,5.8047,5.8632,5.8826,5.8623,5.9478,5.9788,5.9826,6.0257,6.0569,6.1114,6.1501,6.1644,6.1622,6.1607,6.1559,6.1551,6.1545,6.15,6.1406,6.133,6.1313,6.1291,6.1278,6.1278,6.1305,6.1373,6.1385,6.1397,6.1394,6.1403,6.1432,6.1434,6.1437,6.1505,6.1532,6.156,6.1575,6.1644,6.1658,6.1661,6.1671,6.1444,6.1014,6.0535,5.971,5.8702,5.882,5.8391,5.7574,5.7928,5.8124,5.7998,5.8197,5.8594,5.9094,5.9921,6.0274,6.0588,6.1211,6.1641,6.1719,6.1719,6.1719,6.1719,6.1719,6.1719,6.1722,6.1696,6.1705,6.171,6.1719,6.1719,6.1719,6.1719,6.1719,6.1953,6.2656,6.3398,6.4297,6.5078,6.5976,6.664,6.6913,6.6909,6.7216,6.8497,6.9426,6.9767,7.0583,7.1714,7.1987,7.1987,7.1987,7.1987,7.1987,7.1987,7.1987,7.2026,7.2417,7.2534,7.2534,7.3002,7.4134,7.4837,7.5032,7.5345,7.5774,7.6047,6.1211,6.0471,6.1211,6.0592,5.9389,5.9977,5.9826,5.9129,5.9402,5.9563,5.9366,5.9488,5.9921,5.9725,5.9804,6.0078,6.0663,6.1286,6.1666,6.1696,6.1693,6.1692,6.1689,6.1644,6.1589,6.1454,6.143,6.1422,6.1393,6.1424,6.1375,6.1412,6.1454,6.1458,6.1449,6.1466,6.1486,6.1521,6.155,6.1547,6.1575,6.1595,6.1652,6.1667,6.1674,6.1676,6.1715,6.1718,6.168,6.1719,6.1719,6.0899,5.9962,5.9455,5.8986,5.8168,5.8831,5.8868,5.8476,5.8791,5.9338,5.9338,6.0118,6.0588,6.0822,6.125,6.1602,6.1719,6.1719,6.1719,6.1719,6.1719,6.1719,6.1721,6.1691,6.1701,6.1748,6.1756,6.1953,6.1758,6.1992,6.2187,6.2383,6.289,6.3594,6.4336,6.5117,6.5859,6.6523,6.6913,6.691,6.7334,6.8498,7.0011,7.0509,7.0739,7.1831,7.1987,7.1987,7.1987,7.1987,7.1987,7.1987,7.1987,7.2104,7.2495,7.2845,7.2962,7.3783,7.5307,7.5814,7.5658,7.6164,7.6945,7.7023,6.1211,6.0393,6.0549,6.0002,5.9341,6.0045,5.9933,5.9472,6.0606,6.0805,6.0301,6.089,6.1085,6.1165,6.1247,6.1366,6.1406,6.164,6.1719,6.1719,6.1719,6.1719,6.1719,6.1719,6.168,6.163,6.1551,6.151,6.1473,6.1463,6.1508,6.1515,6.1573,6.1627,6.1631,6.1667,6.1618,6.1628,6.166,6.1658,6.1661,6.1667,6.1671,6.1719,6.1719,6.1719,6.1719,6.1719,6.1719,6.1719,6.1719,6.1524,6.1172,6.1094,6.0353,5.9455,5.969,5.9807,5.9183,5.969,6.0119,6.0354,6.0899,6.1368,6.1485,6.1563,6.168,6.1719,6.1719,6.1719,6.1719,6.1719,6.1719,6.1722,6.1807,6.1817,6.1903,6.23,6.2499,6.2226,6.25,6.2812,6.3047,6.3398,6.4101,6.4726,6.5273,6.6015,6.668,6.6914,6.691,6.753,6.8381,7.0011,7.1443,7.1559,7.1987,7.1987,7.1987,7.1987,7.1987,7.1987,7.1987,7.1987,7.2221,7.2612,7.2923,7.3391,7.4369,7.5736,7.5971,7.6127,7.6594,7.7101,7.7101,6.0783,6.0354,5.9924,5.9767,5.9846,6.0198,6.0434,6.0555,6.1337,6.1458,6.115,6.1076,6.1313,6.1472,6.1165,6.1247,6.164,6.1719,6.1719,6.1719,6.1719,6.1719,6.1719,6.1719,6.1719,6.168,6.1631,6.1601,6.1581,6.161,6.161,6.1621,6.1665,6.1707,6.1707,6.1701,6.1698,6.1698,6.1693,6.1725,6.1719,6.1719,6.1719,6.1719,6.1719,6.1719,6.1719,6.1719,6.1719,6.1719,6.1719,6.1719,6.1719,6.1563,6.1133,6.0196,6.0549,6.0705,6.0079,6.0549,6.1056,6.1094,6.1524,6.168,6.1719,6.168,6.1719,6.1719,6.1719,6.1719,6.1719,6.1719,6.1719,6.1797,6.2077,6.2358,6.2523,6.3155,6.3199,6.3046,6.3476,6.375,6.3711,6.414,6.4687,6.5156,6.5547,6.6133,6.6836,6.6914,6.6911,6.7528,6.83,6.9656,7.113,7.1598,7.1909,7.1987,7.1987,7.1987,7.1987,7.1987,7.1987,7.1987,7.23,7.2963,7.3705,7.4369,7.5305,7.6049,7.6361,7.6672,7.6906,7.7101,7.7101,6.0276,6.008,5.9416,5.9494,6.0119,6.0354,6.0861,6.1602,6.168,6.1681,6.1603,6.1065,6.1148,6.1386,6.1159,6.1088,6.1717,6.1718,6.1719,6.1719,6.1719,6.1719,6.1719,6.1719,6.1719,6.1719,6.168,6.1719,6.168,6.1675,6.1716,6.1678,6.1717,6.1717,6.1717,6.1713,6.1709,6.1705,6.1698,6.1692,6.1722,6.1719,6.1719,6.1719,6.1719,6.1719,6.1719,6.1719,6.1719,6.1719,6.1719,6.1719,6.1719,6.1719,6.1368,6.09,6.1368,6.1213,6.1056,6.1172,6.1563,6.1563,6.168,6.1719,6.1719,6.1719,6.1719,6.1719,6.1719,6.1719,6.1719,6.1875,6.1875,6.1953,6.2579,6.3247,6.3258,6.3696,6.4406,6.4489,6.4687,6.4687,6.4648,6.5117,6.5703,6.582,6.6211,6.6289,6.6836,6.6875,6.7028,6.7487,6.8296,6.9379,7.0465,7.1245,7.1636,7.1987,7.1987,7.1987,7.1987,7.1987,7.1987,7.2065,7.3119,7.3822,7.4603,7.5229,7.5853,7.6399,7.6867,7.7101,7.7101,7.7101,7.7101,5.9963,5.9259,5.9142,5.9181,5.9416,6.0119,6.0899,6.1641,6.1719,6.1719,6.168,6.1525,6.1449,6.1532,6.1586,6.1556,6.1677,6.1719,6.1719,6.1719,6.1719,6.1719,6.1719,6.1719,6.1719,6.1719,6.1719,6.1719,6.1719,6.1719,6.1719,6.1719,6.1719,6.1719,6.1719,6.1719,6.1716,6.1714,6.1744,6.1732,6.176,6.1797,6.1875,6.1719,6.1797,6.1758,6.1758,6.1719,6.1719,6.1719,6.1719,6.1719,6.1719,6.1719,6.168,6.1602,6.1641,6.1641,6.1485,6.1602,6.1719,6.1719,6.1719,6.1719,6.1719,6.1719,6.1719,6.1719,6.1719,6.1719,6.1836,6.2383,6.2304,6.2656,6.3243,6.3522,6.3608,6.467,6.5341,6.5581,6.5663,6.5624,6.5586,6.6172,6.668,6.6719,6.6758,6.6797,6.6836,6.6875,6.695,6.7409,6.7903,6.8945,6.9801,7.0582,7.1245,7.1753,7.1948,7.1987,7.1987,7.1987,7.1987,7.2339,7.3432,7.4212,7.4603,7.5227,7.6086,7.6633,7.6984,7.7101,7.7101,7.7101,7.7101,5.9918,5.9064,5.8558,5.8947,5.9845,6.0276,6.09,6.1602,6.1719,6.1719,6.1563,6.1134,6.0978,6.1139,6.1425,6.1705,6.1709,6.1714,6.1715,6.1717,6.1717,6.1718,6.1719,6.1719,6.1719,6.1719,6.1719,6.1719,6.1719,6.1719,6.1719,6.1719,6.1719,6.1719,6.1719,6.1719,6.1718,6.1832,6.2097,6.2161,6.2074,6.2501,6.2657,6.1797,6.2187,6.207,6.1797,6.1719,6.1719,6.1719,6.1719,6.1719,6.1719,6.1719,6.1719,6.1719,6.168,6.168,6.168,6.1719,6.1719,6.1719,6.1719,6.1719,6.1719,6.1719,6.1719,6.1719,6.1719,6.1719,6.1875,6.2501,6.2657,6.3047,6.4023,6.4377,6.4697,6.5607,6.6356,6.6518,6.6599,6.6405,6.625,6.6523,6.6797,6.6836,6.6836,6.6836,6.6875,6.6875,6.6986,6.7175,6.7709,6.8396,6.9137,6.9918,7.0698,7.1245,7.1909,7.1948,7.1987,7.1987,7.1987,7.2456,7.3471,7.4095,7.4486,7.5501,7.6633,7.6906,7.7101,7.7101,7.7101,7.714,7.7179,6.0024,5.9373,5.8713,5.9222,6.0393,6.0627,6.1095,6.168,6.1719,6.1719,6.1563,6.1055,6.0783,6.0865,6.142,6.1699,6.1699,6.1705,6.1708,6.1711,6.1713,6.1716,6.1717,6.1719,6.1719,6.1719,6.1719,6.1719,6.1719,6.1719,6.1719,6.1719,6.1719,6.1719,6.1719,6.1719,6.1796,6.2185,6.2648,6.2715,6.2704,6.3326,6.3012,6.2541,6.2343,6.2383,6.1836,6.1719,6.1719,6.1719,6.1719,6.1719,6.1719,6.1719,6.1719,6.1719,6.1719,6.1719,6.1719,6.1719,6.1719,6.1719,6.1719,6.1719,6.1719,6.1719,6.1719,6.1719,6.1719,6.1797,6.2148,6.2852,6.3243,6.3945,6.4843,6.5312,6.5745,6.6265,6.6666,6.671,6.6754,6.6796,6.6719,6.6797,6.6875,6.6875,6.6914,6.6914,6.6914,6.6914,6.6946,6.7059,6.7282,6.7854,6.863,6.9333,7.0073,7.0893,7.1519,7.1909,7.1987,7.1987,7.1987,7.269,7.351,7.4095,7.4525,7.5891,7.7101,7.7101,7.7101,7.7101,7.7101,7.7218,7.7453,6.0358,6.0298,6.0194,6.0237,6.051,6.1289,6.1641,6.1719,6.1719,6.1719,6.168,6.1602,6.1485,6.1565,6.1574,6.1697,6.1697,6.1706,6.1706,6.1707,6.171,6.1713,6.1715,6.1717,6.1719,6.1719,6.1719,6.1719,6.1719,6.1719,6.1719,6.1719,6.1719,6.1719,6.1719,6.1719,6.2031,6.2459,6.3004,6.3428,6.3457,6.3608,6.3176,6.2855,6.2226,6.1758,6.1719,6.1797,6.1758,6.1758,6.1719,6.1719,6.1719,6.1719,6.1719,6.1719,6.1719,6.1719,6.1719,6.1719,6.1719,6.1719,6.1719,6.1719,6.1719,6.1719,6.1719,6.1719,6.1719,6.2031,6.2696,6.3556,6.3712,6.4376,6.504,6.5702,6.6096,6.6416,6.6739,6.6863,6.6909,6.6913,6.6914,6.6914,6.6914,6.6914,6.6914,6.6914,6.6914,6.6912,6.6909,6.6943,6.6856,6.7353,6.8125,6.8942,6.9879,7.0738,7.148,7.1792,7.1987,7.1987,7.1987,7.2534,7.3275,7.3939,7.4759,7.6008,7.6906,7.7023,7.7101,7.7179,7.7453,7.7727,7.804,5.9929,6.0414,6.0388,6.0705,6.1211,6.1563,6.1719,6.1719,6.1719,6.1719,6.1719,6.1719,6.1719,6.172,6.1722,6.1726,6.1727,6.1691,6.1694,6.1696,6.17,6.1707,6.1712,6.1716,6.1719,6.1719,6.1719,6.1719,6.1719,6.1719,6.1719,6.1719,6.1719,6.1719,6.1719,6.1719,6.1992,6.2459,6.3161,6.3821,6.3536,6.4352,6.4075,6.297,6.3478,6.2618,6.2031,6.2304,6.2109,6.1875,6.1797,6.1836,6.1797,6.1797,6.1836,6.1836,6.1836,6.1836,6.1797,6.1758,6.1719,6.1719,6.1719,6.1719,6.1719,6.1719,6.1719,6.1719,6.1719,6.1992,6.2187,6.2969,6.3595,6.4376,6.5157,6.5937,6.6371,6.6651,6.6777,6.6863,6.6909,6.6912,6.6914,6.6914,6.6914,6.6914,6.6914,6.6914,6.6914,6.6913,6.6911,6.6985,6.6978,6.7243,6.8016,6.8869,6.9723,7.0582,7.1402,7.1753,7.1987,7.2026,7.2104,7.2573,7.3236,7.4173,7.5149,7.6203,7.6789,7.7023,7.7218,7.7375,7.7727,7.8157,7.8664,5.9851,6.0375,6.0388,6.0899,6.168,6.1719,6.1719,6.1719,6.1719,6.1719,6.1719,6.1719,6.1719,6.1719,6.1719,6.1719,6.172,6.172,6.172,6.1723,6.169,6.17,6.1708,6.1713,6.1719,6.1719,6.1719,6.1719,6.1719,6.1719,6.1719,6.1719,6.1719,6.1719,6.1719,6.1719,6.1836,6.2421,6.3319,6.4254,6.401,6.4788,6.4939,6.3601,6.3636,6.3204,6.254,6.2618,6.2618,6.2462,6.2383,6.2383,6.2226,6.2109,6.2226,6.2304,6.2265,6.2187,6.2304,6.1914,6.1758,6.1719,6.1719,6.1719,6.1719,6.1719,6.1719,6.1719,6.1719,6.1797,6.1953,6.3047,6.4023,6.4883,6.5664,6.6406,6.6566,6.6767,6.6817,6.6902,6.6909,6.6914,6.6914,6.6914,6.6914,6.6914,6.6914,6.6914,6.6914,6.6914,6.6913,6.7027,6.7177,6.7561,6.8022,6.9185,7.0191,7.0582,7.1324,7.1792,7.1987,7.2104,7.2417,7.2885,7.3627,7.4564,7.5462,7.636,7.6789,7.7062,7.7257,7.7414,7.8118,7.8586,7.9328,6.028,6.0414,6.0349,6.0822,6.1563,6.1719,6.168,6.1602,6.168,6.1719,6.1719,6.1719,6.1719,6.1719,6.1719,6.1719,6.1719,6.1719,6.1719,6.172,6.1721,6.1695,6.1705,6.1711,6.1719,6.1719,6.1719,6.1719,6.1719,6.1719,6.1719,6.1719,6.1719,6.1719,6.1719,6.1719,6.2148,6.293,6.375,6.4413,6.4996,6.5186,6.4594,6.4468,6.3521,6.3008,6.3164,6.3125,6.3164,6.3086,6.3517,6.3478,6.3047,6.3008,6.3282,6.3868,6.3282,6.3399,6.3946,6.2579,6.2109,6.207,6.2187,6.1953,6.1797,6.1719,6.1719,6.1719,6.1719,6.2109,6.2813,6.3595,6.4336,6.5234,6.6016,6.6484,6.6644,6.6802,6.6851,6.6901,6.6908,6.6914,6.6914,6.6914,6.6914,6.6914,6.6914,6.6914,6.6914,6.6914,6.6953,6.7302,6.7571,6.8229,6.8807,6.981,7.0621,7.0933,7.1402,7.2065,7.2534,7.2885,7.3118,7.3352,7.4173,7.519,7.5853,7.6477,7.6789,7.7101,7.7257,7.757,7.8313,7.9133,7.9951,5.8489,5.9488,5.8908,5.9534,6.0822,6.1485,6.1407,6.1017,6.1407,6.1719,6.1719,6.1719,6.1719,6.1719,6.1719,6.1719,6.1719,6.1719,6.1719,6.1719,6.1719,6.1695,6.1705,6.171,6.1715,6.1719,6.1719,6.1719,6.1719,6.1719,6.1719,6.1719,6.1719,6.1719,6.1719,6.1719,6.1914,6.2226,6.2969,6.3789,6.4568,6.4329,6.4362,6.4939,6.3718,6.3321,6.3673,6.3673,6.3751,6.379,6.4298,6.4259,6.3946,6.3868,6.4025,6.4337,6.3907,6.3985,6.422,6.3634,6.3478,6.3282,6.2891,6.2579,6.254,6.1953,6.1797,6.1758,6.1797,6.2226,6.2891,6.3164,6.3867,6.5155,6.5936,6.6289,6.6524,6.6721,6.6845,6.6859,6.6907,6.6912,6.6914,6.6914,6.6914,6.6914,6.6914,6.6914,6.6914,6.6992,6.707,6.7617,6.8082,6.8819,6.9631,7.0437,7.1208,7.1675,7.2181,7.2845,7.3235,7.3625,7.39,7.4173,7.4995,7.5853,7.6205,7.6594,7.6867,7.714,7.7414,7.8038,7.8936,7.9873,8.081,5.7789,5.8985,5.848,5.887,6.0002,6.086,6.1016,6.0938,6.1446,6.1719,6.1719,6.1719,6.1719,6.1719,6.1719,6.1719,6.1719,6.1719,6.1719,6.1719,6.1719,6.1695,6.1705,6.171,6.1715,6.1719,6.1719,6.1719,6.1719,6.1719,6.1719,6.1719,6.1719,6.1719,6.1719,6.1719,6.1719,6.2031,6.2656,6.3515,6.4061,6.4292,6.4402,6.4591,6.4152,6.3595,6.3868,6.4103,6.4337,6.4415,6.4727,6.4883,6.4844,6.4727,6.4883,6.504,6.5196,6.5196,6.5235,6.5235,6.5157,6.5118,6.4103,6.3204,6.2813,6.2304,6.1992,6.1914,6.1992,6.2423,6.2969,6.3164,6.4219,6.5546,6.5975,6.6328,6.6562,6.6759,6.6802,6.6856,6.6904,6.6911,6.6914,6.6914,6.6914,6.6914,6.6914,6.6914,6.6914,6.707,6.7344,6.7969,6.8591,6.9327,7.0099,7.0908,7.1641,7.2339,7.2885,7.343,7.4017,7.4369,7.4681,7.5032,7.5814,7.6361,7.6439,7.6672,7.6945,7.7375,7.7766,7.8546,7.9522,8.0302,8.1083,5.8258,5.9023,5.9064,5.9064,5.9338,6.0276,6.1017,6.1641,6.168,6.1719,6.1719,6.1719,6.1719,6.1719,6.1719,6.1719,6.1719,6.1719,6.1719,6.1719,6.1719,6.1696,6.1705,6.1709,6.1715,6.1719,6.1719,6.1719,6.1719,6.1719,6.1719,6.1719,6.1719,6.1719,6.1719,6.1719,6.1719,6.1953,6.2344,6.3242,6.4023,6.4644,6.464,6.4634,6.4313,6.395,6.4026,6.4181,6.4415,6.4883,6.5664,6.5781,6.5741,6.5546,6.6055,6.6406,6.6484,6.6523,6.6484,6.6406,6.6289,6.5937,6.5196,6.3672,6.2891,6.293,6.2735,6.2618,6.2735,6.3008,6.3321,6.4219,6.5194,6.5819,6.6211,6.6484,6.6718,6.6799,6.6802,6.6852,6.6863,6.6909,6.6913,6.6914,6.6914,6.6914,6.6914,6.6914,6.6992,6.7265,6.7617,6.8398,6.906,6.9834,7.0606,7.1377,7.2032,7.269,7.3275,7.3822,7.4447,7.519,7.558,7.6047,7.6594,7.6867,7.6789,7.6867,7.7023,7.7414,7.7727,7.8313,7.9053,7.9912,8.0732,5.7401,5.8168,5.8168,5.887,6.008,6.0977,6.1485,6.168,6.1719,6.1719,6.1719,6.1719,6.1719,6.1719,6.1719,6.1719,6.1719,6.1719,6.1719,6.1719,6.1719,6.1695,6.1704,6.171,6.1715,6.1719,6.1719,6.1719,6.1719,6.1719,6.1719,6.1719,6.1719,6.1719,6.1719,6.1719,6.1719,6.1758,6.207,6.293,6.3711,6.414,6.4409,6.4715,6.4473,6.4307,6.4611,6.4804,6.5038,6.539,6.5663,6.5546,6.4766,6.4727,6.504,6.5897,6.6328,6.6757,6.6796,6.6796,6.664,6.6328,6.5859,6.5703,6.4765,6.4062,6.379,6.3556,6.3594,6.3906,6.4062,6.4726,6.5507,6.6014,6.625,6.6289,6.6523,6.6798,6.6802,6.6853,6.6902,6.6909,6.6913,6.6914,6.6914,6.6914,6.6914,6.6914,6.707,6.7383,6.793,6.8711,6.9568,7.0343,7.1038,7.1809,7.2425,7.3041,7.3627,7.433,7.5266,7.5971,7.6478,7.6789,7.6945,7.7023,7.7023,7.7101,7.7101,7.714,7.7414,7.796,7.8624,7.9561,8.0498,5.7016,5.7815,5.8168,5.9339,6.0822,6.1485,6.1719,6.1719,6.1719,6.1719,6.1719,6.1719,6.1719,6.1719,6.1719,6.1719,6.1719,6.1719,6.1719,6.1719,6.1719,6.1696,6.1705,6.171,6.1715,6.1719,6.1719,6.1719,6.1719,6.1719,6.1719,6.1719,6.1719,6.1719,6.1719,6.1719,6.1719,6.1719,6.1914,6.2617,6.3125,6.3593,6.4371,6.4717,6.4475,6.4817,6.5041,6.5155,6.5273,6.5624,6.578,6.5898,6.5352,6.5391,6.543,6.625,6.6484,6.6796,6.6757,6.6406,6.625,6.6133,6.6211,6.6094,6.5858,6.5234,6.4688,6.4259,6.4571,6.4843,6.4882,6.5038,6.5585,6.6172,6.6094,6.6014,6.6367,6.6718,6.6807,6.6856,6.6865,6.691,6.6912,6.6914,6.6914,6.6914,6.6914,6.6914,6.7187,6.7617,6.8242,6.9062,6.9961,7.0852,7.1509,7.2087,7.2701,7.3319,7.3978,7.4798,7.5893,7.6517,7.6828,7.6945,7.7062,7.7101,7.7101,7.714,7.714,7.7257,7.7609,7.8272,7.8897,7.9522,8.0459,5.7024,5.7894,5.8791,6.0118,6.1563,6.168,6.1719,6.1719,6.1719,6.1719,6.1719,6.1719,6.1719,6.1719,6.1719,6.1719,6.1719,6.1719,6.1719,6.1719,6.1719,6.1693,6.1705,6.171,6.1715,6.1719,6.1719,6.1719,6.1719,6.1719,6.1719,6.1719,6.1719,6.1719,6.1719,6.1719,6.1719,6.1719,6.1797,6.2226,6.3047,6.371,6.4293,6.4405,6.4515,6.4701,6.4575,6.4649,6.4844,6.5625,6.6133,6.6484,6.6211,6.6094,6.6211,6.6484,6.6445,6.664,6.6445,6.6014,6.6053,6.5975,6.5975,6.582,6.5508,6.5897,6.5469,6.5118,6.5351,6.5155,6.5116,6.4687,6.4843,6.539,6.5585,6.5937,6.6523,6.6759,6.6802,6.6853,6.6901,6.6908,6.6911,6.6914,6.6914,6.6914,6.6914,6.6914,6.7265,6.7773,6.8515,6.9375,7.0469,7.1284,7.1631,7.221,7.2862,7.3519,7.4178,7.5032,7.5971,7.6556,7.7062,7.7101,7.7101,7.7101,7.7101,7.714,7.7375,7.7923,7.8313,7.8819,7.9366,7.9912,8.0381,5.6985,5.7933,5.9456,6.0743,6.1641,6.1719,6.1719,6.1719,6.1719,6.1719,6.1719,6.1719,6.1719,6.1719,6.1719,6.1719,6.1719,6.1719,6.1719,6.1719,6.1719,6.1691,6.1707,6.1709,6.1715,6.1719,6.1719,6.1719,6.1719,6.1719,6.1719,6.1719,6.1719,6.1719,6.1719,6.1719,6.1719,6.1719,6.1758,6.2109,6.2851,6.3711,6.4295,6.472,6.5025,6.5524,6.5593,6.582,6.5742,6.5858,6.578,6.5508,6.4922,6.4961,6.5274,6.5741,6.5975,6.6133,6.6133,6.5546,6.5194,6.5312,6.5234,6.4922,6.5079,6.5977,6.6289,6.6016,6.578,6.5507,6.5038,6.4414,6.414,6.4648,6.5116,6.5859,6.664,6.676,6.68,6.6849,6.6898,6.6904,6.691,6.6914,6.6914,6.6914,6.6914,6.7031,6.7461,6.7969,6.8711,6.9648,7.0976,7.1715,7.1947,7.2176,7.2714,7.3408,7.4064,7.4999,7.6049,7.6594,7.7101,7.7101,7.7101,7.7257,7.7335,7.7179,7.7531,7.8469,7.8977,7.9484,8.0146,8.0771,8.0888,5.679,5.7464,5.9104,6.0314,6.1094,6.1524,6.1719,6.1719,6.1719,6.1719,6.1719,6.1719,6.1719,6.1719,6.1719,6.1719,6.1719,6.1719,6.1719,6.1719,6.1721,6.1691,6.1701,6.1708,6.1714,6.1719,6.1719,6.1719,6.1719,6.1719,6.1719,6.1719,6.1719,6.1719,6.1719,6.1719,6.1719,6.1719,6.1719,6.1992,6.2578,6.3242,6.3983,6.4564,6.5026,6.5682,6.6258,6.6367,6.6172,6.5975,6.5897,6.5897,6.5391,6.4922,6.5118,6.5546,6.5702,6.5391,6.5547,6.504,6.4259,6.4493,6.4219,6.3828,6.4999,6.5741,6.5313,6.5118,6.5624,6.5468,6.4297,6.3555,6.3907,6.4376,6.4727,6.5274,6.6172,6.6798,6.6802,6.681,6.6858,6.6905,6.691,6.6914,6.6914,6.6914,6.6914,6.6953,6.7461,6.8281,6.8984,6.9844,7.1133,7.1836,7.1949,7.2141,7.2448,7.3183,7.3875,7.5158,7.6208,7.6712,7.7101,7.714,7.7335,7.7766,7.7726,7.7726,7.8585,7.9718,7.9953,8.0109,8.0849,8.1474,8.1552,5.6674,5.7112,5.8518,5.9689,6.0588,6.1368,6.1719,6.1719,6.1719,6.1719,6.1719,6.1719,6.1719,6.1719,6.1719,6.1719,6.1719,6.1719,6.1719,6.1721,6.172,6.1693,6.1701,6.1707,6.1714,6.1717,6.1719,6.1719,6.1719,6.1719,6.1758,6.1797,6.1797,6.1758,6.1797,6.1719,6.1719,6.1719,6.1719,6.1719,6.207,6.2539,6.3318,6.3899,6.448,6.5254,6.5945,6.6328,6.625,6.6133,6.6055,6.6094,6.5936,6.5391,6.5664,6.5936,6.5196,6.5235,6.5273,6.4062,6.3907,6.3829,6.3243,6.3438,6.457,6.4726,6.4298,6.4337,6.4843,6.4765,6.3594,6.2969,6.3439,6.4298,6.461,6.504,6.6016,6.6796,6.6802,6.6809,6.6817,6.6865,6.691,6.6913,6.6914,6.6914,6.6914,6.6992,6.7344,6.8437,6.9375,7.0156,7.1172,7.168,7.1953,7.2105,7.2297,7.2719,7.3529,7.5083,7.6326,7.6751,7.7062,7.7218,7.7492,7.8001,7.8508,7.8663,7.9718,8.0655,8.0616,8.0654,8.1435,8.1981,8.2098,5.7383,5.8635,5.8986,6.0001,6.1328,6.1641,6.1719,6.1719,6.1719,6.1719,6.1719,6.1719,6.1719,6.1719,6.1719,6.1719,6.1719,6.1719,6.1727,6.1694,6.1725,6.1695,6.1703,6.1707,6.1715,6.1719,6.1719,6.1719,6.1719,6.1719,6.2031,6.25,6.1836,6.1992,6.25,6.2226,6.1719,6.1719,6.1719,6.1758,6.1992,6.2421,6.2926,6.3702,6.4633,6.5287,6.5863,6.6367,6.6601,6.6523,6.6172,6.6211,6.6094,6.5819,6.5897,6.6016,6.5235,6.5274,6.496,6.3555,6.3321,6.379,6.3164,6.2265,6.3046,6.3399,6.3047,6.2813,6.3243,6.3555,6.2774,6.2265,6.254,6.422,6.5118,6.582,6.664,6.6796,6.6799,6.6805,6.681,6.6859,6.6905,6.6911,6.6914,6.6914,6.6914,6.7031,6.7734,6.875,6.9726,7.0508,7.1289,7.168,7.1992,7.1992,7.2182,7.2527,7.3221,7.4694,7.5895,7.6673,7.6984,7.7179,7.7726,7.8274,7.878,7.9366,8.0146,8.089,8.0929,8.1161,8.1903,8.2292,8.2292]}]]